[[{"header":{"parameterUnit":"m.s-1","parameterCategory":1,"la1":30.6,"la2":28.766,"lo1":-90.7593,"lo2":-88.6598,"dy":0.0162,"dx":0.0183,"nx":116,"ny":114,"refTime":"2024-07-06T06:00:00:Z","depth":0,"parameterNumber":2,"parameterNumberName":"U-component_of_WINDS"},"data":[0.0,0.0,0.0,0.0,0.0,0.0,0.0,0.0,0.0,0.0,0.0,0.0,0.0,0.0,0.0,0.0,0.0,0.0,0.0,0.0,0.0,0.0,0.0,0.0,0.0,0.0,0.0,0.0,0.0,0.0,0.0,0.0,0.0,0.0,0.0,0.0,0.0,0.0,0.0,0.0,0.0,0.0,0.0,0.0,0.0,0.0,0.0,0.0,0.0,0.0,0.0,0.0,0.0,0.0,0.0,0.0,0.0,0.0,0.0,0.0,0.0,0.0,0.0,0.0,0.0,0.0,0.0,0.0,0.0,0.0,0.0,0.0,0.0,0.0,0.0,0.0,0.0,0.0,0.0,0.0,0.0,0.0,0.0,0.0,0.0,0.0,0.0,0.0,0.0,0.0,0.0,0.0,0.0,0.0,0.0,0.0,0.0,0.0,0.0,0.0,0.0,0.0,0.0,0.0,0.0,0.0,0.0,0.0,0.0,0.0,0.0,0.0,0.0,0.0,0.0,0.0,0.0,0.0,0.0,0.0,0.0,0.0,0.0,0.0,0.0,0.0,0.0,0.0,0.0,0.0,0.0,0.0,0.0,0.0,0.0,0.0,0.0,0.0,0.0,0.0,0.0,0.0,0.0,0.0,0.0,0.0,0.0,0.0,0.0,0.0,0.0,0.0,0.0,0.0,0.0,0.0,0.0,0.0,0.0,0.0,0.0,0.0,0.0,0.0,0.0,0.0,0.0,0.0,0.0,0.0,0.0,0.0,0.0,0.0,0.0,0.0,0.0,0.0,0.0,0.0,0.0,0.0,0.0,0.0,0.0,0.0,0.0,0.0,0.0,0.0,0.0,0.0,0.0,0.0,0.0,0.0,0.0,0.0,0.0,0.0,0.0,0.0,0.0,0.0,0.0,0.0,0.0,0.0,0.0,0.0,0.0,0.0,0.0,0.0,0.0,0.0,0.0,0.0,0.0,0.0,0.0,0.0,0.0,0.0,0.0,0.0,0.0,0.0,0.0,0.0,0.0,0.0,0.0,0.0,0.0,0.0,0.0,0.0,0.0,0.0,0.0,0.0,0.0,0.0,0.0,0.0,0.0,0.0,0.0,0.0,0.0,0.0,0.0,0.0,0.0,0.0,0.0,0.0,0.0,0.0,0.0,0.0,0.0,0.0,0.0,0.0,0.0,0.0,0.0,0.0,0.0,0.0,0.0,0.0,0.0,0.0,0.0,0.0,0.0,0.0,0.0,0.0,0.0,0.0,0.0,0.0,0.0,0.0,0.0,0.0,0.0,0.0,0.0,0.0,0.0,0.0,0.0,0.0,0.0,0.0,0.0,0.0,0.0,0.0,0.0,0.0,0.0,0.0,0.0,0.0,0.0,0.0,0.0,0.0,0.0,0.0,0.0,0.0,0.0,0.0,0.0,0.0,0.0,0.0,0.0,0.0,0.0,0.0,0.0,0.0,0.0,0.0,0.0,0.0,0.0,0.0,0.0,0.0,0.0,0.0,0.0,0.0,0.0,0.0,0.0,0.0,0.0,0.0,0.0,0.0,0.0,0.0,0.0,0.0,0.0,0.0,0.0,0.0,0.0,0.0,0.0,0.0,0.0,0.0,0.0,0.0,0.0,0.0,0.0,0.0,0.0,0.0,0.0,0.0,0.0,0.0,0.0,0.0,0.0,0.0,0.0,0.0,0.0,0.0,0.0,0.0,0.0,0.0,0.0,0.0,0.0,0.0,0.0,0.0,0.0,0.0,0.0,0.0,0.0,0.0,0.0,0.0,0.0,0.0,0.0,0.0,0.0,0.0,0.0,0.0,0.0,0.0,0.0,0.0,0.0,0.0,0.0,0.0,0.0,0.0,0.0,0.0,0.0,0.0,0.0,0.0,0.0,0.0,0.0,0.0,0.0,0.0,0.0,0.0,0.0,0.0,0.0,0.0,0.0,0.0,0.0,0.0,0.0,0.0,0.0,0.0,0.0,0.0,0.0,0.0,0.0,0.0,0.0,0.0,0.0,0.0,0.0,0.0,0.0,0.0,0.0,0.0,0.0,0.0,0.0,0.0,0.0,0.0,0.0,0.0,0.0,0.0,0.0,0.0,0.0,0.0,0.0,0.0,0.0,0.0,0.0,0.0,0.0,0.0,0.0,0.0,0.0,0.0,0.0,0.0,0.0,0.0,0.0,0.0,0.0,0.0,0.0,0.0,0.0,0.0,0.0,0.0,0.0,0.0,0.0,0.0,0.0,0.0,0.0,0.0,0.0,0.0,0.0,0.0,0.0,0.0,0.0,0.0,0.0,0.0,0.0,0.0,0.0,0.0,0.0,0.0,0.0,0.0,0.0,0.0,0.0,0.0,0.0,0.0,0.0,0.0,0.0,0.0,0.0,0.0,0.0,0.0,0.0,0.0,0.0,0.0,0.0,0.0,0.0,0.0,0.0,0.0,0.0,0.0,0.0,0.0,0.0,0.0,0.0,0.0,0.0,0.0,0.0,0.0,0.0,0.0,0.0,0.0,0.0,0.0,0.0,0.0,0.0,0.0,0.0,0.0,0.0,0.0,0.0,0.0,0.0,0.0,0.0,0.0,0.0,0.0,0.0,0.0,0.0,0.0,0.0,0.0,0.0,0.0,0.0,0.0,0.0,0.0,0.0,0.0,0.0,0.0,0.0,0.0,0.0,0.0,0.0,0.0,0.0,0.0,0.0,0.0,0.0,0.0,0.0,0.0,0.0,0.0,0.0,0.0,0.0,0.0,0.0,0.0,0.0,0.0,0.0,0.0,0.0,0.0,0.0,0.0,0.0,0.0,0.0,0.0,0.0,0.0,0.0,0.0,0.0,0.0,0.0,0.0,0.0,0.0,0.0,0.0,0.0,0.0,0.0,0.0,0.0,0.0,0.0,0.0,0.0,0.0,0.0,0.0,0.0,0.0,0.0,0.0,0.0,0.0,0.0,0.0,0.0,0.0,0.0,0.0,0.0,0.0,0.0,0.0,0.0,0.0,0.0,0.0,0.0,0.0,0.0,0.0,0.0,0.0,0.0,0.0,0.0,0.0,0.0,0.0,0.0,0.0,0.0,0.0,0.0,0.0,0.0,0.0,0.0,0.0,0.0,0.0,0.0,0.0,0.0,0.0,0.0,0.0,0.0,0.0,0.0,0.0,0.0,0.0,0.0,0.0,0.0,0.0,0.0,0.0,0.0,0.0,0.0,0.0,0.0,0.0,0.0,0.0,0.0,0.0,0.0,0.0,0.0,0.0,0.0,0.0,0.0,0.0,0.0,0.0,0.0,0.0,0.0,0.0,0.0,0.0,0.0,0.0,0.0,0.0,0.0,0.0,0.0,0.0,0.0,0.0,0.0,0.0,0.0,0.0,0.0,0.0,0.0,0.0,0.0,0.0,0.0,0.0,0.0,0.0,0.0,0.0,0.0,0.0,0.0,0.0,0.0,0.0,0.0,0.0,0.0,0.0,0.0,0.0,0.0,0.0,0.0,0.0,0.0,0.0,0.0,0.0,0.0,0.0,0.0,0.0,0.0,0.0,0.0,0.0,0.0,0.0,0.0,0.0,0.0,0.0,0.0,0.0,0.0,0.0,0.0,0.0,0.0,0.0,0.0,0.0,0.0,0.0,0.0,0.0,0.0,0.0,0.0,0.0,0.0,0.0,0.0,0.0,0.0,0.0,0.0,0.0,0.0,0.0,0.0,0.0,0.0,0.0,0.0,0.0,0.0,0.0,0.0,0.0,0.0,0.0,0.0,0.0,0.0,0.0,0.0,0.0,0.0,0.0,0.0,0.0,0.0,0.0,0.0,0.0,0.0,0.0,0.0,0.0,0.0,0.0,0.0,0.0,0.0,0.0,0.0,0.0,0.0,0.0,0.0,0.0,0.0,0.0,0.0,0.0,0.0,0.0,0.0,0.0,0.0,0.0,0.0,0.0,0.0,0.0,0.0,0.0,0.0,0.0,0.0,0.0,0.0,0.0,0.0,0.0,0.0,0.0,0.0,0.0,0.0,0.0,0.0,0.0,0.0,0.0,0.0,0.0,0.0,0.0,0.0,0.0,0.0,0.0,0.0,0.0,0.0,0.0,0.0,0.0,0.0,0.0,0.0,0.0,0.0,0.0,0.0,0.0,0.0,0.0,0.0,0.0,0.0,0.0,0.0,0.0,0.0,0.0,0.0,0.0,0.0,0.0,0.0,0.0,0.0,0.0,0.0,0.0,0.0,0.0,0.0,0.0,0.0,0.0,0.0,0.0,0.0,0.0,0.0,0.0,0.0,0.0,0.0,0.0,0.0,0.0,0.0,0.0,0.0,0.0,0.0,0.0,0.0,0.0,0.0,0.0,0.0,0.0,0.0,0.0,0.0,0.0,0.0,0.0,0.0,0.0,0.0,0.0,0.0,0.0,0.0,0.0,0.0,0.0,0.0,0.0,0.0,0.0,0.0,0.0,0.0,0.0,0.0,0.0,0.0,0.0,0.0,0.0,0.0,0.0,0.0,0.0,0.0,0.0,0.0,0.0,0.0,0.0,0.0,0.0,0.0,0.0,0.0,0.0,0.0,0.0,0.0,0.0,0.0,0.0,0.0,0.0,0.0,0.0,0.0,0.0,0.0,0.0,0.0,0.0,0.0,0.0,0.0,0.0,0.0,0.0,0.0,0.0,0.0,0.0,0.0,0.0,0.0,0.0,0.0,0.0,0.0,0.0,0.0,0.0,0.0,0.0,0.0,0.0,0.0,0.0,0.0,0.0,0.0,0.0,0.0,0.0,0.0,0.0,0.0,0.0,0.0,0.0,0.0,0.0,0.0,0.0,0.0,0.0,0.0,0.0,0.0,0.0,0.0,0.0,0.0,0.0,0.0,0.0,0.0,0.0,0.0,0.0,0.0,0.0,0.0,0.0,0.0,0.0,0.0,0.0,0.0,0.0,0.0,0.0,0.0,0.0,0.0,0.0,0.0,0.0,0.0,0.0,0.0,0.0,0.0,0.0,0.0,0.0,0.0,0.0,0.0,0.0,0.0,0.0,0.0,0.0,0.0,0.0,0.0,0.0,0.0,0.0,0.0,0.0,0.0,0.0,0.0,0.0,0.0,0.0,0.0,0.0,0.0,0.0,0.0,0.0,0.0,0.0,0.0,0.0,0.0,0.0,0.0,0.0,0.0,0.0,0.0,0.0,0.0,0.0,0.0,0.0,0.0,0.0,0.0,0.0,0.0,0.0,0.0,0.0,0.0,0.0,0.0,0.0,0.0,0.0,0.0,0.0,0.0,0.0,0.0,0.0,0.0,0.0,0.0,0.0,0.0,0.0,0.0,0.0,0.0,0.0,0.0,0.0,0.0,0.0,0.0,0.0,0.0,0.0,0.0,0.0,0.0,0.0,0.0,0.0,0.0,0.0,0.0,0.0,0.0,0.0,0.0,0.0,0.0,0.0,0.0,0.0,0.0,0.0,0.0,0.0,0.0,0.0,0.0,0.0,0.0,0.0,0.0,0.0,0.0,0.0,0.0,0.0,0.0,0.0,0.0,0.0,0.0,0.0,0.0,0.0,0.0,0.0,0.0,0.0,0.0,0.0,0.0,0.0,0.0,0.0,0.0,0.0,0.0,0.0,0.0,0.0,0.0,0.0,0.0,0.0,0.0,0.0,0.0,0.0,0.0,0.0,0.0,0.0,0.0,0.0,0.0,0.0,0.0,0.0,0.0,0.0,0.0,0.0,0.0,0.0,0.0,0.0,0.0,0.0,0.0,0.0,0.0,0.0,0.0,0.0,0.0,0.0,0.0,0.0,0.0,0.0,0.0,0.0,0.0,0.0,0.0,0.0,0.0,0.0,0.0,0.0,0.0,0.0,0.0,0.0,0.0,0.0,0.0,0.0,0.0,0.0,0.0,0.0,0.0,0.0,0.0,0.0,0.0,0.0,0.0,0.0,0.0,0.0,0.0,0.0,0.0,0.0,0.0,0.0,0.0,0.0,0.0,0.0,0.0,0.0,0.0,0.0,0.0,0.0,0.0,0.0,0.0,0.0,0.0,0.0,0.0,0.0,0.0,0.0,0.0,0.0,0.0,0.0,0.0,0.0,0.0,0.0,0.0,0.0,0.0,0.0,-0.9885,0.0,0.0,0.0,0.0,0.0,0.0,0.0,0.0,0.0,0.0,0.0,0.0,0.0,0.0,0.0,0.0,0.0,0.0,0.0,0.0,0.0,0.0,0.0,0.0,-0.6037,-0.5936,-0.5654,-0.5689,-0.572,-0.572,0.0,0.0,0.0,0.0,0.0,-0.5116,-0.48,-0.4877,-0.5388,-0.5335,-0.5973,-0.7284,-0.6857,-0.6362,-0.5815,0.0,0.0,0.0,0.0,0.0,0.0,0.0,0.0,0.0,0.0,0.0,0.0,0.0,0.0,0.0,0.0,0.0,0.0,0.0,0.0,0.0,0.0,0.0,0.0,0.0,0.0,0.0,0.0,0.0,0.0,0.0,0.0,0.0,0.0,0.0,0.0,0.0,0.0,0.0,0.0,0.0,0.0,0.0,0.0,0.0,0.0,0.0,0.0,0.0,0.0,0.0,0.0,0.0,0.0,0.0,0.0,0.0,0.0,0.0,0.0,0.0,0.0,0.0,0.0,0.0,0.0,0.0,0.0,0.0,0.0,0.0,-1.1242,0.0,0.0,0.0,0.0,0.0,0.0,0.0,0.0,0.0,0.0,0.0,0.0,0.0,0.0,0.0,0.0,0.0,0.0,0.0,0.0,0.0,-0.629,-0.6337,-0.6354,-0.6372,-0.6432,-0.6471,-0.6518,-0.6523,-0.6455,0.0,0.0,0.0,-0.6275,-0.6006,-0.5753,-0.6079,-0.6985,-0.7216,-0.7971,-0.9243,-0.9457,-0.8898,-0.7702,-0.7022,0.0,0.0,0.0,0.0,0.0,0.0,0.0,0.0,0.0,0.0,0.0,0.0,0.0,0.0,0.0,0.0,0.0,0.0,0.0,0.0,0.0,0.0,0.0,0.0,0.0,0.0,0.0,0.0,0.0,0.0,0.0,0.0,0.0,0.0,0.0,0.0,0.0,0.0,0.0,0.0,0.0,0.0,0.0,0.0,0.0,0.0,0.0,0.0,0.0,0.0,0.0,0.0,0.0,0.0,0.0,0.0,0.0,0.0,0.0,0.0,0.0,0.0,0.0,-1.5671,-1.6069,-1.6768,-1.6768,-1.7351,-1.8098,-1.5655,-1.4755,-1.4869,-1.2932,0.0,0.0,0.0,0.0,0.0,0.0,0.0,0.0,0.0,0.0,0.0,0.0,0.0,0.0,0.0,0.0,0.0,0.0,0.0,-0.6655,-0.695,-0.6979,-0.7098,-0.7386,-0.7105,-0.6937,-0.7009,-0.6631,0.0,0.0,-0.6406,-0.6275,-0.6006,-0.6354,-0.6761,-0.7235,-0.9,-0.9912,-1.016,-1.0918,-1.1184,-1.0932,-0.9746,-0.8862,-0.8199,0.0,0.0,0.0,0.0,0.0,0.0,0.0,0.0,0.0,0.0,0.0,0.0,0.0,0.0,0.0,0.0,0.0,0.0,0.0,0.0,0.0,0.0,0.0,0.0,0.0,0.0,0.0,0.0,0.0,0.0,0.0,0.0,0.0,0.0,0.0,0.0,0.0,0.0,0.0,0.0,0.0,-0.8291,-0.8785,0.0,0.0,0.0,0.0,0.0,0.0,0.0,0.0,0.0,0.0,0.0,0.0,0.0,-1.4785,-1.5617,-1.6461,-1.7173,-1.7843,-1.8661,-1.9349,-1.9985,-1.9985,-2.0227,-2.0632,-1.9283,0.0,-1.664,-1.567,0.0,0.0,0.0,0.0,0.0,0.0,0.0,0.0,0.0,0.0,0.0,0.0,0.0,0.0,0.0,0.0,0.0,0.0,0.0,0.0,0.0,-0.8322,-0.898,-0.9322,-0.9343,-0.9161,-0.8693,-0.8159,-0.7656,-0.7141,-0.7121,-0.7201,-0.7339,-0.7558,-0.8228,-0.9361,-1.1233,-1.2082,-1.2091,-1.2706,-1.3008,-1.2988,-1.2416,-1.1207,-0.9506,-0.8796,0.0,0.0,0.0,0.0,0.0,0.0,0.0,0.0,0.0,0.0,0.0,0.0,0.0,0.0,0.0,0.0,0.0,0.0,0.0,0.0,0.0,0.0,0.0,0.0,0.0,0.0,0.0,0.0,0.0,0.0,0.0,0.0,0.0,0.0,0.0,0.0,0.0,0.0,0.0,-0.7966,-0.9225,-0.917,-0.9565,-0.9446,0.0,0.0,0.0,0.0,0.0,0.0,0.0,0.0,0.0,-1.6432,-1.6926,-1.7734,-1.8948,-1.9566,-1.9813,-1.9679,-2.0042,-2.0144,-2.0009,-2.0697,-2.1062,-2.1239,-2.0698,-1.9913,-1.89,-1.6512,-1.5046,-1.4146,0.0,0.0,0.0,0.0,-1.0504,-1.0648,0.0,0.0,0.0,0.0,0.0,0.0,0.0,0.0,0.0,0.0,0.0,0.0,-0.8327,-0.9555,-1.0493,-1.0893,-1.1085,-1.0869,-1.0211,-0.9345,-0.8603,-0.8046,-0.7919,-0.8096,-0.8535,-0.91,-1.0059,-1.1478,-1.2937,-1.3662,-1.3672,-1.3984,-1.4077,-1.4077,-1.4077,-1.2974,-1.1041,-1.0146,-0.9292,0.0,0.0,0.0,0.0,0.0,0.0,0.0,0.0,0.0,0.0,0.0,0.0,0.0,0.0,0.0,0.0,0.0,0.0,0.0,0.0,0.0,0.0,0.0,0.0,0.0,0.0,0.0,0.0,0.0,0.0,0.0,0.0,0.0,0.0,0.0,0.0,0.0,0.0,-0.9426,-1.0629,-1.005,-1.1269,-1.1587,0.0,0.0,0.0,0.0,0.0,0.0,-1.5686,-1.6113,-1.7243,-1.9136,-1.9316,-1.9953,-2.1196,-2.1259,-2.1029,-2.0421,-2.0792,-2.073,-2.0186,-2.1095,-2.1455,-2.1446,-2.0709,-2.041,-2.014,-1.7231,-1.6133,-1.5979,-1.3889,-1.2866,-1.2672,-1.2893,-1.2933,-1.2966,0.0,0.0,0.0,0.0,0.0,0.0,0.0,0.0,0.0,0.0,0.0,-0.8005,-0.9617,-1.033,-1.0901,-1.1478,-1.1268,-1.1043,-1.0843,-0.9342,-0.8564,-0.8926,-0.8555,-0.8545,-0.8965,-1.0964,-1.2268,-1.2812,-1.363,-1.4048,-1.4048,-1.4068,-1.4077,-1.4077,-1.4077,-1.3795,-1.327,-1.2396,-1.1567,-1.0684,0.0,0.0,0.0,0.0,0.0,0.0,0.0,0.0,0.0,0.0,0.0,0.0,0.0,0.0,0.0,0.0,0.0,0.0,0.0,0.0,0.0,0.0,0.0,0.0,0.0,0.0,0.0,0.0,0.0,0.0,0.0,0.0,0.0,0.0,0.0,0.0,0.0,0.0,0.0,-1.2272,-1.4463,0.0,0.0,0.0,0.0,-1.4693,-1.5299,-1.6369,-1.8064,-1.8782,-2.0,-2.1646,-2.1014,-2.0788,-2.1291,-2.0146,-1.9629,-1.9563,-2.1125,-2.1879,-2.1897,-2.1897,-2.1989,-2.1787,-1.9108,-1.8488,-1.9496,-1.8472,-1.7162,-1.5696,-1.5197,-1.4363,-1.3581,-1.3512,-1.3941,-1.4416,0.0,0.0,0.0,-0.6841,-0.6685,-0.6599,-0.6599,-0.6599,-0.6799,-0.7331,-0.8039,-0.9127,-1.0809,-1.2146,-1.3243,-1.4174,-1.4085,-1.3744,-1.3122,-1.1276,-1.0272,-1.0391,-0.9357,-0.9502,-1.1045,-1.2109,-1.2988,-1.3691,-1.4268,-1.4551,-1.4561,-1.4824,-1.5107,-1.5361,-1.5078,-1.4873,-1.4658,-1.3525,-1.2541,-1.1679,-1.0578,-0.9232,0.0,0.0,0.0,0.0,0.0,0.0,0.0,0.0,0.0,0.0,0.0,0.0,0.0,0.0,0.0,0.0,0.0,0.0,0.0,0.0,0.0,0.0,0.0,0.0,0.0,0.0,0.0,0.0,0.0,0.0,0.0,0.0,0.0,0.0,0.0,0.0,0.0,-1.4285,-1.6211,0.0,-1.5845,-1.651,-1.7321,-1.809,-1.8817,-1.9809,-2.0905,-2.123,-2.1955,-2.3086,-2.1974,-2.159,-2.1985,-2.0755,-1.9621,-1.8866,-1.947,-1.9341,-1.8663,-1.9437,-1.9726,-1.9718,-1.8646,-1.8497,-1.8755,-1.7669,-1.7108,-1.6877,-1.597,-1.5307,-1.505,-1.505,-1.5184,-1.5364,-0.7515,-0.7332,0.0,-0.6845,-0.6702,-0.6599,-0.6599,-0.6762,-0.7137,-0.7876,-0.8951,-1.027,-1.1964,-1.3481,-1.465,-1.5332,-1.5405,-1.5026,-1.4171,-1.241,-1.1362,-1.1333,-1.0535,-1.083,-1.2412,-1.3154,-1.3867,-1.4561,-1.5,-1.5293,-1.5449,-1.5723,-1.6016,-1.6279,-1.5986,-1.5859,-1.5801,-1.4951,-1.3926,-1.2774,-1.1958,-1.0906,-0.9689,0.0,0.0,0.0,0.0,0.0,0.0,0.0,0.0,0.0,0.0,0.0,0.0,0.0,0.0,0.0,0.0,0.0,0.0,0.0,0.0,0.0,0.0,0.0,0.0,0.0,0.0,0.0,0.0,0.0,0.0,0.0,0.0,0.0,0.0,0.0,-1.6514,-1.6085,-1.8064,-1.9146,-1.809,-1.8882,-1.986,-2.0683,-2.1475,-2.2197,-2.291,-2.2629,-2.2777,-2.3328,-2.1649,-2.0821,-2.1058,-1.9805,-1.8739,-1.7874,-1.8471,-1.8331,-1.7545,-1.8323,-1.8721,-1.8714,-1.8115,-1.7874,-1.7874,-1.6993,-1.6959,-1.7258,-1.6409,-1.6126,-1.6126,-1.6126,-1.6066,-1.5965,-0.7287,-0.7195,-0.7066,-0.6672,-0.6599,-0.6599,-0.6599,-0.7044,-0.7814,-0.8962,-1.0056,-1.137,-1.3048,-1.4237,-1.4918,-1.4881,-1.4947,-1.4664,-1.3924,-1.2573,-1.1768,-1.1606,-1.2021,-1.249,-1.2949,-1.417,-1.5019,-1.5449,-1.5879,-1.6309,-1.6665,-1.6665,-1.6738,-1.6748,-1.6738,-1.6738,-1.6748,-1.6738,-1.5762,-1.4087,-1.3301,-1.293,-1.2706,0.0,0.0,0.0,0.0,0.0,0.0,0.0,0.0,0.0,0.0,0.0,0.0,0.0,0.0,0.0,0.0,0.0,0.0,0.0,0.0,0.0,0.0,0.0,0.0,0.0,0.0,0.0,0.0,0.0,0.0,0.0,0.0,0.0,-1.4937,-1.6899,-1.8156,-1.7633,-2.0146,-2.1426,-2.0156,-2.1191,-2.2119,-2.2539,-2.2959,-2.3379,-2.3789,-2.2973,-2.2425,-2.2434,-1.9925,-1.8572,-1.8489,-1.732,-1.674,-1.6754,-1.8419,-1.9164,-1.9179,-1.9164,-1.9164,-1.9041,-1.7445,-1.6734,-1.6734,-1.6734,-1.6734,-1.6734,-1.6714,-1.6707,-1.6707,-1.6707,-1.6526,-1.6246,-0.7272,-0.708,-0.6911,-0.6651,-0.6599,-0.6599,-0.6599,-0.7044,-0.7814,-0.8962,-1.0408,-1.1977,-1.3682,-1.4853,-1.5652,-1.5978,-1.5659,-1.5345,-1.5129,-1.3346,-1.2212,-1.2021,-1.2764,-1.3643,-1.4697,-1.5059,-1.5605,-1.6367,-1.6484,-1.6611,-1.6665,-1.6665,-1.6904,-1.7187,-1.6875,-1.6914,-1.7187,-1.6865,-1.6393,-1.5877,-1.5068,-1.3946,-1.2697,0.0,0.0,0.0,0.0,0.0,0.0,0.0,0.0,0.0,0.0,0.0,0.0,0.0,0.0,0.0,0.0,0.0,0.0,0.0,0.0,0.0,0.0,0.0,0.0,0.0,0.0,0.0,0.0,0.0,0.0,0.0,-1.5874,-1.7555,-1.7341,-1.9108,-2.0562,-2.1053,-2.2078,-2.2773,-2.2734,-2.3047,-2.3437,-2.3867,-2.4004,-2.4121,-2.4238,-2.3967,-2.3505,-2.2829,-2.1153,-2.0006,-1.9256,-1.8053,-1.7455,-1.7675,-1.7941,-1.8094,-1.8307,-1.8185,-1.8074,-1.7963,-1.7576,-1.7341,-1.7341,-1.7341,-1.7341,-1.7295,-1.6874,-1.6707,-1.6707,-1.6707,-1.6653,-1.6573,-0.741,-0.7176,-0.6963,-0.6757,-0.6668,-0.6599,-0.6599,-0.7275,-0.8177,-0.9278,-1.1086,-1.2818,-1.4274,-1.5379,-1.607,-1.617,-1.583,-1.531,-1.4615,-1.3366,-1.2665,-1.2744,-1.3584,-1.4473,-1.5391,-1.5586,-1.6123,-1.7002,-1.7002,-1.71,-1.7266,-1.7266,-1.7402,-1.7637,-1.7383,-1.7412,-1.7627,-1.7373,-1.7168,-1.6963,-1.6445,-1.539,-1.4052,-1.3412,-1.2567,-1.1625,-1.1027,-1.0432,-0.9792,-0.9185,0.0,0.0,0.0,0.0,0.0,0.0,0.0,0.0,0.0,0.0,0.0,0.0,0.0,0.0,0.0,0.0,0.0,0.0,0.0,0.0,0.0,0.0,0.0,0.0,-1.8369,-1.9877,-2.0048,-2.1038,-2.2021,-2.2695,-2.3154,-2.3516,-2.3769,-2.3945,-2.415,-2.4394,-2.459,-2.4687,-2.4687,-2.4441,-2.4137,-2.3574,-2.2417,-2.148,-2.0969,-1.9623,-1.8985,-1.9175,-1.836,-1.8056,-1.823,-1.8043,-1.7963,-1.7963,-1.7963,-1.7963,-1.7956,-1.7829,-1.7776,0.0,0.0,0.0,0.0,0.0,-1.6894,-1.6874,-0.765,-0.7379,-0.713,-0.6927,-0.6757,-0.6633,-0.6599,-0.7583,-0.8688,-0.9755,-1.1758,-1.3559,-1.4702,-1.5706,-1.6158,-1.5731,-1.5599,-1.4943,-1.3564,-1.3145,-1.3204,-1.3726,-1.4478,-1.5078,-1.5547,-1.5986,-1.6621,-1.7451,-1.7451,-1.7646,-1.8008,-1.8008,-1.8037,-1.8076,-1.8076,-1.8105,-1.8154,-1.8154,-1.791,-1.7529,-1.7529,-1.6973,-1.6105,-1.5234,-1.4544,-1.3884,-1.3183,-1.2259,-1.125,-1.0733,0.0,0.0,0.0,0.0,0.0,0.0,0.0,0.0,0.0,0.0,0.0,0.0,0.0,0.0,0.0,0.0,0.0,0.0,0.0,0.0,0.0,0.0,0.0,0.0,-2.0713,-2.2119,-2.2588,-2.2656,-2.2793,-2.3174,-2.3603,-2.3887,-2.3926,-2.4268,-2.4531,-2.4629,-2.5,-2.5244,-2.5283,0.0,0.0,0.0,0.0,-2.2953,-2.2634,-2.1348,-2.0622,-2.0448,-1.9147,-1.851,-1.8537,-1.8504,-1.849,-1.849,-1.849,-1.849,-1.847,-1.8203,-1.8096,-1.8063,-1.7716,-1.7582,-1.7549,-1.7295,-1.7201,-1.7161,-0.7665,-0.7379,-0.713,-0.6927,-0.6874,-0.6791,-0.6633,-0.7583,-0.8688,-0.9755,-1.1462,-1.2994,-1.4123,-1.484,-1.5329,-1.5668,-1.5241,-1.4993,-1.506,-1.4006,-1.4021,-1.5382,-1.5339,-1.5664,-1.6455,-1.6904,-1.7373,-1.7891,-1.7891,-1.793,-1.8008,-1.8008,-1.8193,-1.8446,-1.8446,-1.8711,-1.9043,-1.9043,-1.8789,-1.8389,-1.8389,-1.7676,-1.6543,-1.6016,-1.5537,-1.5052,-1.455,-1.4032,-1.3417,-1.2784,-1.2362,-1.1872,-1.077,0.0,0.0,0.0,0.0,0.0,0.0,0.0,0.0,0.0,0.0,0.0,0.0,0.0,0.0,0.0,0.0,0.0,0.0,0.0,0.0,-1.9626,-2.1244,-2.2656,-2.3437,-2.3545,-2.3574,-2.3652,-2.4043,-2.4434,-2.4785,-2.4893,-2.5234,-2.5957,-2.6084,-2.6279,-2.6621,-2.6483,-2.603,-2.4859,-2.4715,-2.3483,-2.114,-2.0816,-2.0201,-1.9268,0.0,0.0,-1.8831,-1.8597,-1.849,-1.849,-1.849,-1.849,-1.8484,-1.843,-1.8404,-1.835,-1.7796,-1.7582,-1.7575,-1.7522,-1.7502,-1.7488,-0.7827,-0.7575,-0.7317,-0.708,-0.6977,-0.6841,-0.6633,-0.7583,-0.8587,-0.9391,-1.096,-1.2316,-1.3179,-1.3722,-1.4048,-1.4048,-1.3798,0.0,0.0,-1.4384,-1.4522,-1.5848,-1.5776,-1.6055,-1.6719,-1.7158,-1.7588,-1.8008,-1.8008,-1.8008,-1.8018,-1.8223,-1.8437,-1.8582,-1.8867,-1.9082,-1.9287,-1.9287,-1.916,-1.8945,-1.8721,-1.8183,-1.7551,-1.6973,-1.6455,-1.6016,-1.5576,-1.5146,-1.4681,-1.4136,-1.373,-1.3246,-1.2333,-1.1637,-1.0974,0.0,0.0,0.0,0.0,0.0,0.0,0.0,0.0,0.0,0.0,0.0,0.0,0.0,0.0,-1.6018,-1.7243,0.0,-2.0,-2.1665,-2.2592,-2.3379,-2.4014,-2.4287,-2.4346,-2.4131,-2.4482,-2.4834,-2.5049,-2.5469,-2.5908,-2.6357,-2.6582,-2.6797,-2.7002,-2.7217,-2.7014,-2.6361,-2.6559,-2.6,-2.4477,-2.382,-2.3149,-2.245,-2.0854,-2.0097,-2.0238,-1.9326,-1.8931,-1.8931,-1.8931,-1.8931,-1.8918,-1.8771,-1.8617,-1.8464,-1.8156,-1.7949,-1.7796,-1.7642,-1.7582,-1.7582,-0.7971,-0.7768,-0.756,-0.7256,-0.7064,-0.6878,-0.6633,-0.7463,-0.8361,-0.9012,-1.0372,-1.1512,-1.2178,-1.2622,-1.2785,-1.2559,-1.2707,0.0,0.0,-1.4908,-1.5201,-1.6191,-1.6351,-1.6594,-1.6961,-1.7301,-1.7733,-1.8269,-1.8076,-1.8047,-1.8135,-1.8477,-1.8721,-1.8896,-1.9258,-1.9453,-1.9541,-1.9541,-1.9482,-1.9375,-1.8936,-1.8711,-1.8555,-1.7793,-1.7236,-1.6797,-1.6357,-1.5859,-1.5361,-1.5019,-1.4619,-1.415,-1.3588,-1.3035,-1.2439,-1.1771,-1.1054,0.0,0.0,0.0,0.0,0.0,0.0,0.0,0.0,0.0,-1.5398,-1.6394,-1.7124,-1.8145,-1.9855,-2.0445,-2.1381,-2.3475,-2.3857,-2.4062,-2.4482,-2.4844,-2.4971,-2.4707,-2.498,-2.5234,-2.5312,-2.5967,-2.6455,-2.6631,-2.6953,-2.7178,-2.7256,-2.7598,-2.7783,-2.7783,-2.8115,-2.8174,-2.7843,-2.6381,-2.5489,-2.5151,-2.2476,-2.1137,-2.1137,-1.9924,-1.9366,-1.9366,-1.9366,-1.9366,-1.9352,-1.9112,-1.8871,-1.8657,-1.8597,-1.843,-1.8176,-1.7869,-1.7762,-1.7749,-0.7971,-0.7885,-0.7724,-0.7287,-0.7193,-0.7048,-0.6655,-0.7125,-0.7889,-0.8962,-0.9667,-1.0495,-1.1563,-1.1738,-1.214,-1.3023,-1.3555,0.0,-1.6938,-1.6416,-1.6421,-1.7389,-1.7514,-1.7687,-1.7873,-1.7905,-1.8345,-1.9177,-1.8405,-1.8203,-1.8494,-1.8613,-1.9043,-1.9775,-1.9824,-2.0059,-2.042,-2.042,-2.0195,-1.9805,-1.9385,-1.8984,-1.8584,-1.8115,-1.7676,-1.7256,-1.6816,-1.6123,-1.54,-1.5352,-1.5059,-1.4707,-1.4651,-1.4528,-1.4382,-1.3888,0.0,-1.2744,-1.3539,-1.4353,-1.5303,-1.6578,-1.6392,-1.6847,0.0,0.0,-1.8909,-2.0784,-2.1491,-2.1858,-2.2097,-2.2862,-2.3475,-2.376,-2.4102,-2.4492,-2.4932,-2.5039,-2.5195,-2.5547,-2.5635,-2.581,-2.6201,-2.6328,-2.6699,-2.7471,-2.7568,-2.7754,-2.8135,-2.8193,-2.8223,-2.8223,-2.8271,-2.7618,-2.6381,-2.482,-2.3375,-2.2024,-2.0479,-1.9707,-1.9591,-1.9482,-1.9366,-1.9366,-1.9366,-1.9366,-1.9366,-1.9332,-1.9299,-1.9245,-1.8978,-1.8851,-1.8791,-1.8497,-1.839,-1.835,-0.7971,-0.7899,-0.7797,-0.7485,-0.7303,-0.7098,-0.6824,-0.7136,-0.7701,-0.8524,-0.9089,-0.973,-1.0521,-1.0608,-1.106,-1.2178,-1.3039,-1.4494,-1.6748,-1.6765,-1.7166,-1.8186,-1.7943,-1.7863,-1.7863,-1.7945,-1.8462,-1.9299,-1.8911,-1.8812,-1.9005,-1.9524,-1.9685,-1.957,-2.0068,-2.0391,-2.0566,-2.0566,-2.0459,-2.0234,-1.9561,-1.918,-1.8916,-1.7998,-1.7383,-1.6953,-1.6504,-1.5937,0.0,0.0,-1.4551,-1.4404,-1.4404,-1.4238,-1.4053,-1.4111,-1.4072,0.0,-1.5957,-1.665,-1.7178,0.0,-1.8827,-1.9477,-2.081,-2.0924,-2.0957,-2.1997,-2.2588,-2.2881,-2.2881,-2.3379,-2.3867,0.0,-2.4512,-2.4951,-2.54,-2.5234,-2.5137,-2.5322,-2.5352,-2.5625,-2.6318,-2.6611,-2.7002,-2.7617,-2.7891,-2.8105,-2.8281,-2.8291,-2.8291,-2.8291,-2.8291,-2.795,-2.7394,-2.6717,-2.6164,-2.5489,-2.4044,-2.2822,-2.1934,-2.1038,-2.0256,-1.9366,-1.9366,-1.9366,-1.9366,-1.9366,-1.9366,-1.9359,-1.9232,-1.9185,-1.9125,-1.8664,-1.849,-1.847,-0.7971,-0.7856,-0.7768,-0.7635,-0.7331,-0.7064,-0.6927,-0.705,-0.745,-0.8211,-0.8625,-0.9127,-0.983,-0.9905,-1.0303,-1.1282,-1.2494,-1.4025,-1.5976,-1.6754,-1.7567,-1.8453,-1.8315,-1.8201,-1.8148,-1.8253,-1.8654,-1.9299,-1.9299,-1.9362,-1.9498,-2.0376,-2.0477,-2.0011,-2.065,-2.0943,-2.0943,-2.0943,-2.0793,-2.0506,-1.975,-1.9249,-1.8809,-1.7646,-1.6855,-1.6328,-1.6006,-1.5527,0.0,0.0,-1.4053,-1.3922,-1.4048,-1.3926,-1.3809,-1.4473,-1.5146,-1.5967,-1.7295,0.0,0.0,-1.9609,-2.0713,-2.1533,-2.1328,-2.1777,-2.2314,-2.2627,-2.293,-2.3135,-2.3135,-2.3496,-2.3926,-2.4346,-2.4785,-2.5225,-2.5674,-2.5352,-2.5117,-2.5234,-2.5146,-2.542,-2.6309,-2.666,-2.707,-2.7627,-2.7949,-2.8174,-2.8281,-2.8291,-2.834,-2.8467,-2.8467,-2.8525,-2.8643,-2.8199,-2.7972,-2.7972,-2.649,-2.5026,-2.3448,-2.188,-2.0491,-1.9486,-1.9406,-1.9366,-1.9366,-1.9366,-1.9366,-1.9366,-1.9366,-1.9366,-1.9319,-1.8891,-1.8731,-1.8724,-0.7971,-0.7739,-0.762,-0.7605,-0.7219,-0.6894,-0.6908,-0.6736,-0.7025,-0.816,-0.8324,-0.8738,-0.978,-0.9905,-1.0143,-1.0758,-1.227,-1.3717,-1.4964,-1.6497,-1.7538,-1.7918,-1.8856,-1.9251,-1.9041,-1.9201,-1.9299,-1.9299,-1.9299,-1.953,-1.9881,-2.0773,-2.1385,-2.1851,-2.1874,-2.1885,-2.1885,-2.1885,-2.1339,-2.0532,-2.0052,-1.9137,-1.7949,-1.708,-1.6211,-1.5449,-1.5439,0.0,0.0,-1.4087,-1.3857,-1.3603,-1.4004,-1.4068,0.0,-1.5625,-1.6904,0.0,0.0,0.0,-2.0068,-2.0957,-2.1826,-2.2578,-2.2969,-2.3076,-2.3105,-2.3115,-2.3125,-2.3135,-2.3135,-2.3496,-2.3926,-2.4346,-2.4785,-2.5225,-2.5674,-2.5352,-2.5225,-2.5664,-2.5332,-2.542,-2.6309,-2.6396,-2.6758,-2.7607,-2.7676,-2.7861,-2.8271,-2.8291,-2.8476,-2.8887,-2.8896,-2.9101,-2.9531,-2.8136,-2.7323,-2.7323,-2.5797,-2.4295,-2.2669,-2.0726,-1.9786,-1.9773,-1.9492,-1.9366,-1.9366,-1.9366,-1.9366,-1.9366,-1.9366,-1.9366,-1.9366,-1.9352,-1.9339,-1.9299,-0.7971,-0.7739,-0.7605,-0.7605,-0.7219,-0.6908,-0.6908,-0.6723,-0.7,-0.816,-0.8926,0.0,0.0,0.0,0.0,0.0,-1.1902,-1.3313,-1.4831,-1.6098,-1.721,-1.8068,-1.8598,-1.8854,-1.8742,-1.891,-1.9204,-1.9583,-2.0149,-2.0407,-2.038,-2.1556,-2.1861,-2.143,-2.1764,-2.1574,-2.1015,-2.1015,-2.0532,-1.9643,-1.8904,-1.8398,-1.792,-1.7061,-1.6006,-1.5,0.0,0.0,0.0,-1.3398,-1.3213,-1.3115,-1.3262,0.0,0.0,-1.5576,0.0,-1.7842,0.0,0.0,-2.0996,-2.1865,-2.251,-2.2959,-2.3105,-2.3135,-2.3135,-2.3135,-2.292,-2.2812,-2.3086,-2.3262,-2.3594,-2.4297,-2.4785,-2.5225,-2.5674,-2.5605,-2.5459,-2.5312,-2.543,0.0,-2.5518,0.0,0.0,-2.7598,-2.7666,-2.7969,-2.8672,-2.8711,-2.8906,-2.9336,-2.9346,-2.9424,-2.957,-2.9103,-2.8869,-2.8756,-2.7236,-2.631,-2.5608,-2.294,-2.1727,-2.1594,-2.0239,-1.9659,-1.9639,-1.9446,-1.9366,-1.9366,-1.9366,-1.9366,-1.9366,-1.9366,-1.9366,-1.9352,-0.7971,-0.7665,-0.7454,-0.7454,-0.7077,0.0,0.0,0.0,0.0,0.0,0.0,0.0,0.0,0.0,0.0,0.0,0.0,-1.2876,-1.3964,-1.5237,-1.6434,-1.7551,-1.7763,-1.7984,-1.8283,-1.8382,-1.8609,-1.8866,-1.9692,-2.0147,-2.0175,-2.1305,-2.1689,-2.1295,-2.1632,-2.1461,-2.0928,-2.0676,-2.0023,-1.9162,-1.8424,-1.7725,-1.6992,-1.6366,-1.5357,0.0,0.0,0.0,-1.3242,-1.2969,-1.2881,0.0,0.0,0.0,0.0,0.0,-1.7373,-1.8652,-2.0352,-2.1133,-2.167,-2.2519,-2.2939,-2.3135,-2.3135,-2.3135,-2.3096,-2.2949,-2.2578,-2.2373,-2.2646,-2.2559,-2.2842,-2.4004,-2.456,-2.5098,-2.5869,-2.5967,-2.5918,-2.5781,-2.5889,-2.5918,0.0,0.0,0.0,-2.7393,-2.7578,-2.8027,-2.8877,-2.8916,-2.9189,-2.9775,-2.9795,-2.9873,-3.0039,-3.0039,-3.0039,-3.0039,-2.8487,-2.766,-2.7651,-2.4931,-2.3699,-2.3683,-2.229,-2.162,-2.1387,-2.0727,-2.0578,-2.0931,-2.0371,-2.0479,-2.0931,-2.0931,-2.0931,-2.0823,-0.7971,-0.7516,-0.7195,0.0,0.0,0.0,0.0,0.0,0.0,0.0,0.0,0.0,0.0,0.0,0.0,0.0,0.0,0.0,-1.2507,-1.3964,0.0,-1.6384,-1.6484,-1.6876,-1.7608,-1.769,-1.7594,-1.7313,-1.8197,-1.8844,-1.9353,-2.0266,-2.0903,-2.1405,-2.1405,-2.1405,-2.1294,-2.058,-1.9808,-1.8929,-1.8391,-1.7058,-1.5456,-1.5178,0.0,0.0,0.0,0.0,0.0,0.0,0.0,0.0,0.0,0.0,0.0,0.0,0.0,-2.0176,-2.1035,-2.1602,-2.2139,-2.2939,-2.3135,-2.3135,-2.3135,-2.3125,-2.2978,-2.2539,-2.209,-2.1777,-2.1758,0.0,-2.1748,-2.3447,-2.4111,-2.4883,-2.6201,-2.6406,-2.6572,0.0,0.0,0.0,0.0,0.0,0.0,-2.7109,0.0,-2.8076,-2.8935,-2.8984,-2.9365,-3.0205,-3.0234,-3.0449,-3.0889,-3.0889,-3.0889,-3.0889,-2.9285,-2.8536,-2.8408,-2.6576,-2.5583,-2.5575,-2.5202,-2.4738,-2.4196,-2.2651,-2.2681,-2.3511,-2.2153,-2.2484,-2.371,-2.3822,-2.3822,-2.3375,0.0,0.0,0.0,0.0,0.0,0.0,0.0,0.0,0.0,0.0,0.0,0.0,0.0,0.0,0.0,0.0,0.0,0.0,-1.2378,-1.3188,0.0,0.0,-1.6082,-1.6579,-1.6811,-1.7636,-1.7906,-1.7571,-1.8476,-1.8858,-1.8821,-1.9633,-2.01,-2.0225,-2.0225,-1.9896,-1.9348,-1.9131,-1.8571,-1.7677,0.0,-1.6339,-1.619,0.0,0.0,0.0,0.0,0.0,0.0,0.0,0.0,0.0,0.0,0.0,-1.7978,0.0,0.0,-2.1016,-2.1572,-2.2256,-2.2871,-2.3086,-2.3135,-2.3135,-2.3135,-2.2891,-2.2461,-2.1719,-2.0947,-2.0322,-2.001,0.0,0.0,-2.2607,-2.3721,0.0,-2.6201,-2.666,0.0,-2.7002,0.0,-2.7383,-2.749,-2.7783,0.0,0.0,-2.8242,-2.8643,-2.9805,-2.9873,-3.0127,-3.0693,-3.0713,-3.0771,-3.0889,-3.0889,-3.0889,-3.0889,-3.0518,-3.0265,-3.0147,-2.8437,-2.7047,-2.5819,-2.4283,-2.2894,-2.1605,-2.0788,-2.0552,-2.0914,-2.1347,-2.1805,-2.2251,-2.3375,-2.3822,-2.371,0.0,0.0,0.0,0.0,0.0,0.0,0.0,0.0,0.0,0.0,0.0,0.0,0.0,0.0,0.0,0.0,0.0,0.0,0.0,-1.2534,-1.3358,-1.45,-1.4877,-1.5304,-1.5781,-1.6421,-1.6653,-1.6484,0.0,0.0,-1.7315,-1.8051,-1.8493,-1.8756,-1.8995,-1.8846,-1.8418,-1.81,0.0,0.0,0.0,0.0,0.0,0.0,0.0,0.0,0.0,0.0,0.0,0.0,0.0,-1.6992,-1.7432,-1.8281,-1.9307,-2.0176,0.0,-2.165,-2.2275,-2.2783,-2.3135,-2.3135,-2.3135,-2.2988,-2.2432,-2.2119,-2.1543,-2.0117,-1.9424,0.0,-1.8281,-1.917,0.0,0.0,0.0,0.0,-2.6201,-2.6914,-2.7363,0.0,-2.7959,0.0,-2.8223,-2.8603,-2.9023,0.0,-2.9092,-2.9248,-3.0146,-3.0195,-3.041,-3.0879,-3.0889,-3.0889,-3.0889,-3.0889,-3.0889,-3.0889,-3.0889,-3.0889,-3.0889,-2.9903,-2.9039,-2.8051,0.0,-2.4763,-2.3633,-2.1973,-2.1425,-2.1839,-2.2559,-2.273,-2.2814,-2.4931,-2.538,-2.4931,0.0,0.0,0.0,0.0,0.0,0.0,0.0,0.0,0.0,0.0,0.0,0.0,0.0,0.0,0.0,0.0,0.0,0.0,0.0,0.0,-1.2868,-1.3934,-1.3559,-1.3785,-1.4777,-1.4865,-1.4916,0.0,0.0,0.0,0.0,0.0,0.0,0.0,0.0,0.0,0.0,0.0,0.0,0.0,0.0,0.0,0.0,0.0,0.0,0.0,0.0,0.0,0.0,0.0,-1.7412,-1.8359,-1.8896,-1.9873,-2.0986,-2.1807,-2.2051,-2.2207,-2.2939,-2.3135,-2.3135,-2.3135,-2.3096,-2.2734,-2.1514,-2.1103,-2.0381,-1.8271,0.0,-1.7422,-1.6621,-1.7881,-1.9355,-2.0322,0.0,-2.4687,-2.6182,-2.7031,-2.7715,-2.8301,-2.8701,-2.8965,-2.9072,-2.9434,-2.9834,-3.0254,-2.9951,-2.9902,-3.0273,-3.0293,-3.0478,-3.0879,-3.0889,-3.0889,-3.0889,-3.0889,-3.0889,-3.0889,-3.0889,-3.0889,-3.0889,-3.0889,-3.0762,-3.0518,-2.903,-2.8101,-2.7317,-2.4523,-2.3771,-2.4441,-2.4505,-2.4369,-2.4497,-2.7276,-2.7501,-2.6599,0.0,0.0,0.0,0.0,0.0,0.0,0.0,0.0,0.0,0.0,-1.0483,-0.9905,0.0,0.0,0.0,0.0,0.0,0.0,0.0,0.0,0.0,-1.3345,-1.3709,-1.4035,-1.4223,0.0,0.0,0.0,0.0,0.0,0.0,0.0,0.0,0.0,0.0,0.0,0.0,0.0,0.0,0.0,0.0,0.0,0.0,0.0,0.0,0.0,0.0,0.0,0.0,0.0,-1.8008,-1.9785,-2.0957,-2.1719,-2.2275,-2.2773,-2.292,-2.2949,-2.3096,-2.3135,-2.3135,-2.3135,-2.2881,-2.2373,-2.1445,-2.04,0.0,0.0,-1.6377,-1.5713,-1.5215,-1.6543,-1.8223,-1.9775,0.0,0.0,0.0,0.0,-2.7158,0.0,0.0,0.0,0.0,0.0,0.0,0.0,0.0,-3.0693,-3.0771,-3.0771,-3.081,-3.0889,-3.0889,-3.0889,-3.0889,-3.0889,-3.0889,-3.0889,-3.0889,-3.0889,-3.0889,-3.0889,-3.0147,-2.8792,-2.8536,0.0,-2.6231,-2.5452,-2.4964,-2.4895,-2.5865,-2.6074,-2.5927,-2.7618,-2.8174,-2.796,0.0,0.0,0.0,0.0,0.0,0.0,0.0,-1.0069,-1.1173,-1.2303,-1.1977,-1.1382,-1.0847,-1.0257,0.0,0.0,0.0,0.0,0.0,0.0,0.0,0.0,0.0,0.0,0.0,0.0,0.0,0.0,0.0,0.0,0.0,0.0,0.0,0.0,0.0,0.0,0.0,0.0,0.0,0.0,0.0,0.0,0.0,0.0,0.0,0.0,0.0,0.0,0.0,0.0,-1.7585,-1.9228,-2.0996,-2.1992,-2.2549,-2.2754,-2.2969,-2.3135,-2.3135,-2.3135,-2.3135,-2.3135,-2.2822,-2.2051,-2.0283,0.0,0.0,0.0,-1.4893,-1.4551,-1.3916,0.0,0.0,0.0,0.0,0.0,0.0,0.0,0.0,0.0,0.0,0.0,0.0,0.0,0.0,0.0,0.0,-3.0889,-3.0889,-3.0889,-3.0889,-3.0889,-3.0889,-3.0889,-3.0889,-3.0889,-3.0889,-3.0889,-3.0889,-3.0889,-3.0889,-3.0889,-3.0518,-2.9648,-2.8783,-2.7931,-2.7185,-2.6156,-2.5398,-2.5003,-2.6338,-2.6131,-2.5151,-2.7501,-2.7843,-2.7276,0.0,0.0,0.0,0.0,0.0,0.0,0.0,-1.0885,-1.2165,-1.327,-1.3273,-1.2872,-1.2027,-1.0935,-1.0143,0.0,0.0,0.0,0.0,0.0,0.0,0.0,0.0,0.0,0.0,0.0,0.0,0.0,0.0,0.0,0.0,0.0,0.0,0.0,0.0,0.0,0.0,0.0,0.0,0.0,0.0,0.0,0.0,0.0,0.0,0.0,0.0,0.0,0.0,0.0,-1.6729,-1.7666,-1.9648,-2.1172,-2.2256,-2.2353,-2.2676,-2.3027,-2.3115,-2.3135,-2.3135,-2.3135,-2.2685,-2.1602,-1.9189,-1.8096,0.0,0.0,-1.3701,-1.3691,-1.3125,0.0,0.0,0.0,0.0,0.0,0.0,0.0,0.0,0.0,0.0,0.0,0.0,0.0,0.0,0.0,0.0,-3.0889,-3.0889,-3.0889,-3.0889,-3.0889,-3.0889,-3.0889,-3.0889,-3.0889,-3.0889,-3.0889,-3.0889,-3.0889,-3.0889,-3.0889,-3.0889,-3.0889,-2.953,-2.8911,-2.8792,-2.7572,-2.6635,-2.6062,-2.7236,-2.6412,-2.5049,-2.7394,-2.7609,-2.6717,0.0,0.0,0.0,0.0,0.0,0.0,0.0,-1.096,-1.273,-1.3871,-1.3546,-1.316,-1.306,-1.209,-1.0895,0.0,0.0,0.0,0.0,0.0,0.0,0.0,0.0,0.0,0.0,0.0,0.0,0.0,0.0,0.0,0.0,0.0,0.0,0.0,0.0,0.0,0.0,0.0,0.0,0.0,0.0,0.0,0.0,0.0,0.0,0.0,0.0,0.0,0.0,0.0,0.0,-1.5322,-1.6709,-1.9082,-2.1426,-2.1826,0.0,0.0,-2.3037,-2.3135,-2.3135,-2.3135,-2.2236,-2.0879,-1.9072,0.0,0.0,-1.3887,-1.3232,-1.3096,-1.3389,-1.3955,0.0,0.0,0.0,0.0,0.0,0.0,0.0,0.0,0.0,0.0,0.0,0.0,0.0,0.0,0.0,-3.0889,-3.0889,-3.0889,-3.0889,-3.0889,-3.0889,-3.0889,-3.0889,-3.0889,-3.0889,-3.0889,-3.0889,-3.0889,-3.0889,-3.0889,-3.0889,-3.0889,-3.0762,-3.0645,0.0,-3.0518,-2.9882,-2.9215,-2.9337,-2.8813,-2.795,-2.8184,-2.8184,-2.8067,0.0,0.0,0.0,0.0,0.0,0.0,-0.9441,-1.091,-1.2429,-1.3896,-1.3896,-1.3596,-1.3235,-1.2542,-1.138,0.0,0.0,0.0,0.0,0.0,0.0,0.0,0.0,0.0,0.0,0.0,0.0,0.0,0.0,0.0,0.0,0.0,0.0,0.0,0.0,0.0,0.0,0.0,0.0,0.0,0.0,0.0,0.0,0.0,0.0,0.0,0.0,0.0,0.0,0.0,0.0,0.0,-1.501,-1.6523,0.0,0.0,-2.0996,-2.1894,-2.2578,-2.2949,-2.3135,-2.3135,-2.2178,-2.0713,-1.8721,0.0,-1.5566,-1.3535,-1.2998,-1.293,-1.3096,-1.3477,-1.4209,0.0,-1.6318,-1.7725,0.0,0.0,0.0,0.0,0.0,0.0,0.0,0.0,0.0,0.0,0.0,-3.0889,-3.0889,-3.0889,-3.0889,-3.0889,-3.0889,-3.0889,-3.0889,-3.0889,-3.0889,-3.0889,-3.0889,-3.0889,-3.0889,-3.0889,-3.0889,-3.0889,-3.0889,-3.0889,0.0,-3.0596,-3.0117,-2.9541,-2.9277,-2.8818,-2.8291,-2.8291,-2.8291,-2.8291,0.0,0.0,0.0,0.0,0.0,-0.8411,-0.9491,-1.0608,-1.1876,-1.3405,-1.3488,-1.3303,-1.2998,-1.2244,-1.1197,-0.9757,0.0,0.0,0.0,0.0,0.0,0.0,0.0,0.0,0.0,0.0,0.0,0.0,0.0,0.0,0.0,0.0,0.0,0.0,0.0,0.0,0.0,0.0,0.0,0.0,0.0,0.0,0.0,0.0,0.0,0.0,0.0,0.0,0.0,0.0,0.0,0.0,0.0,0.0,0.0,0.0,-1.9746,-2.0908,-2.2021,-2.2637,-2.2949,-2.2949,-2.1992,-2.0478,0.0,0.0,-1.5303,-1.3291,-1.2881,-1.2881,-1.2881,-1.3125,-1.3643,0.0,-1.5244,-1.6553,-1.9287,0.0,0.0,0.0,0.0,0.0,0.0,0.0,0.0,0.0,0.0,-3.0889,-3.0889,-3.0889,-3.0889,-3.0889,-3.0889,-3.0889,-3.0889,-3.0889,-3.0889,-3.0889,-3.0889,-3.0889,-3.0889,-3.0889,-3.0889,-3.0889,-3.0889,-3.081,0.0,-3.0332,-2.9873,-2.9346,-2.9033,-2.8662,-2.8291,-2.8291,-2.8291,-2.8291,0.0,0.0,0.0,0.0,0.0,0.0,-0.8949,-1.0018,-1.1107,-1.2278,-1.2078,-1.1967,-1.2384,-1.1113,-1.0224,-1.02,0.0,0.0,0.0,0.0,0.0,0.0,0.0,0.0,0.0,0.0,-1.3798,-1.4903,-1.5404,-1.568,0.0,0.0,0.0,0.0,0.0,0.0,0.0,0.0,0.0,0.0,0.0,0.0,0.0,0.0,0.0,0.0,0.0,0.0,0.0,0.0,0.0,0.0,0.0,0.0,0.0,0.0,-1.8633,-1.9687,-2.1426,-2.2197,-2.2519,-2.2519,-2.1543,-2.001,0.0,-1.6367,-1.4932,-1.3232,-1.2881,-1.2881,-1.2881,-1.2881,-1.3301,-1.458,-1.5557,-1.7174,-2.0127,0.0,0.0,0.0,0.0,0.0,0.0,0.0,0.0,0.0,0.0,0.0,-3.0889,-3.0889,-3.0889,-3.0889,-3.0889,-3.0889,-3.0889,-3.0889,-3.0889,-3.0889,-3.0889,-3.0889,-3.0889,-3.0889,-3.0889,-3.0889,-3.0889,-3.0635,0.0,-3.0195,-2.9697,-2.8926,-2.8916,-2.8662,-2.8291,-2.8291,-2.8291,-2.8291,0.0,0.0,0.0,0.0,0.0,0.0,0.0,-0.9152,-0.9993,-1.1082,-1.1131,-1.1251,-1.1801,-1.1057,-1.0525,-1.0525,0.0,0.0,0.0,0.0,0.0,0.0,0.0,0.0,0.0,-1.3616,-1.42,-1.4916,-1.5012,-1.5465,-1.6245,-1.544,0.0,0.0,0.0,0.0,0.0,0.0,0.0,0.0,0.0,0.0,0.0,0.0,0.0,0.0,0.0,0.0,0.0,0.0,0.0,0.0,0.0,0.0,0.0,-1.4912,-1.6396,-1.7725,-1.8574,-1.9326,-1.9795,-1.9512,-1.8906,-1.7978,-1.6396,-1.5488,-1.458,-1.3174,-1.2881,-1.2881,-1.2881,-1.2881,-1.3486,-1.5352,-1.5949,0.0,0.0,0.0,0.0,0.0,0.0,0.0,0.0,0.0,0.0,0.0,-3.0889,-3.0889,-3.0889,-3.0889,-3.0889,-3.0889,-3.0889,-3.0889,-3.0889,-3.0889,-3.0889,-3.0889,-3.0889,-3.0889,-3.0889,-3.0889,-3.0889,-3.0869,-3.0557,-3.0332,-3.0146,-2.956,-2.916,-2.8887,-2.8603,-2.8408,-2.8291,-2.8291,-2.8291,-2.8291,0.0,0.0,0.0,0.0,0.0,0.0,0.0,-0.8248,-0.8863,-0.9956,-0.9962,-1.022,-1.1144,-1.0634,-1.0331,-1.0681,0.0,0.0,0.0,0.0,0.0,0.0,0.0,0.0,-1.2943,-1.3688,-1.4362,-1.4916,-1.4849,-1.5283,-1.6139,-1.5408,-1.5031,-1.4836,0.0,0.0,0.0,0.0,0.0,0.0,0.0,0.0,-1.4759,0.0,0.0,0.0,0.0,0.0,0.0,0.0,0.0,0.0,0.0,0.0,0.0,0.0,-1.4541,-1.5752,0.0,-1.7637,-1.8105,-1.7842,-1.7451,-1.6797,-1.5469,-1.4844,-1.4228,-1.3115,-1.2881,-1.2881,-1.2881,-1.2881,-1.3418,-1.5068,-1.5742,0.0,0.0,0.0,0.0,0.0,0.0,0.0,0.0,0.0,0.0,-3.0889,-3.0889,-3.0889,-3.0889,-3.0723,-3.0635,-3.0635,-3.0801,-3.0889,-3.0889,-3.0889,-3.0889,-3.0889,-3.0713,-3.0635,-3.0625,-3.0469,-3.0391,-3.0371,-3.0088,-2.9863,0.0,-2.9141,-2.8828,-2.8662,-2.8398,-2.8291,-2.8291,-2.8291,-2.8291,-2.8291,0.0,0.0,0.0,0.0,0.0,0.0,0.0,0.0,-0.7814,-0.8962,-0.8766,-0.908,-1.0491,-0.9912,-0.9761,-1.0566,0.0,0.0,0.0,0.0,0.0,0.0,0.0,0.0,-1.2532,-1.3617,-1.44,-1.4916,-1.4844,-1.505,-1.5588,-1.5487,-1.5239,-1.4784,-1.4799,-1.4183,0.0,0.0,0.0,0.0,0.0,-1.4595,0.0,0.0,0.0,0.0,0.0,0.0,0.0,0.0,0.0,0.0,0.0,0.0,0.0,0.0,0.0,0.0,0.0,-1.6777,-1.71,-1.707,-1.6777,-1.6172,-1.4932,-1.4365,0.0,-1.3047,-1.2881,-1.291,-1.2998,-1.2969,-1.3262,-1.4287,0.0,0.0,0.0,0.0,0.0,0.0,0.0,0.0,0.0,0.0,-3.0801,-3.0801,-3.0801,-3.0801,-3.0801,-3.0391,-3.0156,-3.0156,-3.0576,-3.0801,-3.0801,-3.0801,-3.0801,-3.0791,-3.0361,-3.0156,-3.0137,-2.9746,-2.957,0.0,-2.9531,-2.9287,-2.8916,-2.8887,-2.8643,-2.8291,-2.8291,-2.8291,-2.8291,-2.8291,-2.8291,-2.8291,0.0,0.0,0.0,0.0,0.0,0.0,0.0,0.0,0.0,0.0,-0.9017,-0.9255,-1.0018,-0.9903,-0.9878,0.0,0.0,0.0,0.0,0.0,0.0,0.0,0.0,0.0,-1.3012,-1.4137,-1.4777,-1.4916,-1.4756,-1.5037,-1.5588,-1.4675,-1.444,-1.4742,-1.3953,-1.3064,0.0,0.0,0.0,0.0,-1.4194,-1.4115,0.0,0.0,0.0,0.0,-1.3209,-1.3054,0.0,0.0,0.0,0.0,0.0,0.0,0.0,0.0,-1.2949,-1.3135,-1.3643,0.0,-1.4346,-1.4014,-1.4102,-1.4102,0.0,-1.3496,-1.3506,-1.2988,0.0,-1.3184,-1.416,-1.3799,-1.4287,-1.7119,0.0,0.0,0.0,0.0,0.0,0.0,0.0,0.0,0.0,0.0,-2.9883,-2.9883,-2.9883,-2.9883,-2.9883,-2.9775,-2.9717,-2.9717,-2.9824,-2.9883,-2.9883,-2.9883,-2.9883,-2.9883,-2.9766,-2.9717,-2.9717,-2.9619,-2.957,-2.9551,-2.9219,-2.9014,-2.8896,-2.8574,-2.8389,-2.8291,-2.8291,-2.8291,-2.8291,-2.8291,-2.8291,-2.8291,0.0,0.0,0.0,0.0,0.0,0.0,0.0,0.0,0.0,0.0,0.0,0.0,0.0,0.0,0.0,0.0,0.0,0.0,0.0,0.0,0.0,0.0,0.0,-1.1825,-1.2532,-1.3865,-1.4499,-1.4474,-1.4382,-1.4474,-1.4767,-1.4365,-1.4427,-1.4725,-1.3724,-1.2736,0.0,0.0,0.0,0.0,-1.3563,0.0,0.0,0.0,0.0,0.0,-1.2494,-1.2372,0.0,-1.2423,-1.2642,-1.2617,0.0,0.0,0.0,0.0,-1.2881,-1.2881,-1.2881,-1.333,-1.374,-1.3516,-1.3623,-1.374,-1.3506,0.0,0.0,0.0,0.0,-1.3203,-1.4287,-1.4633,0.0,0.0,-1.9349,0.0,0.0,0.0,0.0,0.0,0.0,0.0,0.0,0.0,-2.957,-2.957,-2.957,-2.957,-2.957,-2.9385,-2.9277,-2.9277,-2.9082,-2.918,-2.957,-2.957,-2.957,-2.957,-2.9365,-2.9277,-2.9258,-2.9072,-2.8984,-2.8975,-2.873,-2.8633,-2.8613,-2.8389,-2.8291,-2.8291,-2.8291,-2.8291,-2.8291,-2.8291,-2.8291,-2.8291,0.0,0.0,0.0,0.0,0.0,0.0,0.0,0.0,0.0,0.0,0.0,0.0,0.0,0.0,0.0,0.0,0.0,0.0,0.0,0.0,0.0,0.0,-1.1289,-1.1582,-1.2132,-1.3509,-1.4211,-1.4277,-1.4258,-1.4261,-1.4193,-1.4532,-1.4503,-1.4214,-1.3569,-1.2593,0.0,0.0,0.0,0.0,-1.3118,0.0,0.0,0.0,0.0,0.0,0.0,0.0,0.0,-1.1733,-1.2073,-1.2248,-1.2666,0.0,0.0,0.0,0.0,0.0,-1.3037,-1.3834,-1.4518,-1.4102,-1.4141,-1.4165,-1.4097,0.0,0.0,0.0,0.0,0.0,0.0,-1.5739,0.0,0.0,0.0,0.0,0.0,0.0,0.0,0.0,0.0,0.0,0.0,-2.916,-2.9375,-2.9375,-2.9375,-2.9375,-2.9375,-2.9023,-2.8818,-2.8818,-2.8476,-2.8643,-2.9365,-2.9375,-2.9375,-2.9375,-2.9004,-2.8818,-2.8809,-2.8457,-2.8291,-2.8291,0.0,0.0,-2.8291,-2.8291,-2.8291,-2.8291,-2.8291,-2.8291,-2.8291,-2.8291,-2.8291,-2.8291,0.0,0.0,0.0,0.0,0.0,0.0,0.0,0.0,0.0,0.0,0.0,0.0,0.0,0.0,0.0,0.0,0.0,0.0,0.0,0.0,0.0,-1.2223,-1.2283,-1.2734,-1.3716,-1.4425,-1.4976,-1.5446,-1.5848,-1.602,-1.5963,-1.5064,-1.3737,-1.2091,-1.2467,-1.185,-1.0587,-1.184,0.0,-1.2743,0.0,0.0,0.0,0.0,0.0,0.0,0.0,0.0,0.0,-1.1064,-1.1611,-1.219,-1.2258,0.0,0.0,0.0,0.0,0.0,-1.375,-1.5416,-1.6404,-1.4165,-1.415,-1.459,-1.4165,0.0,0.0,0.0,0.0,0.0,0.0,-1.7592,-1.8111,0.0,0.0,0.0,0.0,0.0,0.0,0.0,0.0,0.0,0.0,-2.8447,-2.8486,-2.8486,-2.8486,-2.8486,-2.8486,-2.8428,-2.8389,-2.8389,-2.833,-2.8359,-2.8486,-2.8486,-2.8486,-2.8486,-2.8418,-2.8389,-2.8389,-2.832,-2.8291,-2.8291,0.0,-2.8291,-2.8291,-2.8291,-2.8291,-2.8291,-2.8291,-2.8291,-2.8291,-2.8291,-2.8291,-2.8291,0.0,0.0,0.0,0.0,0.0,0.0,0.0,0.0,0.0,0.0,0.0,0.0,0.0,0.0,0.0,0.0,0.0,0.0,0.0,0.0,-1.2068,-1.2889,-1.3216,-1.3447,-1.3655,-1.4474,-1.5022,-1.5186,-1.572,-1.5808,-1.5453,-1.4893,-1.3761,-1.2105,-1.2647,-1.2026,-1.0685,-1.1655,-1.2253,-1.2511,0.0,0.0,0.0,0.0,0.0,0.0,0.0,0.0,0.0,0.0,-1.1338,-1.1914,-1.2148,0.0,0.0,0.0,0.0,0.0,-1.335,-1.47,-1.5946,-1.5481,-1.6701,-1.7986,-1.7455,-1.7213,0.0,0.0,0.0,0.0,0.0,0.0,-2.1454,-2.5518,0.0,-2.696,-2.8888,-2.8603,-2.8166,0.0,0.0,-2.8291,-2.8291,-2.8291,-2.8291,-2.8291,-2.8291,-2.8291,-2.8291,-2.8291,-2.8291,-2.8291,-2.8291,-2.8291,-2.8291,-2.8291,-2.8291,-2.8291,-2.8291,-2.8291,-2.8291,-2.8291,-2.8291,-2.8291,0.0,-2.8291,-2.8291,-2.8291,-2.8291,-2.8291,-2.8291,-2.8291,-2.8291,-2.8291,-2.8291,-2.8291,0.0,0.0,0.0,0.0,0.0,0.0,0.0,0.0,0.0,0.0,0.0,0.0,0.0,0.0,0.0,0.0,0.0,0.0,0.0,-1.1671,-1.2477,-1.3059,-1.3729,-1.4014,-1.3881,-1.4684,-1.5129,-1.5211,-1.5616,-1.5405,-1.468,-1.4708,-1.3916,-1.2478,-1.2737,-1.2137,-1.0964,-1.1509,-1.1888,-1.2099,0.0,0.0,0.0,0.0,0.0,0.0,0.0,0.0,0.0,0.0,0.0,0.0,0.0,0.0,0.0,-1.2881,-1.2881,-1.293,-1.3125,-1.4165,-1.5452,-1.6719,-1.8517,-2.0126,-2.0404,-2.0133,0.0,0.0,0.0,0.0,0.0,-2.2051,0.0,-2.873,-2.9425,-2.9588,-3.0014,-2.9708,-2.9198,-2.8436,-2.8291,-2.8291,-2.8291,-2.8291,-2.8291,-2.8291,-2.8291,-2.8291,-2.8291,-2.8291,-2.8291,-2.8291,-2.8291,-2.8291,-2.8291,-2.8291,-2.8291,-2.8291,-2.8291,-2.8291,-2.8291,-2.8291,-2.8291,-2.8291,-2.8291,-2.8291,-2.8291,-2.8291,-2.8291,-2.8291,-2.8291,-2.8291,-2.8291,-2.8291,-2.8291,-2.8291,0.0,0.0,0.0,0.0,0.0,0.0,0.0,0.0,0.0,0.0,0.0,0.0,0.0,0.0,0.0,0.0,0.0,0.0,0.0,-1.1295,-1.1914,-1.2439,-1.3509,-1.4563,-1.5514,-1.5618,-1.5865,-1.6373,-1.6336,-1.5739,-1.4595,-1.4678,-1.3861,-1.2288,-1.1953,-1.1502,-1.1016,-1.1562,-1.152,-1.1145,-1.1644,0.0,0.0,0.0,0.0,0.0,0.0,0.0,0.0,0.0,0.0,0.0,0.0,0.0,-1.2881,-1.2881,-1.2881,-1.3047,-1.3828,-1.5085,-1.6395,-1.7179,-1.7391,-1.8184,-2.1062,-2.0837,0.0,-2.1955,0.0,0.0,0.0,-2.4959,0.0,0.0,0.0,-2.9319,-3.0426,0.0,-2.8726,-2.8396,-2.8291,-2.8291,-2.8291,-2.8291,-2.8291,-2.8291,-2.8291,-2.8291,-2.8291,-2.8291,-2.8291,-2.8291,-2.8291,-2.8291,-2.8291,-2.8291,-2.8291,-2.8291,-2.8291,-2.8291,-2.8291,-2.8291,-2.8291,-2.8291,-2.8291,-2.8291,-2.8291,-2.8291,-2.8291,-2.8291,-2.8291,-2.8291,-2.8291,-2.8291,-2.8291,-2.8291,0.0,0.0,0.0,0.0,0.0,0.0,0.0,0.0,0.0,0.0,0.0,0.0,0.0,0.0,0.0,0.0,0.0,0.0,0.0,-1.1261,-1.1989,-1.2847,-1.3973,-1.479,-1.5178,-1.5517,-1.5778,-1.5952,-1.5924,-1.5646,-1.5234,-1.5267,-1.4248,-1.2446,-1.2903,-1.2277,-1.0985,-1.1518,-1.1407,-1.0935,-1.0914,-1.0772,0.0,0.0,0.0,0.0,0.0,0.0,0.0,0.0,-1.0986,-1.1587,-1.1445,-1.209,-1.2832,-1.2559,-1.2666,-1.2949,-1.3271,-1.5223,-1.7237,-1.7408,-1.911,0.0,0.0,-2.3845,-2.4764,-2.5514,-2.5781,0.0,0.0,0.0,0.0,0.0,0.0,0.0,-3.0375,-3.035,-2.9791,-2.8167,-2.8135,-2.8291,-2.8291,-2.8291,-2.8291,-2.8291,-2.8291,-2.8291,-2.8291,-2.8291,-2.8291,-2.8291,-2.8291,-2.8291,-2.8291,-2.8291,-2.8291,-2.8291,-2.8291,-2.8291,-2.8291,-2.8291,-2.8291,-2.8291,-2.8291,-2.8291,-2.8291,-2.8291,-2.8291,-2.8291,-2.8291,-2.8291,-2.8291,-2.8291,-2.8291,-2.8291,0.0,0.0,0.0,0.0,0.0,0.0,0.0,0.0,0.0,0.0,0.0,0.0,0.0,0.0,0.0,0.0,0.0,0.0,-1.0406,-1.0998,-1.1738,-1.2634,-1.3772,-1.4438,-1.4639,-1.5329,-1.5703,-1.561,-1.5592,-1.5499,-1.532,-1.5157,-1.441,-1.3224,-1.3357,-1.2722,-1.1624,-1.1491,-1.1236,-1.0889,-1.0596,-1.04,0.0,0.0,0.0,0.0,0.0,0.0,0.0,0.0,-1.0869,-1.1348,-1.1328,-1.1953,-1.2646,-1.248,-1.2926,-1.3479,-1.362,-1.5426,-1.7476,-1.8222,0.0,0.0,-2.4201,-2.5807,-2.7338,-2.8313,-2.8228,-2.798,-2.798,0.0,0.0,0.0,-3.2159,0.0,0.0,0.0,-3.0121,-2.7732,-2.7715,-2.7949,-2.8086,-2.8096,-2.8144,-2.8281,-2.8291,-2.8291,-2.8291,-2.8291,-2.8291,-2.8291,-2.8291,-2.8291,-2.8291,-2.8291,-2.8291,-2.8291,-2.8291,-2.8291,-2.8291,-2.8291,-2.8291,-2.8291,-2.8291,-2.8291,-2.8291,-2.8291,-2.8291,-2.8291,-2.8291,-2.8291,-2.8291,-2.8291,-2.8291,-2.8291,0.0,0.0,0.0,0.0,0.0,0.0,0.0,0.0,0.0,0.0,0.0,0.0,0.0,0.0,0.0,0.0,0.0,0.0,-0.9905,-1.0393,-1.0985,-1.1563,-1.2642,-1.3483,-1.4072,-1.5155,-1.568,-1.5693,-1.5641,-1.5276,-1.4687,-1.4161,-1.4241,-1.47,-1.3075,-1.2647,-1.3114,-1.1583,-1.0918,-1.0918,-1.0908,-1.0654,-1.0332,0.0,0.0,0.0,0.0,0.0,0.0,0.0,-1.0908,-1.1064,-1.1898,0.0,-1.2324,-1.2754,-1.3687,-1.4705,-1.5222,-1.5884,-1.7076,0.0,0.0,0.0,-2.5513,-2.635,-2.7281,-3.0055,-2.9756,-2.8962,-2.8962,0.0,0.0,-2.9773,-3.1638,-3.2335,0.0,0.0,0.0,0.0,-2.7012,-2.7187,-2.7617,-2.7656,-2.7832,-2.8252,-2.8281,-2.8281,-2.8281,-2.8281,-2.8281,-2.8281,-2.8281,-2.8281,-2.8281,-2.8281,-2.8281,-2.8281,-2.8281,-2.8281,-2.8291,-2.8291,-2.8291,-2.8291,-2.8291,-2.8291,-2.8291,-2.8291,-2.8291,-2.8291,-2.8291,-2.8291,-2.8291,-2.8291,-2.8291,-2.8291,0.0,0.0,0.0,0.0,0.0,0.0,0.0,0.0,0.0,0.0,0.0,0.0,0.0,0.0,0.0,0.0,0.0,0.0,-0.9905,-1.0393,-1.0985,-1.1563,-1.2642,-1.3273,-1.3471,-1.4211,-1.4953,-1.5693,-1.5248,-1.515,-1.5405,-1.5247,-1.4881,-1.4307,-1.4083,-1.3444,-1.251,-1.1749,-1.1571,-1.1828,-1.1192,-1.084,-1.0742,0.0,0.0,0.0,0.0,0.0,0.0,0.0,0.0,0.0,-1.1221,0.0,-1.2646,-1.2471,-1.3076,-1.3872,-1.4002,-1.6342,0.0,-1.9265,0.0,0.0,0.0,-2.7792,0.0,0.0,-3.1464,-3.1079,-3.0696,0.0,0.0,-3.1472,-3.2072,-3.2117,0.0,0.0,0.0,0.0,0.0,0.0,0.0,-2.7207,-2.7266,-2.7383,-2.7393,-2.7393,-2.7393,-2.7393,-2.7393,-2.7393,-2.7393,-2.7393,-2.7393,-2.7393,-2.7393,-2.7393,-2.7393,-2.7715,-2.8291,-2.8291,-2.8291,-2.8291,-2.8291,-2.8291,-2.8291,-2.8291,-2.8291,-2.8291,-2.8291,-2.8291,-2.8291,-2.8291,-2.8291,-2.8291,0.0,0.0,0.0,0.0,0.0,0.0,0.0,0.0,0.0,0.0,-0.9905,-0.9905,0.0,0.0,0.0,0.0,0.0,0.0,0.0,-1.0207,-1.0759,-1.155,-1.2228,-1.2893,-1.3546,-1.4123,-1.4626,-1.504,-1.4894,-1.5143,-1.5693,-1.5215,-1.4988,-1.503,-1.4563,-1.3858,-1.3001,-1.2477,-1.2148,-1.1989,-1.1598,-1.1221,-1.0928,0.0,0.0,0.0,0.0,0.0,0.0,0.0,0.0,0.0,-1.0859,0.0,-1.2194,-1.2765,-1.3618,-1.4671,-1.5966,-1.8463,0.0,-2.2015,-2.4788,-2.7451,-2.8184,0.0,0.0,0.0,0.0,-3.2114,-3.1775,-3.1725,0.0,-3.2152,-3.2403,-3.2215,-3.1352,0.0,0.0,0.0,0.0,0.0,0.0,0.0,0.0,0.0,-2.7012,-2.7012,-2.7012,-2.7012,-2.7012,-2.7012,-2.7012,-2.7012,-2.7012,-2.7012,-2.7012,-2.7012,-2.7012,-2.7285,-2.7793,-2.7969,-2.8135,-2.8291,-2.8291,-2.8291,-2.8291,-2.8291,-2.8291,-2.8291,-2.8291,-2.8291,-2.8291,-2.8291,-2.8291,-2.8291,0.0,0.0,-0.7401,-0.7541,0.0,0.0,0.0,0.0,0.0,-0.9905,-0.9905,-0.9905,0.0,0.0,0.0,-0.9905,0.0,0.0,0.0,-0.9943,-1.0458,-1.1538,-1.1769,-1.2574,-1.4123,-1.4601,-1.4588,-1.4085,-1.4588,-1.5117,-1.5618,-1.4502,-1.4849,-1.6324,-1.4642,-1.3956,-1.3978,-1.3334,-1.2499,-1.1624,-1.2034,-1.1662,-1.0947,-1.139,0.0,0.0,0.0,0.0,0.0,0.0,0.0,0.0,-1.0781,-1.0937,-1.1328,-1.3247,-1.4671,-1.6276,-1.9432,0.0,0.0,0.0,0.0,0.0,-3.0143,0.0,-3.1486,-3.2089,0.0,-3.229,-3.229,-3.229,-3.229,-3.229,-3.2729,-3.2711,-3.15,0.0,0.0,0.0,0.0,0.0,0.0,0.0,0.0,0.0,0.0,-2.6894,-2.6894,-2.6894,-2.6894,-2.6894,-2.6894,-2.6894,-2.6894,-2.6894,-2.6894,-2.6894,-2.6894,-2.6914,-2.6973,-2.7412,-2.7832,-2.8232,-2.8232,-2.8262,-2.8291,-2.8291,-2.8291,-2.8291,-2.8291,-2.8291,-2.8291,-2.8291,-2.8291,-2.8291,0.0,0.0,-0.8704,-0.8736,0.0,0.0,0.0,0.0,-0.9905,-0.9905,-0.9905,-0.9905,-0.9905,-0.9905,0.0,-0.9905,-0.9905,0.0,0.0,-1.0307,-1.086,-1.155,-1.2864,-1.3921,-1.4714,-1.4425,-1.4198,-1.4085,-1.4198,-1.4551,-1.5053,-1.4804,-1.5093,-1.5752,-1.4967,-1.4158,-1.3312,-1.2416,-1.1899,-1.1665,-1.1326,-1.1069,-1.0918,-1.1016,-1.0732,0.0,0.0,0.0,0.0,0.0,0.0,0.0,-1.0781,-1.1143,-1.1587,-1.2351,-1.3641,-1.525,0.0,-1.9576,0.0,0.0,0.0,0.0,0.0,0.0,0.0,-3.2014,-3.2579,-3.2893,-3.2893,-3.2893,-3.2893,-3.2893,-3.3006,-3.2982,-3.2698,0.0,0.0,0.0,0.0,0.0,0.0,0.0,0.0,0.0,0.0,0.0,-2.6016,-2.6016,-2.6016,-2.6016,-2.6016,-2.6016,-2.6016,-2.6016,-2.6016,-2.6016,-2.6016,-2.6191,-2.6533,-2.6963,-2.7393,-2.7803,-2.7803,-2.7988,-2.8291,-2.8291,-2.8291,-2.8291,-2.8291,-2.8291,-2.8291,-2.8291,-2.8291,-2.8291,0.0,0.0,0.0,0.0,0.0,0.0,0.0,0.0,-0.9905,-0.9905,-0.9905,-0.9905,-0.9905,-0.9905,0.0,0.0,-0.9905,-0.9905,0.0,0.0,-1.1069,-1.1952,-1.3342,-1.4097,-1.4086,-1.4097,-1.4085,-1.4085,-1.4085,-1.4362,-1.4877,-1.515,-1.566,-1.643,-1.5576,-1.4782,-1.3993,-1.2924,-1.2189,-1.1682,-1.1399,-1.1114,-1.0908,-1.0908,-1.0645,-1.0283,-1.0283,0.0,0.0,0.0,0.0,0.0,0.0,0.0,-1.1197,-1.2402,-1.334,-1.4682,0.0,0.0,0.0,0.0,0.0,0.0,0.0,0.0,0.0,0.0,0.0,0.0,0.0,0.0,0.0,0.0,0.0,0.0,0.0,0.0,0.0,0.0,0.0,0.0,0.0,0.0,0.0,0.0,0.0,-2.5742,-2.5742,-2.5742,-2.5742,-2.5742,-2.5742,-2.5742,-2.5742,-2.5742,-2.5742,-2.5742,-2.5742,-2.5859,-2.6103,-2.6728,-2.7139,-2.7353,-2.7353,-2.7598,-2.7988,-2.7988,-2.8115,-2.8291,-2.8291,-2.8291,-2.8291,-2.8291,-2.8291,-2.8291,0.0,0.0,0.0,0.0,0.0,0.0,0.0,0.0,0.0,-0.9905,-0.9905,-0.9905,-0.9905,-0.9905,-0.9905,0.0,0.0,0.0,-0.9905,0.0,0.0,-1.2504,-1.3544,-1.3871,-1.3348,-1.3722,-1.3946,-1.3946,-1.3946,-1.4374,-1.5178,-1.5581,-1.6296,-1.7212,-1.6215,-1.5428,-1.479,-1.3724,-1.2689,-1.1715,-1.1715,-1.1437,-1.1035,-1.0954,-1.0696,-1.039,-1.0322,-1.0283,-1.0293,-1.0371,0.0,0.0,0.0,0.0,-1.0716,-1.2391,-1.3093,-1.4218,0.0,0.0,0.0,0.0,0.0,0.0,0.0,0.0,0.0,0.0,0.0,0.0,0.0,0.0,0.0,0.0,0.0,0.0,0.0,0.0,0.0,0.0,0.0,0.0,0.0,0.0,0.0,0.0,0.0,-2.5742,-2.5742,-2.5742,-2.5742,-2.5742,-2.5742,-2.5742,-2.5742,-2.5742,-2.5742,-2.5742,-2.5742,-2.583,-2.6043,-2.6754,-2.7029,-2.6904,-2.6904,-2.7158,-2.7559,-2.7559,-2.7764,-2.8076,-2.8154,-2.8184,-2.8193,-2.8262,-2.8291,-2.8291,0.0,0.0,0.0,0.0,0.0,0.0,0.0,0.0,0.0,0.0,-0.9905,-0.9905,-0.9905,-0.9905,-0.9905,-0.9905,-0.9905,-0.9905,0.0,0.0,0.0,-1.3048,-1.3758,-1.4047,-1.3972,-1.3546,-1.3311,-1.3311,-1.3311,-1.4325,-1.6308,-1.6361,-1.6473,-1.6622,-1.6461,-1.5585,-1.4169,-1.3557,-1.2721,-1.1801,-1.1801,-1.1752,-1.1641,-1.1141,-1.0957,-1.0867,-1.0428,-1.0283,-1.0342,-1.0703,-1.082,0.0,0.0,0.0,0.0,-1.115,-1.221,-1.3678,0.0,0.0,0.0,0.0,0.0,0.0,0.0,0.0,0.0,0.0,0.0,0.0,0.0,0.0,0.0,0.0,0.0,0.0,0.0,0.0,0.0,0.0,0.0,0.0,0.0,0.0,0.0,0.0,-2.5742,-2.5742,-2.5742,-2.5742,-2.5742,-2.5742,-2.5742,-2.5742,-2.5742,-2.5742,-2.5742,-2.5742,-2.5742,-2.6294,-2.7315,-2.744,-2.715,-2.6475,-2.6475,-2.6709,-2.71,-2.71,-2.7139,-2.7226,-2.7607,-2.7754,-2.7793,-2.8154,-2.8291,-2.8291,0.0,0.0,0.0,0.0,0.0,0.0,0.0,0.0,0.0,0.0,0.0,-0.9905,-0.9905,-0.9905,-0.9905,-0.9905,-0.9905,0.0,0.0,0.0,0.0,-1.2278,-1.2843,-1.3028,-1.2713,-1.273,-1.2885,-1.3198,-1.3198,-1.4525,-1.7011,-1.7313,-1.7953,-1.8807,-1.7877,-1.7053,-1.6237,-1.4165,-1.3038,-1.2579,-1.2034,-1.2332,-1.3014,-1.1888,-1.1998,-1.2619,-1.1214,-1.0687,-1.0679,-1.0607,-1.0713,-1.0869,-1.0625,0.0,0.0,0.0,0.0,0.0,0.0,0.0,0.0,0.0,0.0,0.0,0.0,0.0,0.0,0.0,0.0,0.0,0.0,0.0,0.0,0.0,0.0,0.0,0.0,0.0,0.0,0.0,0.0,0.0,0.0,0.0,0.0,0.0,-2.61,-2.5742,-2.5742,-2.5742,-2.5742,-2.5742,-2.639,-2.6754,-2.6754,-2.6754,-2.6754,-2.6754,-2.7484,-2.8038,-2.8588,-2.8588,-2.8062,-2.7059,-2.7059,-2.6931,-2.666,-2.666,-2.6807,-2.7031,-2.7226,-2.7451,-2.7685,-2.7871,-2.8096,-2.8291,0.0,0.0,0.0,0.0,0.0,0.0,0.0,0.0,0.0,0.0,0.0,-0.9905,-0.9905,0.0,0.0,0.0,-0.9905,0.0,0.0,0.0,0.0,0.0,-1.204,-1.209,-1.1387,-1.1914,-1.2404,-1.2785,-1.2922,-1.4513,-1.74,-1.8091,-1.9371,-2.1016,-1.951,-1.8518,-1.7852,-1.5237,-1.4038,-1.3843,-1.3094,-1.3493,-1.4521,-1.3761,-1.4101,-1.4783,-1.2759,-1.1897,-1.1701,-1.1004,-1.0908,-1.1016,-1.0703,0.0,0.0,0.0,0.0,0.0,0.0,0.0,0.0,0.0,0.0,0.0,0.0,0.0,0.0,0.0,0.0,0.0,0.0,0.0,0.0,0.0,0.0,0.0,0.0,0.0,0.0,0.0,0.0,0.0,0.0,0.0,0.0,0.0,-2.6039,-2.54,-2.54,-2.54,-2.5496,-2.5773,-2.6691,-2.7325,-2.7583,-2.7804,-2.7921,-2.8038,-2.8947,-2.959,-2.9863,-2.9863,-2.9407,-2.8495,-2.8226,-2.7502,-2.6695,-2.6695,-2.6884,-2.7082,-2.6908,-2.706,-2.7373,-2.7588,-2.7861,-2.8144,0.0,0.0,0.0,0.0,0.0,0.0,0.0,0.0,0.0,0.0,0.0,-0.9905,-0.9905,-0.9905,-0.9905,-0.9905,-0.9905,0.0,0.0,0.0,0.0,0.0,0.0,0.0,-1.0769,-1.1337,-1.165,-1.1676,-1.219,-1.4149,-1.74,-1.848,-2.0137,-2.2184,-2.1041,-1.9434,-1.7375,-1.6641,-1.604,-1.5565,-1.5539,-1.5536,-1.5782,-1.7362,-1.7689,-1.7099,-1.5411,-1.4439,-1.3744,-1.2523,-1.1855,-1.1567,-1.1547,-1.1221,-1.083,0.0,0.0,0.0,0.0,0.0,0.0,0.0,0.0,0.0,0.0,0.0,0.0,0.0,0.0,0.0,0.0,0.0,0.0,0.0,0.0,0.0,0.0,0.0,0.0,0.0,0.0,0.0,0.0,0.0,0.0,0.0,-2.5117,-2.4482,-2.4482,-2.4482,-2.4934,-2.6007,-2.6097,-2.6704,-2.7722,-2.8288,-2.8767,-2.9315,-2.9407,-3.0045,-3.1134,-3.1134,-3.1033,-3.0944,-2.9772,-2.8598,-2.7536,-2.7536,-2.7547,-2.7514,-2.6734,-2.6435,-2.6553,-2.7363,-2.7676,-2.7754,0.0,0.0,0.0,0.0,0.0,0.0,0.0,0.0,0.0,0.0,0.0,0.0,0.0,-0.9905,-0.9905,-0.9905,-0.9905,0.0,0.0,0.0,0.0,0.0,0.0,0.0,-1.0219,-1.1111,-1.1412,-1.1035,-1.16,-1.3396,-1.6321,-1.7061,-1.8417,-2.02,-2.0137,-1.9886,-1.9384,-1.6986,-1.6082,-1.622,-1.622,-1.7074,-1.8342,-1.825,-1.9205,-2.0291,-1.7966,-1.6511,0.0,-1.4827,-1.3694,-1.2477,-1.1954,-1.161,-1.1191,-1.0488,-1.0714,0.0,0.0,0.0,0.0,0.0,0.0,0.0,0.0,0.0,0.0,0.0,0.0,0.0,0.0,0.0,0.0,0.0,0.0,0.0,0.0,0.0,0.0,0.0,0.0,0.0,0.0,0.0,0.0,0.0,0.0,-2.5128,-2.4414,-2.5128,-2.5663,-2.6114,-2.759,-2.8534,-2.8963,-2.9928,-3.0298,-3.0008,-3.0811,-3.1624,-3.2426,-3.2426,-3.1965,-3.1223,-3.1601,-3.0598,-2.8773,-2.8773,-2.8773,-2.8691,-2.8408,-2.8009,-2.7554,-2.787,-2.7873,-2.7685,0.0,0.0,0.0,-1.0458,0.0,-0.9905,-0.9905,-0.9905,-0.9968,-1.0157,0.0,0.0,0.0,0.0,-1.0395,-1.0194,-1.0182,-1.0094,-0.9905,-0.9905,0.0,0.0,0.0,0.0,-1.0194,-1.1286,-1.1588,-1.0982,-1.1588,-1.2994,-1.5205,-1.5906,-1.7137,-1.8744,-1.8706,-1.9221,-1.9974,-1.7752,-1.6923,-1.7137,-1.7689,-1.8668,-1.9886,-2.0677,-2.1769,-2.2639,-2.0831,0.0,0.0,0.0,0.0,-1.413,-1.339,-1.251,-1.1538,-1.0754,-1.0944,0.0,-1.2422,0.0,0.0,0.0,0.0,0.0,0.0,0.0,0.0,0.0,0.0,0.0,0.0,0.0,0.0,0.0,0.0,0.0,0.0,0.0,0.0,0.0,0.0,0.0,0.0,0.0,0.0,0.0,0.0,0.0,-2.5112,-2.5809,-2.6422,-2.6758,-2.8642,-2.9745,-2.9927,-3.0704,-3.0964,-3.0713,-3.1767,-3.2416,-3.2792,-3.2993,-3.2612,-3.1865,-3.2698,-3.1877,-3.0033,-3.0033,-3.0033,-2.9943,-2.959,-2.9053,-2.8603,-2.8294,-2.8078,-2.7861,-1.1407,-1.1137,-1.0866,-1.0498,-1.0186,-0.9956,-0.9956,-0.9956,-1.0144,-1.0656,0.0,0.0,0.0,0.0,0.0,-1.0794,-1.0731,-1.0508,-0.9956,-0.9905,0.0,0.0,0.0,0.0,-1.0706,-1.1826,-1.2128,-1.1563,-1.2115,-1.2931,-1.4035,-1.5103,-1.6509,-1.8053,-1.6974,-1.74,-1.8883,-1.892,-1.8643,-1.8392,-1.9962,-2.0338,-2.0426,-2.4745,-2.5448,-2.4117,-2.401,-2.328,0.0,-1.9715,0.0,0.0,-1.5873,-1.395,-1.1818,-1.1225,-1.0994,-1.0947,0.0,0.0,0.0,0.0,0.0,0.0,0.0,0.0,0.0,0.0,0.0,0.0,0.0,0.0,0.0,0.0,0.0,0.0,0.0,0.0,0.0,0.0,0.0,0.0,0.0,0.0,0.0,0.0,-2.7128,-2.6554,-2.6483,-2.6565,-2.7046,-2.8096,-2.9197,-3.0043,-3.0583,-3.0595,-3.0846,-3.1373,-3.1901,-3.2177,-3.2202,-3.278,-3.3056,-3.3056,-3.3068,-3.2426,-3.1223,-3.1223,-3.1223,-3.1134,-2.9954,-2.9498,-2.9371,-2.854,-2.825,-2.8202,-1.2081,-1.2345,-1.243,-1.1817,-1.1637,-1.1469,-1.1168,-1.1123,-1.1173,0.0,0.0,0.0,-1.1613,-1.1939,-1.2115,-1.1952,-1.1575,-1.1111,-1.0506,-1.0119,-0.9905,-0.9905,-1.0985,-1.1324,-1.0706,-1.1826,-1.1927,-1.0931,-1.1538,-1.1977,-1.2323,-1.3396,-1.4588,-1.5834,-1.5881,-1.6183,-1.6584,-1.6195,-1.7313,-1.9334,-1.902,-2.0715,-2.3527,0.0,-2.5636,0.0,0.0,-2.5647,-2.4499,0.0,-2.1486,-1.9029,0.0,-1.445,-1.2884,-1.2263,-1.2299,-1.232,-1.1585,0.0,0.0,0.0,0.0,0.0,0.0,0.0,0.0,0.0,0.0,0.0,0.0,0.0,0.0,0.0,0.0,0.0,0.0,0.0,0.0,0.0,0.0,0.0,0.0,0.0,0.0,0.0,-2.7855,-2.729,-2.6565,-2.7209,-2.8187,-2.9275,-2.9624,-2.9867,-3.0018,-3.0018,-3.0294,-3.0834,-3.0984,-3.1248,-3.1637,-3.2202,-3.2453,-3.2466,-3.2893,-3.2896,-3.2612,-3.2612,-3.2612,-3.2513,-3.2251,-3.15,-3.0687,-3.0466,-3.0007,-2.9507,-1.2962,-1.3129,-1.3184,-1.2794,-1.2644,-1.2485,-1.2291,-1.2278,-1.2354,0.0,0.0,0.0,-1.3002,-1.3458,-1.3509,-1.2785,-1.2467,-1.1826,-1.0769,-1.042,-1.0218,-1.0218,-1.1111,-1.1538,-1.1395,-1.2271,-1.2284,-1.1395,-1.1763,-1.1814,-1.16,-1.2479,-1.3232,-1.3873,-1.4425,-1.4927,-1.5316,-1.4802,-1.6225,-1.8869,-1.9861,0.0,0.0,-2.5561,-2.6766,0.0,0.0,0.0,-2.6565,-2.6025,-2.3952,0.0,0.0,-1.6149,-1.5159,-1.3606,-1.3466,-1.3563,-1.2511,-1.2566,0.0,0.0,0.0,0.0,0.0,-1.9244,0.0,0.0,0.0,0.0,0.0,0.0,0.0,0.0,0.0,0.0,0.0,0.0,0.0,0.0,0.0,0.0,0.0,-2.9792,-2.9534,-2.8858,-2.8767,-2.853,-2.7891,-2.845,-2.9106,-2.9792,-2.9792,-2.9792,-2.9792,-2.9792,-2.9955,-3.0281,-3.0507,-3.0771,-3.1085,-3.1625,-3.2001,-3.2227,-3.2566,-3.2855,-3.3081,-3.3081,-3.3081,-3.3081,-3.3081,-3.2612,-3.1952,-3.1412,-3.0851,-3.0491,0.0,-1.3782,-1.3709,-1.379,-1.3564,-1.3401,-1.3458,-1.3408,-1.3584,0.0,-1.4236,-1.4525,-1.5205,-1.5567,-1.5203,-1.3686,-1.3398,-1.2634,-1.1069,-1.0856,-1.0794,-1.0794,-1.1374,-1.1914,-1.2404,-1.2922,-1.2935,-1.2416,-1.2416,-1.2128,-1.16,-1.2153,-1.2416,-1.2429,-1.2947,-1.381,-1.479,-1.4425,-1.5558,-1.7865,-2.1355,-2.3002,0.0,0.0,-2.826,-2.7695,-2.8674,-2.8712,-2.8197,-2.7582,-2.5611,0.0,-1.9736,-1.8734,-1.8188,-1.5464,-1.4994,0.0,-1.3964,-1.3583,0.0,0.0,-1.4593,0.0,-1.7866,-1.8517,-1.9287,0.0,0.0,0.0,0.0,0.0,0.0,0.0,0.0,0.0,0.0,0.0,0.0,0.0,0.0,0.0,-2.9792,-2.9792,-2.9792,-2.9792,-2.9792,-2.9792,-2.9792,-2.9792,-2.9792,-2.9792,-2.9792,-2.9792,-2.9792,-2.9792,-2.9792,-2.9804,-3.0281,-3.052,-3.0545,-3.1072,-3.1574,-3.2039,-3.2164,-3.2503,-3.298,-3.3056,-3.3081,-3.3081,-3.3081,-3.3081,-3.2982,-3.1865,-3.1412,-3.1294,-1.4588,-1.5384,-1.5949,-1.565,-1.5608,-1.557,-1.5263,-1.4838,-1.4626,-1.4739,-1.513,-1.5932,-1.74,-1.6835,-1.622,-1.5865,-1.4664,-1.3559,-1.276,-1.1914,-1.1412,-1.1412,-1.1952,-1.2303,-1.2416,-1.2922,-1.2935,-1.2416,-1.2416,-1.2128,-1.16,-1.2153,-1.2416,-1.2429,-1.2947,-1.3596,-1.4299,-1.5079,-1.666,-1.8807,-1.9974,-2.2598,-2.595,-2.7143,-2.831,-2.9327,-2.9553,-2.9553,-2.9302,-2.8285,-2.6678,-2.477,0.0,-2.1875,-2.1058,-1.8657,-1.8334,-1.8494,-1.7326,-1.7317,-1.7268,-1.5701,0.0,0.0,-1.522,-1.5624,-1.6732,0.0,0.0,0.0,0.0,0.0,0.0,0.0,0.0,0.0,0.0,0.0,0.0,0.0,0.0,0.0,-2.9792,-2.9792,-2.9792,-2.9792,-2.9792,-2.9792,-2.9792,-2.9792,-2.9792,-2.9792,-2.9792,-2.9792,-2.9792,-2.9792,-2.9792,-2.9792,-2.9905,-2.9955,-2.9967,-3.052,-3.0821,-3.0972,-3.1838,-3.2277,-3.2416,-3.288,-3.3081,-3.3081,-3.3081,-3.3081,-3.3068,-3.2797,-3.2698,-3.2723,-1.5304,-1.6069,-1.6646,-1.6521,-1.66,-1.6664,-1.6518,-1.6031,-1.5894,-1.6459,-1.7237,-1.7865,-1.8179,-1.7702,-1.7137,-1.6572,-1.5505,-1.44,-1.3273,-1.2685,-1.2291,-1.2015,-1.2266,-1.2542,-1.2785,-1.306,-1.3073,-1.2785,-1.2542,-1.2128,-1.16,-1.2153,-1.2596,-1.2925,-1.3429,-1.4317,-1.54,-1.5615,-1.6823,-1.8807,-2.1016,0.0,-2.6684,-2.8009,-2.9063,-2.9792,-2.9792,-2.9792,-2.9578,-2.8172,-2.713,0.0,-2.4167,-2.374,-2.3453,0.0,-2.0536,-2.0625,-1.9183,-1.8732,-1.8397,-1.703,0.0,0.0,0.0,-1.5712,-1.6351,-1.7734,0.0,0.0,0.0,0.0,0.0,0.0,0.0,0.0,0.0,0.0,0.0,0.0,0.0,0.0,-2.934,-2.9365,-2.9478,-2.9767,-2.9792,-2.9792,-2.9792,-2.9792,-2.9792,-2.9792,-2.9792,-2.9792,-2.9792,-2.9792,-2.9792,-2.9792,-2.9792,-2.9792,-2.9804,-3.008,-3.0357,-3.0658,-3.1449,-3.1951,-3.2252,-3.283,-3.3081,-3.3081,-3.3081,-3.3081,-3.3081,-3.3081,-3.3081,-3.3081,-1.5799,-1.6398,-1.6929,-1.7035,-1.7269,-1.7501,-1.7599,-1.7076,-1.7036,-1.8204,-1.9434,-1.9953,-1.9291,-1.9259,-1.9042,-1.8364,-1.7235,-1.598,-1.466,-1.4152,-1.3563,-1.2906,-1.278,-1.2931,-1.3348,-1.3352,-1.3301,-1.3198,-1.2847,-1.2437,-1.1914,-1.2366,-1.2897,-1.357,-1.4158,-1.5323,-1.6824,0.0,0.0,-1.9597,0.0,-2.4669,-2.5937,-2.8373,-2.9315,-2.9352,-2.9679,-2.9792,-2.9566,-2.8097,-2.7607,-2.7231,-2.5134,-2.5209,0.0,0.0,0.0,0.0,0.0,0.0,0.0,0.0,0.0,-1.8564,0.0,0.0,0.0,-1.8157,0.0,0.0,0.0,0.0,0.0,0.0,0.0,0.0,0.0,0.0,0.0,0.0,0.0,0.0,-2.8176,-2.8126,-2.8462,-2.9402,-2.9188,-2.9124,-2.9603,-2.9729,-2.9792,-2.9792,-2.9792,-2.9792,-2.9792,-2.9792,-2.9792,-2.9792,-2.9792,-2.9792,-2.9792,-2.9792,-3.0043,-3.0482,-3.1009,-3.1549,-3.2102,-3.2667,-3.298,-3.3081,-3.3081,-3.3081,-3.3081,-3.3081,-3.3081,-3.3081,-1.5799,-1.6757,-1.7608,-1.7602,-1.8214,-1.8693,-1.8727,-1.7867,-1.7631,-1.8767,-2.0511,-2.1995,-2.2896,-2.3155,-2.3673,-2.4657,-2.1643,-1.9649,-1.958,-1.7517,-1.5787,-1.4651,-1.416,-1.3934,-1.3997,-1.3874,-1.3615,-1.3198,-1.355,-1.3485,-1.301,-1.3073,-1.343,-1.4065,-1.5128,0.0,0.0,0.0,-2.0062,0.0,-2.3816,-2.3514,0.0,-2.6352,-2.757,-2.7758,-2.9264,-2.9792,-2.9679,0.0,-2.8737,-2.8448,0.0,-2.6942,-2.7381,-2.5109,0.0,0.0,0.0,0.0,0.0,0.0,-2.191,0.0,0.0,0.0,-1.7002,-1.6748,0.0,0.0,0.0,0.0,0.0,0.0,0.0,0.0,0.0,0.0,0.0,0.0,0.0,0.0,0.0,-2.5423,-2.6045,-2.8111,-2.6855,-2.6869,-2.8875,-2.9515,-2.9792,-2.9792,-2.9792,-2.9792,-2.9792,-2.9792,-2.9792,-2.9792,-2.9792,-2.9792,-2.9792,-2.9792,-2.9829,-2.9917,-3.047,-3.0997,-3.1524,-3.2089,-3.2616,-3.3081,-3.3081,-3.3081,-3.3081,-3.3081,-3.3081,-3.3081,-1.5799,-1.6832,-1.7697,-1.7697,-1.8358,-1.8893,-1.8893,-2.0117,-2.1091,-2.122,-2.283,-2.4056,-2.4492,-2.3622,-2.3641,-2.5431,-2.347,-2.1964,-2.15,-1.9785,-1.8244,-1.6992,-1.5698,-1.5031,-1.5095,-1.4391,-1.3744,-1.3198,-1.3093,-1.294,-1.2735,-1.3048,-1.3861,-1.5147,-1.6664,0.0,-2.0092,0.0,-2.0469,0.0,0.0,0.0,0.0,-2.7803,-2.9882,-3.0392,-3.0585,-3.062,-3.0416,0.0,-2.8448,0.0,0.0,0.0,0.0,0.0,0.0,0.0,0.0,0.0,0.0,0.0,0.0,0.0,-1.8612,0.0,-1.7213,0.0,0.0,0.0,0.0,0.0,0.0,0.0,0.0,0.0,0.0,0.0,0.0,0.0,0.0,0.0,0.0,0.0,0.0,0.0,-2.6183,-2.6387,-2.836,-2.8988,-2.9453,-2.9779,-2.9792,-2.9792,-2.9792,-2.9792,-2.9792,-2.9792,-2.9792,-2.9792,-2.9792,-2.9792,-2.9792,-2.9829,-3.0382,-3.0733,-3.1009,-3.1863,-3.2353,-3.2604,-3.2943,-3.3081,-3.3081,-3.3081,-3.3081,-3.3081,-1.6308,0.0,-1.7757,-1.7921,-1.8632,-1.9211,-1.9407,-2.1549,-2.3196,-2.337,-2.4901,-2.6157,-2.6603,-2.5544,-2.5675,-2.7681,-2.6452,-2.5157,-2.4348,-2.2546,-2.0955,-1.9712,-1.7567,-1.6464,-1.6541,-1.5335,-1.4372,-1.3684,-1.3221,-1.3065,-1.3094,-1.3333,-1.4277,-1.5862,-1.7781,-2.0039,-2.227,0.0,-2.2322,-2.3852,-2.4449,-2.516,-2.6287,-2.9646,-3.1612,-3.2464,-3.1536,-3.118,-3.0961,-2.9288,-2.8543,0.0,-2.8426,0.0,0.0,0.0,0.0,0.0,-2.5799,0.0,0.0,0.0,0.0,0.0,0.0,0.0,0.0,0.0,0.0,0.0,0.0,0.0,0.0,0.0,0.0,0.0,0.0,0.0,0.0,0.0,0.0,0.0,0.0,0.0,0.0,0.0,0.0,-2.5054,-2.7544,-2.8323,-2.8963,-2.9528,-2.9704,-2.9792,-2.9792,-2.9792,-2.9792,-2.9792,-2.9792,-2.9792,-2.9792,-2.9792,-2.9792,-2.9817,-3.0218,-3.047,-3.067,-3.1461,-3.1938,-3.2252,-3.2679,-3.293,-3.3081,-3.3081,-3.3081,-3.3081,-1.7637,-1.7652,0.0,-1.8553,-1.9241,-1.9923,-2.07,-2.1384,-2.248,-2.4399,-2.6315,-2.8221,-3.004,-3.0822,-3.2035,0.0,0.0,-3.0063,-2.9607,-2.6483,-2.4143,-2.2929,-1.9863,-1.8289,-1.8417,-1.6995,-1.5776,-1.4865,-1.4689,-1.4689,-1.4815,-1.4299,-1.4651,-1.5812,-1.8061,-2.0473,-2.2962,-2.4086,-2.6898,-3.0609,-2.9533,-3.0948,-3.3403,0.0,-3.1142,-3.2464,-3.1536,0.0,0.0,-3.052,-2.9693,0.0,0.0,0.0,0.0,0.0,0.0,0.0,0.0,0.0,0.0,-2.3917,0.0,0.0,0.0,0.0,-2.0959,0.0,0.0,0.0,0.0,0.0,0.0,0.0,0.0,0.0,0.0,0.0,0.0,0.0,0.0,0.0,0.0,0.0,0.0,0.0,-2.0818,0.0,-2.6327,-2.7544,-2.8386,-2.8938,-2.9503,-2.9792,-2.9792,-2.9792,-2.9792,-2.9792,-2.9792,-2.9792,-2.9792,-2.9792,-2.9792,-2.9792,-2.9817,-3.0118,-3.062,-3.0658,-3.1273,-3.2215,-3.2227,-3.2591,-3.3081,-3.3081,-3.3081,-3.3081,0.0,0.0,0.0,0.0,0.0,-2.0385,-2.2384,-2.434,-2.6317,-2.8257,-2.9057,-3.0158,0.0,-3.1575,-3.1969,0.0,0.0,-3.2068,-3.159,-2.9327,-2.7788,-2.7372,-2.434,-2.2504,-2.2152,-2.0438,-1.8591,-1.6634,-1.6578,-1.6153,-1.541,-1.5593,-1.5711,-1.5834,0.0,-2.1808,0.0,0.0,0.0,0.0,0.0,-3.2174,-3.4912,0.0,-3.4054,-3.4409,-3.3394,-3.3031,0.0,-3.2102,-3.1002,-2.9965,-3.0474,-2.9589,-2.8411,-2.8599,-2.8524,0.0,0.0,0.0,-2.8021,-2.541,0.0,0.0,0.0,0.0,0.0,0.0,0.0,0.0,0.0,0.0,0.0,0.0,0.0,0.0,0.0,0.0,0.0,0.0,0.0,0.0,0.0,0.0,0.0,0.0,-2.0986,0.0,0.0,-2.7293,-2.836,-2.8913,-2.949,-2.9792,-2.9792,-2.9792,-2.9792,-2.9792,-2.9792,-2.9792,-2.9792,-2.9792,-2.9792,-2.9792,-2.9792,-2.9892,-3.0093,-3.047,-3.1035,-3.17,-3.2077,-3.2566,-3.3081,-3.3081,-3.3081,-3.3081,-1.9016,0.0,0.0,0.0,0.0,-2.156,-2.3954,-2.6378,-2.8727,0.0,-3.1368,0.0,-3.409,0.0,-3.3249,0.0,-3.4324,-3.3612,-3.2885,-3.1471,0.0,-3.0313,-2.7694,-2.5959,-2.5389,-2.3492,-2.1299,-1.8775,-1.8341,-1.7605,-1.6572,0.0,0.0,0.0,0.0,-2.241,-2.5099,0.0,-2.9026,0.0,0.0,-3.3684,0.0,0.0,-3.5504,-3.5359,0.0,-3.4027,-3.3876,-3.331,-3.2217,-3.1272,-3.1983,-3.1015,-2.9731,-2.9751,-2.9448,-2.9055,-2.851,-2.8662,0.0,-2.6414,-2.5649,0.0,-2.2585,0.0,-2.3163,0.0,0.0,0.0,0.0,0.0,0.0,0.0,0.0,0.0,0.0,-1.4784,0.0,0.0,0.0,0.0,0.0,0.0,-1.6942,-1.9761,-2.0159,0.0,0.0,0.0,-2.7858,-2.8612,-2.939,-2.9792,-2.9792,-2.9792,-2.9792,-2.9792,-2.9792,-2.9792,-2.9792,-2.9792,-2.9792,-2.9792,-2.9792,-2.9792,-2.9817,-3.0181,-3.0746,-3.1424,-3.1788,-3.239,-3.3081,-3.3081,-3.3081,-3.3081,-1.9869,0.0,0.0,0.0,-2.15,0.0,0.0,0.0,-2.9594,0.0,-3.3185,-3.4337,-3.6312,-3.5968,-3.5848,-3.6477,-3.5953,-3.504,-3.3724,-3.3021,0.0,0.0,-2.9853,-2.8577,-2.8046,-2.6112,-2.3864,-2.1296,0.0,0.0,0.0,0.0,0.0,0.0,-1.9633,0.0,-2.5236,-2.8096,-3.1334,-3.4592,-3.5235,-3.5504,-3.5504,-3.5504,-3.5504,-3.5359,-3.4394,-3.4095,-3.4095,-3.4095,-3.3449,-3.282,-3.3739,-3.338,-3.2393,-3.1536,-3.1241,-3.0913,-2.9452,-2.9113,-2.8722,-2.7119,-2.6678,0.0,0.0,0.0,-2.5372,0.0,0.0,0.0,0.0,0.0,0.0,0.0,0.0,0.0,0.0,0.0,0.0,0.0,0.0,0.0,0.0,0.0,-1.4741,-1.8501,-1.8418,0.0,0.0,0.0,-2.6892,-2.8034,-2.9164,-2.9767,-2.9792,-2.9792,-2.9792,-2.9792,-2.9792,-2.9792,-2.9792,-2.9792,-2.9792,-2.9792,-2.9792,-2.9792,-2.9792,-2.9792,-3.0419,-3.1386,-3.1386,-3.2077,-3.3081,-3.3081,-3.3081,-3.3081,-2.0483,-2.1605,-2.2906,0.0,-2.3684,-2.4373,0.0,0.0,0.0,0.0,-3.4562,-3.5549,-3.7015,-3.703,-3.6985,-3.715,-3.7015,0.0,0.0,0.0,0.0,-3.4487,-3.3063,-3.1916,-3.1336,-2.8912,-2.6592,-2.4454,0.0,0.0,-1.9401,0.0,0.0,0.0,0.0,0.0,-2.5755,-2.8325,-3.1652,-3.525,-3.5429,-3.5504,-3.5504,0.0,-3.5504,-3.5439,-3.5213,-3.5133,-3.5133,-3.5133,-3.4476,-3.3671,-3.3945,-3.338,-3.2522,-3.2321,-3.2249,-3.2136,-3.1771,-3.1658,-3.1312,-2.9771,-2.8765,-2.7715,0.0,0.0,0.0,0.0,0.0,0.0,0.0,0.0,0.0,0.0,0.0,0.0,0.0,0.0,0.0,0.0,0.0,0.0,0.0,-1.492,-1.6136,-1.7508,-1.8694,0.0,0.0,0.0,0.0,-2.7444,-2.8574,-2.9365,-2.9792,-2.9792,-2.9792,-2.9792,-2.9792,-2.9792,-2.9792,-2.9792,-2.9792,-2.9792,-2.9792,-2.9792,-2.9792,-2.9792,-3.0419,-3.1386,-3.1386,-3.2077,-3.3081,-3.3081,-3.3081,-3.3081,-2.1979,0.0,0.0,-2.7111,0.0,0.0,-2.9549,-3.0447,0.0,-3.4562,-3.5519,0.0,-3.73,-3.7659,-3.7838,-3.7838,-3.7584,0.0,-3.6537,0.0,0.0,-3.5534,-3.5055,-3.4352,-3.3395,-3.136,0.0,-2.6467,0.0,0.0,-2.024,0.0,0.0,0.0,0.0,-2.2562,0.0,-2.9107,-3.2404,-3.5085,-3.5385,-3.5504,0.0,-3.5504,-3.5504,-3.5504,-3.5504,-3.5504,-3.5504,-3.5504,-3.5133,-3.4691,-3.4691,-3.4259,-3.3754,-3.331,-3.3241,-3.3101,-3.2749,-3.2593,-3.2382,-3.1568,-3.0902,-3.0048,-2.8741,-2.867,-2.8585,0.0,-2.7713,-2.7831,0.0,0.0,0.0,0.0,0.0,0.0,0.0,0.0,0.0,0.0,0.0,0.0,-1.473,-1.5486,-1.6514,-1.7587,-1.8561,0.0,0.0,0.0,0.0,-2.6879,-2.8235,-2.9202,-2.9779,-2.9792,-2.9792,-2.9792,-2.9792,-2.9792,-2.9792,-2.9792,-2.9792,-2.9792,-2.9792,-2.9792,-2.9792,-2.9792,-3.0294,-3.1097,-3.1574,-3.229,-3.3081,-3.3081,-3.3081,-3.3081,-2.4238,0.0,0.0,0.0,0.0,0.0,0.0,-3.2602,0.0,-3.5504,0.0,-3.7075,-3.7614,-3.8182,-3.8527,-3.8527,0.0,-3.7404,-3.6776,-3.724,-3.7,-3.5804,-3.6222,-3.5938,-3.4771,-3.3275,-3.0926,0.0,-2.5644,-2.3238,-2.0707,0.0,0.0,0.0,0.0,0.0,0.0,-3.0264,-3.332,-3.4666,-3.5265,-3.5504,-3.5504,-3.5504,-3.5504,-3.5504,-3.5504,-3.5504,-3.5504,-3.5504,-3.5504,-3.5504,-3.5504,-3.5504,-3.5359,-3.4461,-3.4177,-3.4027,-3.3171,-3.2961,-3.2961,-3.282,-3.282,-3.2542,-3.1485,-3.1235,-3.0965,-3.0097,-2.9145,-2.8834,0.0,0.0,0.0,0.0,0.0,0.0,0.0,0.0,0.0,0.0,0.0,0.0,0.0,-1.5936,-1.649,-1.7875,-1.8044,0.0,0.0,0.0,0.0,-2.637,-2.7883,-2.9026,-2.9679,-2.9754,-2.9792,-2.9792,-2.9792,-2.9792,-2.9792,-2.9792,-2.9792,-2.9792,-2.9792,-2.9792,-2.9792,-2.9792,-3.0156,-3.0821,-3.1825,-3.2566,-3.3081,-3.3081,-3.3081,-3.3081,-2.7619,0.0,0.0,0.0,0.0,-3.4188,-3.5429,-3.525,-3.5489,-3.6896,-3.8138,-3.8945,-3.905,-3.917,-3.923,-3.923,-3.914,0.0,0.0,0.0,0.0,-3.7105,-3.6701,-3.6372,-3.6133,-3.3754,-3.1165,-2.8412,-2.5869,-2.3238,-2.0707,0.0,0.0,0.0,0.0,0.0,-2.877,-3.1377,0.0,-3.534,-3.5459,-3.5504,-3.5504,-3.5504,-3.5504,-3.5504,-3.5504,-3.5504,-3.5504,-3.5504,-3.5504,-3.5504,-3.5504,-3.5504,-3.5439,-3.5279,-3.5213,-3.5213,-3.5067,-3.5001,-3.4773,-3.3959,-3.3739,-3.3476,-3.2542,-3.2289,-3.2289,-3.2077,-3.1913,-3.1583,-3.0883,0.0,0.0,0.0,0.0,0.0,0.0,0.0,0.0,0.0,0.0,0.0,0.0,-1.775,-1.7439,-1.6773,0.0,0.0,0.0,0.0,0.0,0.0,-2.6929,0.0,0.0,0.0,-2.9792,-2.9792,-2.9792,-2.9792,-2.9792,-2.9792,-2.9792,-2.9792,-2.9792,-2.9792,-2.9792,-2.9792,-3.0369,-3.1323,-3.1964,-3.2566,-3.3081,-3.3081,-3.3081,-3.3081,0.0,0.0,0.0,0.0,0.0,0.0,0.0,-3.8317,-3.8272,-3.7509,-3.7973,-3.8377,-3.8377,-3.9005,-3.9424,-3.9424,-3.9424,-3.9275,-3.8945,-3.8931,-3.8616,-3.7943,-3.7629,-3.7165,-3.6492,-3.4891,-3.2602,-2.9594,-2.6931,-2.4298,-2.1695,-2.0333,-1.9884,-2.0348,0.0,-2.6228,0.0,0.0,0.0,-3.4996,-3.5355,-3.5504,-3.5504,-3.5504,-3.5504,-3.5504,-3.5504,-3.5504,-3.5504,-3.5504,-3.5504,-3.5504,-3.5504,-3.5504,-3.5504,-3.5504,-3.5504,-3.5504,-3.5504,-3.5504,-3.5359,-3.4905,-3.4758,-3.4691,-3.4192,-3.4124,-3.3973,-3.3449,-3.331,-3.2861,-3.1302,-2.8882,0.0,0.0,0.0,0.0,0.0,0.0,0.0,0.0,0.0,0.0,0.0,0.0,0.0,0.0,0.0,0.0,0.0,0.0,0.0,0.0,0.0,0.0,0.0,0.0,-2.9792,-2.9792,-3.0279,-3.0279,-2.9792,-3.0279,-3.0279,-2.9792,-2.9792,-2.9792,-2.9792,-2.9792,-3.0419,-3.1411,-3.1687,-3.2315,-3.3081,-3.3081,-3.3081,-3.3081,0.0,-3.479,0.0,0.0,-3.8156,-3.8971,-4.0051,-4.1222,-4.1092,-3.8597,-3.8257,-3.8257,-3.8257,-3.908,-3.9634,-3.9634,-3.9499,-3.9424,-3.9424,-3.9424,-3.917,-3.8631,-3.8467,-3.7913,-3.6911,-3.6118,-3.4143,0.0,-2.8442,-2.5809,-2.3056,-2.1321,-2.1036,-2.2113,0.0,0.0,0.0,0.0,-3.3963,-3.4741,-3.5295,-3.5504,-3.5504,-3.5504,-3.5504,-3.5504,-3.5504,-3.5504,-3.5504,-3.5504,-3.5504,-3.5504,-3.5504,-3.5504,-3.5504,-3.5504,-3.5504,-3.5504,-3.5504,-3.5504,-3.5504,-3.5504,-3.5504,-3.5504,-3.5504,-3.5504,-3.5279,-3.4461,-3.4312,-3.372,-3.1702,-3.0055,0.0,0.0,0.0,0.0,0.0,0.0,0.0,0.0,0.0,0.0,0.0,0.0,0.0,0.0,0.0,0.0,-1.912,0.0,0.0,0.0,0.0,-2.7406,-2.8398,0.0,-2.9792,-2.9792,-3.0758,-3.0696,-2.9869,-3.0758,-3.0696,-2.9792,-2.9792,-2.9792,-2.9792,-2.9792,-3.0419,-3.1386,-3.1386,-3.2077,-3.3081,-3.3081,-3.3081,-3.3081,0.0,0.0,0.0,0.0,0.0,-4.2716,-4.286,-4.3464,-4.3245,-4.1309,-4.101,-4.101,-4.101,-4.0591,-4.0307,-4.0307,-3.9768,-3.9424,-3.9424,-3.9424,-3.9394,-3.9334,-3.8721,-3.8332,-3.8212,-3.7015,-3.5055,0.0,0.0,-2.7634,0.0,-2.361,-2.4238,-2.6108,0.0,0.0,0.0,-3.314,-3.4233,-3.5415,-3.5474,-3.5504,-3.5504,-3.5504,-3.5504,-3.5504,-3.5504,-3.5504,-3.5504,-3.5504,-3.5504,-3.5504,-3.5504,-3.5504,-3.5504,-3.5504,-3.5504,-3.5504,-3.5504,-3.5504,-3.5504,-3.5504,-3.5504,-3.5504,-3.5504,-3.5504,-3.5504,-3.5359,-3.5359,-3.4732,-3.2658,-3.2515,-3.131,0.0,0.0,0.0,0.0,0.0,0.0,0.0,0.0,0.0,0.0,0.0,0.0,0.0,0.0,0.0,0.0,0.0,0.0,-2.3153,0.0,-2.605,-2.6747,-2.875,-2.9792,-2.9792,-3.0758,-3.0696,-2.9869,-3.0758,-3.0696,-2.9792,-2.9792,-2.9792,-2.9792,-2.9792,-3.0419,-3.1386,-3.1386,-3.2077,-3.3081,-3.3081,-3.3081,-3.3081,0.0,0.0,0.0,0.0,0.0,0.0,0.0,-4.5234,-4.5132,-4.4366,-4.3102,-4.226,-4.226,-4.1489,-4.0995,-4.0995,-4.0756,-4.0427,-4.0038,-4.0008,-4.0016,-4.02,-3.941,-3.9078,-3.9161,-3.8144,-3.6342,0.0,0.0,0.0,-2.7006,-2.6303,-2.6841,-2.8457,0.0,-3.1749,-3.317,-3.4247,-3.5011,-3.5504,-3.5504,-3.5504,-3.5504,-3.5504,-3.5504,-3.5504,-3.5504,-3.5504,-3.5504,-3.5504,-3.5504,-3.5504,-3.5504,-3.5504,-3.5504,-3.5504,-3.5504,-3.5504,-3.5504,-3.5504,-3.5504,-3.5504,-3.5504,-3.5504,-3.5504,-3.5504,-3.5504,-3.5504,-3.5504,-3.5275,-3.4386,-3.3118,-3.1602,-3.0059,0.0,0.0,0.0,0.0,0.0,0.0,0.0,0.0,0.0,0.0,0.0,0.0,0.0,-1.72,-1.8756,-1.9258,0.0,-2.2083,0.0,-2.6226,-2.6533,-2.8674,-3.0075,-3.062,-3.1609,-3.1536,-3.0696,-3.1609,-3.1193,-2.9792,-2.9792,-2.9792,-2.9792,-2.9792,-3.0419,-3.1386,-3.1386,-3.2077,-3.3081,-3.3081,-3.3081,-3.3081,-4.36,0.0,-4.3522,0.0,-4.5228,-4.5408,-4.6792,-4.702,-4.702,-4.702,-4.5378,-4.4078,-4.3811,-4.3009,-4.2493,-4.2493,-4.231,-4.1989,-4.1515,-4.1484,-4.1518,-4.1408,-4.0793,0.0,-4.0376,-3.9575,-3.8111,-3.6046,-3.4516,0.0,-3.0028,-2.934,-2.9849,0.0,-3.2976,-3.4038,-3.4711,-3.5669,-3.6073,-3.6073,-3.6073,-3.6073,-3.6073,-3.6073,-3.6073,-3.6073,-3.6073,-3.6073,-3.6043,-3.5848,-3.5789,-3.5759,-3.5564,-3.5504,-3.5504,-3.5504,-3.5504,-3.5504,-3.5504,-3.5504,-3.5504,-3.5504,-3.5504,-3.5504,-3.5504,-3.5504,-3.5504,-3.5504,-3.5504,-3.5504,-3.5504,-3.3765,-3.2192,-3.1811,0.0,0.0,0.0,0.0,0.0,0.0,-2.1497,-2.0347,-1.9321,0.0,0.0,0.0,0.0,-1.8423,-1.912,-1.9572,0.0,0.0,0.0,0.0,-2.7148,-2.9157,-3.0696,-3.1609,-3.2522,-3.2522,-3.1609,-3.2033,-3.1328,-2.9792,-2.9792,-2.9792,-2.9792,-2.9792,-3.0419,-3.1386,-3.1386,-3.2077,-3.3081,-3.3081,-3.3081,-3.3081,-4.6464,-4.6752,-4.7208,-4.8652,-4.8968,-4.8906,-4.894,-4.894,-4.894,-4.894,-4.8127,-4.7206,-4.6298,-4.5533,-4.5186,-4.5186,-4.4545,-4.4145,-4.4129,-4.4129,-4.3824,0.0,0.0,-4.2751,-4.1997,-4.1309,-4.0547,-3.9621,0.0,0.0,-3.3425,-3.2766,-3.3514,-3.5459,-3.6133,-3.6791,-3.736,-3.7375,-3.7389,-3.7389,-3.7389,-3.7389,-3.7389,-3.7389,-3.7389,-3.7389,-3.7389,-3.7389,-3.73,-3.6686,-3.6477,-3.6357,-3.5714,-3.5504,-3.5504,-3.5504,-3.5504,-3.5504,-3.5504,-3.5504,-3.5504,-3.5504,-3.5504,-3.5504,-3.5504,-3.5504,-3.5504,-3.5504,-3.5504,-3.5504,-3.5504,-3.4921,-3.3612,-3.1039,0.0,0.0,0.0,0.0,0.0,0.0,-2.157,-2.062,-1.9837,0.0,0.0,0.0,0.0,-2.1708,-2.1473,0.0,0.0,-2.3879,-2.5586,0.0,-2.8649,-3.0309,-3.1669,-3.2593,-3.3518,-3.3518,-3.2522,-3.1609,-3.0696,-2.9792,-2.9792,-2.9792,-2.9792,-2.9792,-3.0419,-3.1386,-3.1386,-3.2077,-3.3081,-3.3081,-3.3081,-3.3081,-4.8206,-4.8308,-4.8443,-4.8917,-4.9001,-4.9001,-4.9001,-4.9001,-4.9001,-4.9001,-4.8719,-4.8433,-4.8161,-4.6757,-4.5907,0.0,-4.5715,-4.5378,0.0,-4.4866,-4.4814,-4.4769,-4.4138,-4.375,-4.3644,-4.2298,-4.0935,-3.9668,0.0,0.0,0.0,-3.5519,-3.5789,-3.6806,-3.703,-3.7225,-3.7404,-3.7404,-3.7404,-3.7404,-3.7404,-3.7404,-3.7404,-3.7404,-3.7404,-3.7404,-3.7404,-3.7404,-3.7375,-3.718,-3.712,-3.709,-3.6866,-3.6207,-3.5504,-3.5504,-3.5504,-3.5504,-3.5504,-3.5504,-3.5504,-3.5504,-3.5504,-3.5504,-3.5504,-3.5504,-3.5504,-3.5504,-3.5504,-3.5504,-3.5504,-3.4577,-3.3543,-3.2703,-3.1901,0.0,0.0,0.0,0.0,0.0,-2.3553,-2.2715,0.0,-2.24,0.0,0.0,0.0,0.0,0.0,0.0,0.0,0.0,-2.6181,0.0,-2.873,-3.101,-3.2593,-3.3533,-3.3876,-3.3808,-3.3518,-3.1888,-3.1044,-3.0696,-3.0075,-2.9792,-2.9792,-2.9792,-3.0419,-3.1386,-3.1386,-3.2077,-3.3081,-3.3081,-3.3081,-3.3081,-4.9001,-4.9001,-4.9001,-4.9001,-4.9001,-4.9001,-4.9001,-4.9001,-4.9001,-4.9001,-4.9001,-4.9001,-4.9001,-4.7933,0.0,-4.7239,-4.7239,-4.7043,-4.6667,-4.6635,-4.6584,-4.6412,-4.5906,-4.5513,-4.5313,-4.4235,0.0,-4.1469,-4.0049,-3.9137,-3.8645,-3.8007,-3.7865,-3.8167,-3.8167,-3.8167,-3.8167,-3.8167,-3.8167,-3.8167,-3.8167,-3.8167,-3.8167,-3.8167,-3.8167,-3.8167,-3.8167,-3.8167,-3.8123,-3.7868,-3.7778,-3.7734,-3.7479,-3.6866,-3.6178,-3.5938,-3.5878,-3.5818,-3.5564,-3.5504,-3.5504,-3.5504,-3.5504,-3.5504,-3.5504,-3.5504,-3.5504,-3.5504,-3.5504,-3.5504,-3.5504,-3.4397,-3.3499,-3.3499,-3.2168,-3.0776,-2.9729,0.0,0.0,0.0,0.0,0.0,0.0,-2.4696,-2.4713,0.0,0.0,0.0,0.0,0.0,0.0,-2.5201,-2.8264,-3.0147,-3.0719,-3.2319,-3.3602,-3.4543,-3.4543,-3.4394,-3.3959,-3.2393,-3.1536,-3.118,-3.0216,-2.9792,-2.9792,-2.9792,-3.0419,-3.1386,-3.1386,-3.2077,-3.3081,-3.3081,-3.3081,-3.3081,-4.9001,-4.9001,-4.9001,0.0,-4.9001,-4.9001,-4.9001,-4.9001,-4.9001,-4.9001,-4.9001,-4.9001,-4.9001,-4.9001,-4.9001,-4.9001,0.0,0.0,-4.9001,-4.9001,-4.8697,-4.802,-4.8003,-4.7631,-4.6887,-4.6811,-4.6032,-4.4364,-4.2199,-4.1038,-4.0873,-4.0189,-3.9779,-3.9553,-3.9553,-3.9481,-3.9481,-3.9424,-3.9424,-3.9424,-3.9424,-3.9424,-3.9424,-3.9424,-3.9424,-3.9424,-3.9424,-3.9424,-3.932,-3.8676,-3.8467,-3.8362,-3.7749,-3.7554,-3.7419,-3.6746,-3.6552,-3.6417,-3.5744,-3.5579,-3.5564,-3.5519,-3.5504,-3.5504,-3.5504,-3.5504,-3.5504,-3.5504,-3.5504,-3.5504,-3.5504,-3.4397,-3.3499,-3.3499,-3.1809,-3.0283,-2.9669,0.0,0.0,0.0,0.0,0.0,-2.6045,-2.6512,-2.7329,0.0,0.0,0.0,0.0,0.0,-2.6584,-2.9882,-3.1209,-3.2553,-3.4013,-3.4095,-3.4543,-3.5504,-3.5504,-3.4986,-3.4095,-3.3031,-3.2105,-3.1254,-3.0216,-2.9792,-2.9792,-2.9792,-3.0419,-3.1386,-3.1386,-3.2077,-3.3081,-3.3081,-3.3081,-3.3081,0.0,0.0,-4.9001,-4.9001,-4.9001,-4.9001,-4.9001,-4.9001,-4.9001,-4.9001,-4.9001,-4.9001,-4.9001,-4.9001,-4.9001,-4.9001,-4.9001,-4.9001,-4.9001,-4.9001,-4.8934,-4.8748,-4.8748,-4.8392,-4.7665,-4.7015,-4.5828,-4.4235,-4.3153,-4.2605,-4.2487,-4.1803,-4.145,-4.1362,-4.0706,-4.0363,-4.0378,-3.9666,-3.9424,-3.9424,-3.9424,-3.9424,-3.9424,-3.9424,-3.9424,-3.9424,-3.9424,-3.9424,-3.9394,-3.923,-3.917,-3.9155,-3.899,-3.8945,-3.8706,-3.7539,-3.7195,-3.7045,-3.6432,-3.6252,-3.6133,-3.5624,-3.5504,-3.5504,-3.5504,-3.5504,-3.5504,-3.5504,-3.5504,-3.5504,-3.5504,-3.4397,-3.3499,-3.3499,-3.1809,-3.0283,-2.9669,-2.9445,0.0,0.0,-2.8976,-2.9322,-2.8739,-2.9658,-2.9662,0.0,0.0,0.0,-2.9653,-2.9853,-2.9984,-3.0016,-3.1891,-3.3245,-3.4013,-3.4758,-3.5279,-3.5504,-3.5504,-3.5359,-3.5067,-3.3394,-3.2464,-3.2177,-3.0495,-2.9792,-2.9792,-2.9792,-3.0419,-3.1386,-3.1386,-3.2077,-3.3081,-3.3081,-3.3081,-3.3081,-4.9001,-4.9001,-4.9001,-4.9001,-4.9001,-4.9001,-4.9001,-4.9001,-4.9001,-4.9001,-4.9001,-4.9001,-4.9001,-4.9001,-4.9001,-4.9001,-4.9001,-4.9001,-4.9001,-4.9001,-4.9001,-4.9001,-4.9001,-4.8815,-4.8426,-4.7927,-4.7068,-4.5861,-4.5137,-4.4571,-4.422,-4.3782,-4.3234,-4.2461,-4.2002,-4.1362,-4.069,-4.0638,-4.0393,-3.999,-3.999,-3.999,-3.992,-3.9538,-3.9424,-3.9424,-3.9424,-3.9424,-3.9424,-3.9424,-3.9424,-3.9424,-3.9424,-3.9424,-3.9275,-3.8542,-3.8108,-3.7719,-3.7075,-3.6701,-3.6327,-3.5669,-3.5504,-3.5504,-3.5504,-3.5504,-3.5504,-3.5504,-3.5504,-3.5504,-3.5504,-3.4397,-3.3395,-3.3095,-3.1614,-3.0283,-2.9669,-2.9579,0.0,-2.9909,-3.0552,-3.1076,-3.1345,-3.2018,-3.1856,-3.0482,-3.1324,0.0,-3.1442,-3.2682,-3.2991,-3.2083,-3.3506,-3.4405,-3.4691,-3.5213,-3.5504,-3.5504,-3.5504,-3.5504,-3.5439,-3.3891,-3.3031,-3.2522,-3.1057,-3.0216,-2.9792,-2.9792,-3.0419,-3.1386,-3.1386,-3.2077,-3.3081,-3.3081,-3.3081,-3.3081,-4.9001,-4.9001,-4.9001,-4.9001,-4.9086,-4.9171,-4.9171,-4.9171,-4.9171,-4.9171,-4.9069,-4.9001,-4.9001,-4.9001,-4.9001,-4.9001,-4.9001,-4.9001,-4.9001,-4.9001,-4.9001,-4.9001,-4.9001,-4.9001,-4.9001,-4.9001,-4.8697,-4.8088,-4.7327,-4.6606,-4.5847,-4.5732,-4.4959,-4.3638,-4.3509,-4.2714,-4.1444,-4.2041,-4.1781,-4.0913,-4.1034,-4.0851,-4.0432,-3.9864,-3.9538,-3.9424,-3.9424,-3.9424,-3.9424,-3.9424,-3.9424,-3.9424,-3.9424,-3.9424,-3.9424,-3.9424,-3.9005,-3.8392,-3.7734,-3.703,-3.6357,-3.5789,-3.5579,-3.5504,-3.5504,-3.5504,-3.5504,-3.5504,-3.5504,-3.5504,-3.5504,-3.4397,-3.3275,-3.2617,-3.1375,-3.0283,-2.9669,0.0,-3.0298,-3.1405,-3.1794,-3.2377,-3.3395,-3.3589,-3.3649,-3.3649,-3.4158,-3.4277,-3.3829,-3.4876,-3.5235,-3.4651,-3.519,-3.5504,-3.5504,-3.5504,-3.5504,-3.5504,-3.5504,-3.5504,-3.5439,-3.4461,-3.3518,-3.2522,-3.1609,-3.0696,-2.9792,-2.9792,-3.0382,-3.1286,-3.1361,-3.2026,-3.2955,-3.3043,-3.3081,-3.3081,-4.9001,-4.9001,-4.9001,-4.9001,-4.9509,-4.9915,-4.9915,-4.9915,-4.9915,-4.9915,-4.939,-4.9001,-4.9001,-4.9001,-4.9001,-4.9001,-4.9001,-4.9001,-4.9001,-4.9001,-4.9001,-4.9001,-4.9001,-4.9001,-4.9001,-4.9001,-4.8951,-4.8832,-4.8105,-4.7673,-4.7518,-4.6877,-4.6447,-4.621,-4.5454,-4.4978,-4.4736,-4.4089,-4.302,-4.1697,-4.2398,-4.146,-3.9681,-4.0239,-4.0045,-3.9424,-3.9424,-3.9424,-3.9424,-3.9424,-3.9424,-3.9424,-3.9424,-3.9424,-3.9424,-3.9424,-3.9349,-3.911,-3.8422,-3.7375,-3.6462,-3.6357,-3.5923,-3.5504,-3.5504,-3.5504,-3.5504,-3.5504,-3.5504,-3.5504,-3.5504,-3.4397,-3.3275,-3.2617,-3.1375,-3.0283,-2.9669,0.0,-3.13,-3.1452,-3.3006,-3.3873,-3.3529,-3.3993,-3.4322,-3.4322,-3.4412,-3.4681,-3.516,-3.5385,-3.5459,-3.5355,-3.5444,-3.5504,-3.5504,-3.5504,-3.5504,-3.5504,-3.5504,-3.5504,-3.5439,-3.4461,-3.3518,-3.2522,-3.1609,-3.0696,-2.9792,-2.9792,-3.0168,-3.0783,-3.1223,-3.1775,-3.2403,-3.2893,-3.3081,-3.3081,-4.9001,-4.9001,-4.9001,-4.9001,-4.9729,-5.0135,-4.9593,-4.983,-4.9949,-4.956,-4.9221,-4.9001,-4.9001,-4.9001,-4.9001,-4.9001,-4.9001,-4.9001,-4.9001,-4.9001,-4.9001,-4.9001,-4.9001,-4.9001,-4.9001,-4.9001,-4.9001,-4.9001,-4.8663,-4.8494,-4.8494,-4.8139,-4.7767,-4.7394,-4.6982,-4.6329,-4.5478,-4.5557,-4.49,-4.3862,-4.4253,-4.3718,-4.2635,-4.2053,-4.1364,-4.0593,-4.0151,-3.9723,-3.9424,-3.9424,-3.9424,-3.9424,-3.9424,-3.9424,-3.9424,-3.9424,-3.9424,-3.9275,-3.8571,-3.7704,-3.6911,-3.6567,-3.5998,-3.5504,-3.5504,-3.5504,-3.5504,-3.5504,-3.5504,-3.5504,-3.5504,-3.4696,-3.3814,-3.3155,-3.2228,0.0,-3.1195,-3.1689,-3.2332,-3.3036,-3.3918,-3.4502,-3.4577,-3.4861,-3.5026,-3.5026,-3.5026,-3.5175,-3.5489,-3.5504,-3.5504,-3.5504,-3.5504,-3.5504,-3.5504,-3.5504,-3.5504,-3.5504,-3.5504,-3.5504,-3.5504,-3.4986,-3.4259,-3.331,-3.2393,-3.1402,-3.0482,-2.9998,-3.0118,-3.0633,-3.0884,-3.1474,-3.224,-3.2516,-3.2805,-3.3081,-4.9492,-4.9509,-4.9458,-4.9289,-5.005,-5.0355,-4.9407,-4.9729,-4.9898,-4.9323,-4.912,-4.9001,-4.9001,-4.9001,-4.9001,-4.9001,-4.9001,-4.9001,-4.9001,-4.9001,-4.9001,-4.9001,-4.9001,-4.9001,-4.9001,-4.9001,-4.9001,-4.9001,-4.9001,-4.9001,-4.9001,-4.9001,-4.8714,-4.8173,-4.8173,-4.7497,-4.6337,-4.7036,-4.672,-4.5805,-4.6009,-4.5706,-4.5016,-4.3617,-4.2817,-4.2225,-4.1294,-4.0538,-3.9979,-3.9979,-3.9745,-3.9424,-3.9424,-3.9424,-3.9424,-3.9424,-3.9424,-3.9305,-3.8781,-3.8138,-3.7479,-3.6851,-3.6207,-3.5684,-3.5549,-3.5504,-3.5504,-3.5504,-3.5504,-3.5504,-3.5504,-3.4936,-3.4262,-3.3604,0.0,-3.2691,-3.2542,-3.2781,-3.335,-3.4352,-3.4622,-3.4921,-3.5459,-3.5504,-3.5504,-3.5504,-3.5504,-3.5504,-3.5504,-3.5504,-3.5504,-3.5504,-3.5504,-3.5504,-3.5504,-3.5504,-3.5504,-3.5504,-3.5504,-3.5504,-3.5504,-3.5504,-3.4986,-3.3959,-3.3031,-3.2105,-3.1106,-3.0216,-3.0043,-3.0432,-3.057,-3.1122,-3.1876,-3.2127,-3.2491,-3.2893,-5.0913,-5.1048,-5.0828,-5.0135,-5.0659,-5.0896,-5.0118,-5.005,-5.0067,-5.0016,-4.9424,-4.9001,-4.9001,-4.9001,-4.9001,-4.9001,-4.9001,-4.9001,-4.9001,-4.9001,-4.9001,-4.9001,-4.9001,-4.9001,-4.9001,-4.9001,-4.9001,-4.9001,-4.9001,-4.9001,-4.9001,-4.9001,-4.8968,-4.8934,-4.8934,-4.8821,-4.8771,-4.8832,-4.7943,-4.6564,-4.7418,-4.6328,-4.4278,-4.4093,-4.3994,-4.3862,-4.2927,-4.2224,-4.1651,-4.1651,-4.0634,-3.9424,-3.9424,-3.9424,-3.9424,-3.9424,-3.9424,-3.9409,-3.9364,-3.8841,-3.8167,-3.7509,-3.6881,-3.6252,-3.5639,-3.5504,-3.5504,-3.5504,-3.5504,-3.5504,-3.5504,-3.4936,-3.4262,-3.3604,0.0,0.0,-3.2602,-3.3559,-3.4367,-3.4472,-3.504,-3.5444,-3.5504,-3.5504,-3.5504,-3.5504,-3.5504,-3.5504,-3.5504,-3.5504,-3.5504,-3.5504,-3.5504,-3.5504,-3.5504,-3.5504,-3.5504,-3.5504,-3.5504,-3.5504,-3.5504,-3.5504,-3.4986,-3.3959,-3.3031,-3.2105,-3.1106,-3.0216,-2.9817,-2.9905,-3.0419,-3.067,-3.0859,-3.1838,-3.224,-3.2353,-5.0371,-5.115,-5.1505,-5.0896,-5.1809,-5.2063,-5.0355,-5.049,-5.0456,-4.9543,-4.9171,-4.9001,-4.9001,-4.9001,-4.9001,-4.9001,-4.9001,-4.9001,-4.9001,-4.9001,-4.9001,-4.9001,-4.9001,-4.9001,-4.9001,-4.9001,-4.9001,-4.9001,-4.9001,-4.9001,-4.9001,-4.9001,-4.9001,-4.9001,-4.9001,-4.9001,-4.9001,-4.9001,-4.863,-4.8094,-4.8456,-4.8006,-4.7121,-4.6504,-4.6011,-4.5554,-4.4596,-4.3876,-4.3221,-4.2615,-4.1774,-4.0812,-4.0227,-3.9753,-3.9424,-3.9424,-3.9424,-3.9424,-3.9424,-3.8916,-3.8332,-3.8078,-3.724,-3.6417,-3.6178,-3.5804,-3.5504,-3.5504,-3.5504,-3.5504,-3.5504,-3.5295,-3.504,-3.4786,0.0,-3.4173,-3.4352,-3.4427,-3.4637,-3.5055,-3.534,-3.5504,-3.5504,-3.5504,-3.5504,-3.5504,-3.5504,-3.5504,-3.5504,-3.5504,-3.5504,-3.5504,-3.5504,-3.5504,-3.5504,-3.5504,-3.5504,-3.5504,-3.5504,-3.5504,-3.5504,-3.5504,-3.5279,-3.4905,-3.3891,-3.2961,-3.196,-3.1044,-3.0355,-2.9817,-3.0018,-3.0319,-3.0708,-3.1436,-3.1913,-3.2303,-5.0963,-5.186,-5.2283,-5.1657,-5.2418,-5.252,-5.0727,-5.0879,-5.0862,-4.983,-4.9492,-4.9357,-4.9357,-4.9137,-4.9001,-4.9001,-4.9001,-4.9001,-4.9001,-4.9001,-4.9001,-4.9001,-4.9001,-4.9001,-4.9001,-4.9001,-4.9001,-4.9001,-4.9001,-4.9001,-4.9001,-4.9001,-4.9001,-4.9001,-4.9001,-4.9001,-4.9001,-4.9001,-4.9001,-4.9001,-4.9001,-4.9001,-4.8877,-4.795,-4.7489,-4.7204,-4.6287,-4.5481,-4.4817,-4.3864,-4.2935,-4.1937,-4.0721,-3.9948,-3.9424,-3.9424,-3.9424,-3.9424,-3.9424,-3.9065,-3.8661,-3.8437,-3.7734,-3.6971,-3.6582,-3.6133,-3.5744,-3.5549,-3.5504,-3.5504,-3.5504,-3.5504,-3.5504,-3.5504,-3.51,-3.4966,-3.5444,-3.51,-3.4981,-3.5444,-3.5504,-3.5504,-3.5504,-3.5504,-3.5504,-3.5504,-3.5504,-3.5504,-3.5504,-3.5504,-3.5504,-3.5504,-3.5504,-3.5504,-3.5504,-3.5504,-3.5504,-3.5504,-3.5504,-3.5504,-3.5504,-3.5504,-3.5504,-3.5424,-3.4461,-3.3449,-3.2522,-3.1609,-3.062,-2.9792,-2.9792,-3.0018,-3.0419,-3.0947,-3.1386,-3.1813,-5.3179,-5.3501,-5.3247,-5.2452,-5.2317,-5.2063,-5.1336,-5.1217,-5.1217,-5.1217,-5.0557,-5.0101,-5.0101,-4.9458,-4.9018,-4.9018,-4.9001,-4.9001,-4.9001,-4.9001,-4.9001,-4.9001,-4.9001,-4.9001,-4.9001,-4.9001,-4.9001,-4.9001,-4.9001,-4.9001,-4.9001,-4.9001,-4.9001,-4.9001,-4.9001,-4.9001,-4.9001,-4.9001,-4.9001,-4.9001,-4.9001,-4.9001,-4.8877,-4.795,-4.8161,-4.8861,-4.795,-4.7193,-4.6453,-4.5559,-4.4117,-4.2556,-4.0945,-3.9948,-3.9424,-3.9409,-3.9424,-3.9424,-3.9424,-3.9424,-3.926,-3.8571,-3.8392,-3.8063,-3.6791,-3.6492,-3.6297,-3.5639,-3.5504,-3.5504,-3.5504,-3.5504,-3.5504,-3.5504,-3.5504,-3.5504,-3.5504,-3.5504,-3.5504,-3.5504,-3.5504,-3.5504,-3.5504,-3.5504,-3.5504,-3.5504,-3.5504,-3.5504,-3.5504,-3.5504,-3.5504,-3.5504,-3.5504,-3.5504,-3.5504,-3.5504,-3.5504,-3.5504,-3.5504,-3.5504,-3.5504,-3.5504,-3.5504,-3.5424,-3.4461,-3.3449,-3.2522,-3.1609,-3.062,-2.9792,-2.9792,-2.9792,-2.9854,-3.0407,-3.062,-3.0771,-5.1708,-5.2317,-5.2756,-5.3095,-5.3145,-5.2892,-5.2097,-5.1978,-5.1792,-5.1285,-5.1014,-5.0879,-5.0879,-5.0202,-4.9763,-4.9763,-4.9306,-4.9001,-4.9001,-4.9001,-4.9001,-4.9001,-4.9001,-4.9001,-4.9001,-4.9001,-4.9001,-4.9001,-4.9001,-4.9001,-4.9001,-4.9001,-4.9001,-4.9001,-4.9001,-4.9001,-4.9001,-4.9001,-4.9001,-4.9001,-4.9001,-4.9001,-4.9001,-4.8719,-4.8798,-4.894,-4.8656,-4.8442,-4.8115,-4.7194,-4.6238,-4.501,-4.221,-4.1627,-4.1758,-4.0639,-4.0309,-4.0309,-4.0309,-3.9864,-3.9364,-3.917,-3.8751,-3.8167,-3.733,-3.6791,-3.6297,-3.5639,-3.5504,-3.5504,-3.5504,-3.5504,-3.5504,-3.5504,-3.5504,-3.5504,-3.5504,-3.5504,-3.5504,-3.5504,-3.5504,-3.5504,-3.5504,-3.5504,-3.5504,-3.5504,-3.5504,-3.5504,-3.5504,-3.5504,-3.5504,-3.5504,-3.5504,-3.5504,-3.5504,-3.5504,-3.5504,-3.5504,-3.5504,-3.5504,-3.5504,-3.5504,-3.5504,-3.5424,-3.4461,-3.3449,-3.2522,-3.1609,-3.062,-2.9792,-2.9792,-2.9792,-2.9854,-3.0407,-3.062,-3.0708,-5.1505,-5.2249,-5.2841,-5.301,-5.3298,-5.323,-5.2418,-5.257,-5.2621,-5.2181,-5.1843,-5.1657,-5.1657,-5.0727,-5.0084,-5.0084,-4.9424,-4.9001,-4.9001,-4.9001,-4.9001,-4.9001,-4.9001,-4.9001,-4.9001,-4.9001,-4.9001,-4.9001,-4.9001,-4.9001,-4.9001,-4.9001,-4.9001,-4.9001,-4.9001,-4.9001,-4.9001,-4.9001,-4.9001,-4.9001,-4.9001,-4.9001,-4.9001,-4.9001,-4.9001,-4.9001,-4.9001,-4.9001,-4.8861,-4.795,-4.6897,-4.5732,-4.3733,-4.3135,-4.2941,-4.1917,-4.1417,-4.1147,-4.0811,-4.0309,-3.9864,-3.9481,-3.911,-3.8616,-3.7943,-3.73,-3.6671,-3.6028,-3.5684,-3.5504,-3.5504,-3.5504,-3.5504,-3.5504,-3.5504,-3.5504,-3.5504,-3.5504,-3.5504,-3.5504,-3.5504,-3.5504,-3.5504,-3.5504,-3.5504,-3.5504,-3.5504,-3.5504,-3.5504,-3.5504,-3.5504,-3.5504,-3.5504,-3.5504,-3.5504,-3.5504,-3.5504,-3.5504,-3.5504,-3.5504,-3.5504,-3.5504,-3.5504,-3.5439,-3.4839,-3.3822,-3.2522,-3.196,-3.0983,-2.9792,-2.9792,-2.9792,-2.9829,-3.0168,-3.0281,-3.0369,-5.1978,-5.2756,-5.3061,-5.2334,-5.2858,-5.3145,-5.2418,-5.2993,-5.3501,-5.3501,-5.2858,-5.2418,-5.2418,-5.1082,-5.0185,-5.0185,-4.9458,-4.9001,-4.9001,-4.9001,-4.9001,-4.9001,-4.9001,-4.9001,-4.9001,-4.9001,-4.9001,-4.9001,-4.9001,-4.9001,-4.9001,-4.9001,-4.9001,-4.9001,-4.9001,-4.9001,-4.9001,-4.9001,-4.9001,-4.9001,-4.9001,-4.9001,-4.9001,-4.9001,-4.9001,-4.9001,-4.9001,-4.9001,-4.8861,-4.8015,-4.6731,-4.5488,-4.5355,-4.4522,-4.3509,-4.325,-4.2768,-4.2013,-4.1162,-4.0826,-4.05,-3.9737,-3.9481,-3.923,-3.8542,-3.7928,-3.733,-3.6701,-3.6043,-3.5594,-3.5594,-3.5549,-3.5504,-3.5504,-3.5504,-3.5504,-3.5504,-3.5504,-3.5504,-3.5504,-3.5504,-3.5504,-3.5504,-3.5504,-3.5504,-3.5504,-3.5504,-3.5504,-3.5504,-3.5504,-3.5504,-3.5504,-3.5504,-3.5504,-3.5504,-3.5504,-3.5504,-3.5504,-3.5504,-3.5504,-3.5504,-3.5504,-3.5504,-3.5504,-3.5424,-3.4341,-3.2749,-3.2522,-3.1549,-3.0075,-2.9934,-2.9934,-2.9934,-2.9934,-2.9856,-2.9867,-5.0541,-5.1183,-5.1657,-5.1488,-5.2063,-5.2503,-5.2334,-5.2993,-5.3501,-5.3501,-5.3348,-5.3247,-5.3247,-5.1894,-5.098,-5.098,-4.9763,-4.9001,-4.9001,-4.9001,-4.9001,-4.9001,-4.9001,-4.9001,-4.9001,-4.9001,-4.9001,-4.9001,-4.9001,-4.9001,-4.9001,-4.9001,-4.9001,-4.9001,-4.9001,-4.9001,-4.9001,-4.9001,-4.9001,-4.9001,-4.9001,-4.9001,-4.9001,-4.9001,-4.9001,-4.9001,-4.9001,-4.9001,-4.9001,-4.8798,-4.8476,-4.7955,-4.6683,-4.6576,-4.6519,-4.469,-4.3981,-4.3735,-4.2932,-4.1739,-4.0622,-4.05,-3.992,-3.923,-3.8542,-3.8287,-3.7988,-3.7345,-3.6701,-3.6267,-3.6267,-3.5848,-3.5504,-3.5504,-3.5504,-3.5504,-3.5504,-3.5504,-3.5504,-3.5504,-3.5504,-3.5504,-3.5504,-3.5504,-3.5504,-3.5504,-3.5504,-3.5504,-3.5504,-3.5504,-3.5504,-3.5504,-3.5504,-3.5504,-3.5504,-3.5504,-3.5504,-3.5504,-3.5504,-3.5504,-3.5504,-3.5504,-3.5504,-3.5439,-3.4691,-3.4109,-3.3602,-3.2105,-3.1683,-3.1901,-3.118,-3.0908,-3.0908,-3.0908,-3.0419,-2.9817,-5.0084,-5.098,-5.1623,-5.1268,-5.2147,-5.2739,-5.2367,-5.2993,-5.3365,-5.2993,-5.2942,-5.279,-5.2452,-5.1369,-5.0541,-5.0185,-4.9458,-4.9001,-4.9001,-4.9001,-4.9001,-4.9001,-4.9001,-4.9001,-4.9001,-4.9001,-4.9001,-4.9001,-4.9001,-4.9001,-4.9001,-4.9001,-4.9001,-4.9001,-4.9001,-4.9001,-4.9001,-4.9001,-4.9001,-4.9001,-4.9001,-4.9001,-4.9001,-4.9001,-4.9001,-4.9001,-4.9001,-4.9001,-4.9001,-4.9001,-4.9001,-4.8855,-4.7981,-4.7849,-4.7629,-4.6441,-4.5584,-4.4813,-4.4037,-4.2905,-4.1869,-4.1412,-4.069,-3.9829,-3.9017,-3.8631,-3.8287,-3.7943,-3.736,-3.6926,-3.6926,-3.6641,-3.6312,-3.6013,-3.5968,-3.5863,-3.5549,-3.5504,-3.5504,-3.5504,-3.5504,-3.5504,-3.5504,-3.5504,-3.5504,-3.5504,-3.5504,-3.5504,-3.5504,-3.5504,-3.5504,-3.5504,-3.5504,-3.5504,-3.5504,-3.5504,-3.5504,-3.5504,-3.5504,-3.5504,-3.5504,-3.5504,-3.5504,-3.5424,-3.4461,-3.3739,-3.3241,-3.1815,-3.1254,-3.1193,-3.0696,-3.0558,-3.0558,-3.0558,-3.0203,-2.9792,-4.9898,-5.0896,-5.1539,-5.0947,-5.1995,-5.2739,-5.2198,-5.2689,-5.2909,-5.2367,-5.2198,-5.1894,-5.1285,-5.0541,-4.9796,-4.9069,-4.9001,-4.9001,-4.9001,-4.9001,-4.9001,-4.9001,-4.9001,-4.9001,-4.9001,-4.9001,-4.9001,-4.9001,-4.9001,-4.9001,-4.9001,-4.9001,-4.9001,-4.9001,-4.9001,-4.9001,-4.9001,-4.9001,-4.9001,-4.9001,-4.9001,-4.9001,-4.9001,-4.9001,-4.9001,-4.9001,-4.9001,-4.9001,-4.9001,-4.9001,-4.9001,-4.9001,-4.9001,-4.8595,-4.8071,-4.7953,-4.7039,-4.5891,-4.4903,-4.407,-4.3256,-4.2411,-4.1462,-4.05,-3.9793,-3.9103,-3.8556,-3.8556,-3.8033,-3.7584,-3.7584,-3.7479,-3.724,-3.6731,-3.6641,-3.6417,-3.5759,-3.5669,-3.5624,-3.5519,-3.5504,-3.5504,-3.5504,-3.5504,-3.5504,-3.5504,-3.5504,-3.5504,-3.5504,-3.5504,-3.5504,-3.5504,-3.5504,-3.5504,-3.5504,-3.5504,-3.5504,-3.5504,-3.5504,-3.5504,-3.5504,-3.5504,-3.5504,-3.5424,-3.4461,-3.3533,-3.2749,-3.1669,-3.0833,-3.0292,-3.0075,-3.0075,-2.9998,-2.9869,-2.9792,-2.9792,-4.9154,-4.9323,-4.9407,-4.9323,-4.9999,-5.0744,-5.1285,-5.1454,-5.1708,-5.2232,-5.1758,-5.1319,-5.1234,-5.0541,-4.9796,-4.9069,-4.9001,-4.9001,-4.9001,-4.9001,-4.9001,-4.9001,-4.9001,-4.9001,-4.9001,-4.9001,-4.9001,-4.9001,-4.9001,-4.9001,-4.9001,-4.9001,-4.9001,-4.9001,-4.9001,-4.9001,-4.9001,-4.9001,-4.9001,-4.9001,-4.9001,-4.9001,-4.9001,-4.9001,-4.9001,-4.9001,-4.9001,-4.9001,-4.9001,-4.9001,-4.9001,-4.9001,-4.9001,-4.8934,-4.8731,-4.8105,-4.7784,-4.7284,-4.5908,-4.489,-4.4064,-4.3317,-4.1933,-4.069,-4.0554,-3.9859,-3.9275,-3.9275,-3.8736,-3.8257,-3.8257,-3.7793,-3.7375,-3.73,-3.7285,-3.706,-3.6447,-3.6357,-3.6148,-3.5579,-3.5504,-3.5504,-3.5504,-3.5504,-3.5504,-3.5504,-3.5504,-3.5504,-3.5504,-3.5504,-3.5504,-3.5504,-3.5504,-3.5504,-3.5504,-3.5504,-3.5504,-3.5504,-3.5504,-3.5504,-3.5504,-3.5504,-3.5504,-3.5424,-3.4461,-3.3945,-3.3671,-3.1888,-3.1609,-3.2105,-3.1328,-3.1044,-3.0895,-3.0075,-2.9792,-2.9792,-4.9001,-4.9323,-4.961,-4.961,-5.0219,-5.0828,-5.1166,-5.1217,-5.1183,-5.1082,-5.0794,-5.0439,-5.0033,-4.9678,-4.9357,-4.9035,-4.9001,-4.9001,-4.9001,-4.9001,-4.9001,-4.9001,-4.9001,-4.9001,-4.9001,-4.9001,-4.9001,-4.9001,-4.9001,-4.9001,-4.9001,-4.9001,-4.9001,-4.9001,-4.9001,-4.9001,-4.9001,-4.9001,-4.9001,-4.9001,-4.9001,-4.9001,-4.9001,-4.9001,-4.9001,-4.9001,-4.9001,-4.9001,-4.9001,-4.9001,-4.9001,-4.9001,-4.9001,-4.9001,-4.8951,-4.8612,-4.824,-4.7682,-4.6599,-4.574,-4.4849,-4.3624,-4.2332,-4.128,-4.0811,-4.006,-3.9424,-3.9424,-3.917,-3.896,-3.896,-3.8736,-3.8407,-3.8018,-3.7958,-3.7734,-3.709,-3.6701,-3.6237,-3.5579,-3.5504,-3.5504,-3.5504,-3.5504,-3.5504,-3.5504,-3.5504,-3.5504,-3.5504,-3.5504,-3.5504,-3.5504,-3.5504,-3.5504,-3.5504,-3.5504,-3.5504,-3.5504,-3.5504,-3.5504,-3.5504,-3.5504,-3.5504,-3.5424,-3.4461,-3.4027,-3.3876,-3.2522,-3.2249,-3.2522,-3.2177,-3.196,-3.196,-3.1549,-3.1341,-3.1341]},{"header":{"parameterUnit":"m.s-1","parameterCategory":1,"la1":30.6,"la2":28.766,"lo1":-90.7593,"lo2":-88.6598,"dy":0.0162,"dx":0.0183,"nx":116,"ny":114,"refTime":"2024-07-06T06:00:00:Z","depth":0,"parameterNumber":3,"parameterNumberName":"V-component_of_WINDS"},"data":[0.0,0.0,0.0,0.0,0.0,0.0,0.0,0.0,0.0,0.0,0.0,0.0,0.0,0.0,0.0,0.0,0.0,0.0,0.0,0.0,0.0,0.0,0.0,0.0,0.0,0.0,0.0,0.0,0.0,0.0,0.0,0.0,0.0,0.0,0.0,0.0,0.0,0.0,0.0,0.0,0.0,0.0,0.0,0.0,0.0,0.0,0.0,0.0,0.0,0.0,0.0,0.0,0.0,0.0,0.0,0.0,0.0,0.0,0.0,0.0,0.0,0.0,0.0,0.0,0.0,0.0,0.0,0.0,0.0,0.0,0.0,0.0,0.0,0.0,0.0,0.0,0.0,0.0,0.0,0.0,0.0,0.0,0.0,0.0,0.0,0.0,0.0,0.0,0.0,0.0,0.0,0.0,0.0,0.0,0.0,0.0,0.0,0.0,0.0,0.0,0.0,0.0,0.0,0.0,0.0,0.0,0.0,0.0,0.0,0.0,0.0,0.0,0.0,0.0,0.0,0.0,0.0,0.0,0.0,0.0,0.0,0.0,0.0,0.0,0.0,0.0,0.0,0.0,0.0,0.0,0.0,0.0,0.0,0.0,0.0,0.0,0.0,0.0,0.0,0.0,0.0,0.0,0.0,0.0,0.0,0.0,0.0,0.0,0.0,0.0,0.0,0.0,0.0,0.0,0.0,0.0,0.0,0.0,0.0,0.0,0.0,0.0,0.0,0.0,0.0,0.0,0.0,0.0,0.0,0.0,0.0,0.0,0.0,0.0,0.0,0.0,0.0,0.0,0.0,0.0,0.0,0.0,0.0,0.0,0.0,0.0,0.0,0.0,0.0,0.0,0.0,0.0,0.0,0.0,0.0,0.0,0.0,0.0,0.0,0.0,0.0,0.0,0.0,0.0,0.0,0.0,0.0,0.0,0.0,0.0,0.0,0.0,0.0,0.0,0.0,0.0,0.0,0.0,0.0,0.0,0.0,0.0,0.0,0.0,0.0,0.0,0.0,0.0,0.0,0.0,0.0,0.0,0.0,0.0,0.0,0.0,0.0,0.0,0.0,0.0,0.0,0.0,0.0,0.0,0.0,0.0,0.0,0.0,0.0,0.0,0.0,0.0,0.0,0.0,0.0,0.0,0.0,0.0,0.0,0.0,0.0,0.0,0.0,0.0,0.0,0.0,0.0,0.0,0.0,0.0,0.0,0.0,0.0,0.0,0.0,0.0,0.0,0.0,0.0,0.0,0.0,0.0,0.0,0.0,0.0,0.0,0.0,0.0,0.0,0.0,0.0,0.0,0.0,0.0,0.0,0.0,0.0,0.0,0.0,0.0,0.0,0.0,0.0,0.0,0.0,0.0,0.0,0.0,0.0,0.0,0.0,0.0,0.0,0.0,0.0,0.0,0.0,0.0,0.0,0.0,0.0,0.0,0.0,0.0,0.0,0.0,0.0,0.0,0.0,0.0,0.0,0.0,0.0,0.0,0.0,0.0,0.0,0.0,0.0,0.0,0.0,0.0,0.0,0.0,0.0,0.0,0.0,0.0,0.0,0.0,0.0,0.0,0.0,0.0,0.0,0.0,0.0,0.0,0.0,0.0,0.0,0.0,0.0,0.0,0.0,0.0,0.0,0.0,0.0,0.0,0.0,0.0,0.0,0.0,0.0,0.0,0.0,0.0,0.0,0.0,0.0,0.0,0.0,0.0,0.0,0.0,0.0,0.0,0.0,0.0,0.0,0.0,0.0,0.0,0.0,0.0,0.0,0.0,0.0,0.0,0.0,0.0,0.0,0.0,0.0,0.0,0.0,0.0,0.0,0.0,0.0,0.0,0.0,0.0,0.0,0.0,0.0,0.0,0.0,0.0,0.0,0.0,0.0,0.0,0.0,0.0,0.0,0.0,0.0,0.0,0.0,0.0,0.0,0.0,0.0,0.0,0.0,0.0,0.0,0.0,0.0,0.0,0.0,0.0,0.0,0.0,0.0,0.0,0.0,0.0,0.0,0.0,0.0,0.0,0.0,0.0,0.0,0.0,0.0,0.0,0.0,0.0,0.0,0.0,0.0,0.0,0.0,0.0,0.0,0.0,0.0,0.0,0.0,0.0,0.0,0.0,0.0,0.0,0.0,0.0,0.0,0.0,0.0,0.0,0.0,0.0,0.0,0.0,0.0,0.0,0.0,0.0,0.0,0.0,0.0,0.0,0.0,0.0,0.0,0.0,0.0,0.0,0.0,0.0,0.0,0.0,0.0,0.0,0.0,0.0,0.0,0.0,0.0,0.0,0.0,0.0,0.0,0.0,0.0,0.0,0.0,0.0,0.0,0.0,0.0,0.0,0.0,0.0,0.0,0.0,0.0,0.0,0.0,0.0,0.0,0.0,0.0,0.0,0.0,0.0,0.0,0.0,0.0,0.0,0.0,0.0,0.0,0.0,0.0,0.0,0.0,0.0,0.0,0.0,0.0,0.0,0.0,0.0,0.0,0.0,0.0,0.0,0.0,0.0,0.0,0.0,0.0,0.0,0.0,0.0,0.0,0.0,0.0,0.0,0.0,0.0,0.0,0.0,0.0,0.0,0.0,0.0,0.0,0.0,0.0,0.0,0.0,0.0,0.0,0.0,0.0,0.0,0.0,0.0,0.0,0.0,0.0,0.0,0.0,0.0,0.0,0.0,0.0,0.0,0.0,0.0,0.0,0.0,0.0,0.0,0.0,0.0,0.0,0.0,0.0,0.0,0.0,0.0,0.0,0.0,0.0,0.0,0.0,0.0,0.0,0.0,0.0,0.0,0.0,0.0,0.0,0.0,0.0,0.0,0.0,0.0,0.0,0.0,0.0,0.0,0.0,0.0,0.0,0.0,0.0,0.0,0.0,0.0,0.0,0.0,0.0,0.0,0.0,0.0,0.0,0.0,0.0,0.0,0.0,0.0,0.0,0.0,0.0,0.0,0.0,0.0,0.0,0.0,0.0,0.0,0.0,0.0,0.0,0.0,0.0,0.0,0.0,0.0,0.0,0.0,0.0,0.0,0.0,0.0,0.0,0.0,0.0,0.0,0.0,0.0,0.0,0.0,0.0,0.0,0.0,0.0,0.0,0.0,0.0,0.0,0.0,0.0,0.0,0.0,0.0,0.0,0.0,0.0,0.0,0.0,0.0,0.0,0.0,0.0,0.0,0.0,0.0,0.0,0.0,0.0,0.0,0.0,0.0,0.0,0.0,0.0,0.0,0.0,0.0,0.0,0.0,0.0,0.0,0.0,0.0,0.0,0.0,0.0,0.0,0.0,0.0,0.0,0.0,0.0,0.0,0.0,0.0,0.0,0.0,0.0,0.0,0.0,0.0,0.0,0.0,0.0,0.0,0.0,0.0,0.0,0.0,0.0,0.0,0.0,0.0,0.0,0.0,0.0,0.0,0.0,0.0,0.0,0.0,0.0,0.0,0.0,0.0,0.0,0.0,0.0,0.0,0.0,0.0,0.0,0.0,0.0,0.0,0.0,0.0,0.0,0.0,0.0,0.0,0.0,0.0,0.0,0.0,0.0,0.0,0.0,0.0,0.0,0.0,0.0,0.0,0.0,0.0,0.0,0.0,0.0,0.0,0.0,0.0,0.0,0.0,0.0,0.0,0.0,0.0,0.0,0.0,0.0,0.0,0.0,0.0,0.0,0.0,0.0,0.0,0.0,0.0,0.0,0.0,0.0,0.0,0.0,0.0,0.0,0.0,0.0,0.0,0.0,0.0,0.0,0.0,0.0,0.0,0.0,0.0,0.0,0.0,0.0,0.0,0.0,0.0,0.0,0.0,0.0,0.0,0.0,0.0,0.0,0.0,0.0,0.0,0.0,0.0,0.0,0.0,0.0,0.0,0.0,0.0,0.0,0.0,0.0,0.0,0.0,0.0,0.0,0.0,0.0,0.0,0.0,0.0,0.0,0.0,0.0,0.0,0.0,0.0,0.0,0.0,0.0,0.0,0.0,0.0,0.0,0.0,0.0,0.0,0.0,0.0,0.0,0.0,0.0,0.0,0.0,0.0,0.0,0.0,0.0,0.0,0.0,0.0,0.0,0.0,0.0,0.0,0.0,0.0,0.0,0.0,0.0,0.0,0.0,0.0,0.0,0.0,0.0,0.0,0.0,0.0,0.0,0.0,0.0,0.0,0.0,0.0,0.0,0.0,0.0,0.0,0.0,0.0,0.0,0.0,0.0,0.0,0.0,0.0,0.0,0.0,0.0,0.0,0.0,0.0,0.0,0.0,0.0,0.0,0.0,0.0,0.0,0.0,0.0,0.0,0.0,0.0,0.0,0.0,0.0,0.0,0.0,0.0,0.0,0.0,0.0,0.0,0.0,0.0,0.0,0.0,0.0,0.0,0.0,0.0,0.0,0.0,0.0,0.0,0.0,0.0,0.0,0.0,0.0,0.0,0.0,0.0,0.0,0.0,0.0,0.0,0.0,0.0,0.0,0.0,0.0,0.0,0.0,0.0,0.0,0.0,0.0,0.0,0.0,0.0,0.0,0.0,0.0,0.0,0.0,0.0,0.0,0.0,0.0,0.0,0.0,0.0,0.0,0.0,0.0,0.0,0.0,0.0,0.0,0.0,0.0,0.0,0.0,0.0,0.0,0.0,0.0,0.0,0.0,0.0,0.0,0.0,0.0,0.0,0.0,0.0,0.0,0.0,0.0,0.0,0.0,0.0,0.0,0.0,0.0,0.0,0.0,0.0,0.0,0.0,0.0,0.0,0.0,0.0,0.0,0.0,0.0,0.0,0.0,0.0,0.0,0.0,0.0,0.0,0.0,0.0,0.0,0.0,0.0,0.0,0.0,0.0,0.0,0.0,0.0,0.0,0.0,0.0,0.0,0.0,0.0,0.0,0.0,0.0,0.0,0.0,0.0,0.0,0.0,0.0,0.0,0.0,0.0,0.0,0.0,0.0,0.0,0.0,0.0,0.0,0.0,0.0,0.0,0.0,0.0,0.0,0.0,0.0,0.0,0.0,0.0,0.0,0.0,0.0,0.0,0.0,0.0,0.0,0.0,0.0,0.0,0.0,0.0,0.0,0.0,0.0,0.0,0.0,0.0,0.0,0.0,0.0,0.0,0.0,0.0,0.0,0.0,0.0,0.0,0.0,0.0,0.0,0.0,0.0,0.0,0.0,0.0,0.0,0.0,0.0,0.0,0.0,0.0,0.0,0.0,0.0,0.0,0.0,0.0,0.0,0.0,0.0,0.0,0.0,0.0,0.0,0.0,0.0,0.0,0.0,0.0,0.0,0.0,0.0,0.0,0.0,0.0,0.0,0.0,0.0,0.0,0.0,0.0,0.0,0.0,0.0,0.0,0.0,0.0,0.0,0.0,0.0,0.0,0.0,0.0,0.0,0.0,0.0,0.0,0.0,0.0,0.0,0.0,0.0,0.0,0.0,0.0,0.0,0.0,0.0,0.0,0.0,0.0,0.0,0.0,0.0,0.0,0.0,0.0,0.0,0.0,0.0,0.0,0.0,0.0,0.0,0.0,0.0,0.0,0.0,0.0,0.0,0.0,0.0,0.0,0.0,0.0,0.0,0.0,0.0,0.0,0.0,0.0,0.0,0.0,0.0,0.0,0.0,0.0,0.0,0.0,0.0,0.0,0.0,0.0,0.0,0.0,0.0,0.0,0.0,0.0,0.0,0.0,0.0,0.0,0.0,0.0,0.0,0.0,0.0,0.0,0.0,0.0,0.0,0.0,0.0,0.0,0.0,0.0,0.0,0.0,0.0,0.0,0.0,0.0,0.0,0.0,0.0,0.0,0.0,0.0,0.0,0.0,0.0,0.0,0.0,0.0,0.0,0.0,0.0,0.0,0.0,0.0,0.0,0.0,0.0,0.0,0.0,0.0,0.0,0.0,0.0,0.0,0.0,0.0,0.0,0.0,0.0,0.0,0.0,0.0,0.0,0.0,0.0,0.0,0.0,0.0,0.0,0.0,0.0,0.0,0.0,0.0,0.0,0.0,0.0,0.0,0.0,0.0,0.0,0.0,0.0,0.0,0.0,0.0,0.0,0.0,0.0,0.0,0.0,0.0,0.0,0.0,0.0,0.0,0.0,0.0,0.0,0.0,0.0,0.0,0.0,0.0,-2.1078,0.0,0.0,0.0,0.0,0.0,0.0,0.0,0.0,0.0,0.0,0.0,0.0,0.0,0.0,0.0,0.0,0.0,0.0,0.0,0.0,0.0,0.0,0.0,0.0,-0.8743,-0.914,-0.9317,-0.9706,-0.9958,-0.9958,0.0,0.0,0.0,0.0,0.0,-1.026,-1.0412,-1.1084,-1.2246,-1.2269,-1.3183,-1.4853,-1.4538,-1.3799,-1.2761,0.0,0.0,0.0,0.0,0.0,0.0,0.0,0.0,0.0,0.0,0.0,0.0,0.0,0.0,0.0,0.0,0.0,0.0,0.0,0.0,0.0,0.0,0.0,0.0,0.0,0.0,0.0,0.0,0.0,0.0,0.0,0.0,0.0,0.0,0.0,0.0,0.0,0.0,0.0,0.0,0.0,0.0,0.0,0.0,0.0,0.0,0.0,0.0,0.0,0.0,0.0,0.0,0.0,0.0,0.0,0.0,0.0,0.0,0.0,0.0,0.0,0.0,0.0,0.0,0.0,0.0,0.0,0.0,0.0,0.0,0.0,-2.3569,0.0,0.0,0.0,0.0,0.0,0.0,0.0,0.0,0.0,0.0,0.0,0.0,0.0,0.0,0.0,0.0,0.0,0.0,0.0,0.0,0.0,-0.8123,-0.8259,-0.9117,-0.9812,-1.0145,-1.0717,-1.1121,-1.1299,-1.118,0.0,0.0,0.0,-1.1148,-1.1295,-1.1601,-1.2464,-1.3933,-1.4473,-1.5645,-1.7383,-1.8263,-1.7277,-1.4795,-1.4806,0.0,0.0,0.0,0.0,0.0,0.0,0.0,0.0,0.0,0.0,0.0,0.0,0.0,0.0,0.0,0.0,0.0,0.0,0.0,0.0,0.0,0.0,0.0,0.0,0.0,0.0,0.0,0.0,0.0,0.0,0.0,0.0,0.0,0.0,0.0,0.0,0.0,0.0,0.0,0.0,0.0,0.0,0.0,0.0,0.0,0.0,0.0,0.0,0.0,0.0,0.0,0.0,0.0,0.0,0.0,0.0,0.0,0.0,0.0,0.0,0.0,0.0,0.0,-3.0924,-3.1708,-3.2732,-3.2732,-3.298,-3.3333,-3.0559,-2.8804,-2.7818,-2.681,0.0,0.0,0.0,0.0,0.0,0.0,0.0,0.0,0.0,0.0,0.0,0.0,0.0,0.0,0.0,0.0,0.0,0.0,0.0,-0.8182,-0.8896,-0.9096,-0.9859,-1.1482,-1.1152,-1.1211,-1.2079,-1.1485,0.0,0.0,-1.1096,-1.1148,-1.1295,-1.1951,-1.3127,-1.4834,-1.729,-1.8642,-1.8908,-1.9495,-1.9568,-1.9127,-1.8044,-1.7207,-1.6536,0.0,0.0,0.0,0.0,0.0,0.0,0.0,0.0,0.0,0.0,0.0,0.0,0.0,0.0,0.0,0.0,0.0,0.0,0.0,0.0,0.0,0.0,0.0,0.0,0.0,0.0,0.0,0.0,0.0,0.0,0.0,0.0,0.0,0.0,0.0,0.0,0.0,0.0,0.0,0.0,0.0,-1.6905,-1.8011,0.0,0.0,0.0,0.0,0.0,0.0,0.0,0.0,0.0,0.0,0.0,0.0,0.0,-2.9817,-3.1323,-3.3564,-3.4257,-3.3382,-3.5469,-3.601,-3.5145,-3.5145,-3.5569,-3.6282,-3.6266,0.0,-3.0969,-2.9472,0.0,0.0,0.0,0.0,0.0,0.0,0.0,0.0,0.0,0.0,0.0,0.0,0.0,0.0,0.0,0.0,0.0,0.0,0.0,0.0,0.0,-1.0699,-1.1917,-1.3191,-1.3982,-1.4242,-1.3845,-1.3714,-1.3261,-1.2431,-1.2397,-1.2599,-1.3104,-1.392,-1.5556,-1.7983,-2.037,-2.1574,-2.1591,-2.2231,-2.253,-2.2496,-2.1946,-2.0428,-1.826,-1.7263,0.0,0.0,0.0,0.0,0.0,0.0,0.0,0.0,0.0,0.0,0.0,0.0,0.0,0.0,0.0,0.0,0.0,0.0,0.0,0.0,0.0,0.0,0.0,0.0,0.0,0.0,0.0,0.0,0.0,0.0,0.0,0.0,0.0,0.0,0.0,0.0,0.0,0.0,0.0,-1.7683,-2.0243,-2.0718,-2.1867,-2.1855,0.0,0.0,0.0,0.0,0.0,0.0,0.0,0.0,0.0,-3.1565,-3.2342,-3.3352,-3.4717,-3.6225,-3.7068,-3.7206,-3.8295,-3.8903,-3.906,-3.8722,-3.8791,-3.9118,-3.934,-3.8252,-3.6115,-3.4233,-3.2636,-3.1222,0.0,0.0,0.0,0.0,-3.1168,-3.1594,0.0,0.0,0.0,0.0,0.0,0.0,0.0,0.0,0.0,0.0,0.0,0.0,-1.0422,-1.2066,-1.3613,-1.4924,-1.6128,-1.6579,-1.6028,-1.5553,-1.4902,-1.4006,-1.3786,-1.4022,-1.4783,-1.6416,-1.843,-2.0814,-2.2751,-2.3663,-2.368,-2.4222,-2.4506,-2.4506,-2.4506,-2.2932,-2.023,-1.949,-1.8041,0.0,0.0,0.0,0.0,0.0,0.0,0.0,0.0,0.0,0.0,0.0,0.0,0.0,0.0,0.0,0.0,0.0,0.0,0.0,0.0,0.0,0.0,0.0,0.0,0.0,0.0,0.0,0.0,0.0,0.0,0.0,0.0,0.0,0.0,0.0,0.0,0.0,0.0,-2.0924,-2.3188,-2.2976,-2.4871,-2.5134,0.0,0.0,0.0,0.0,0.0,0.0,-3.0785,-3.1795,-3.3124,-3.4881,-3.5761,-3.6749,-3.7848,-3.855,-3.9342,-4.0296,-4.037,-4.0906,-4.1851,-4.14,-4.1215,-4.1197,-4.1311,-4.0936,-4.0176,-3.8251,-3.6666,-3.5473,-3.4812,-3.4641,-3.4816,-3.5422,-3.5532,-3.5624,0.0,0.0,0.0,0.0,0.0,0.0,0.0,0.0,0.0,0.0,0.0,-0.9626,-1.1512,-1.2366,-1.389,-1.6545,-1.6168,-1.6605,-1.8593,-1.6099,-1.4834,-1.546,-1.4817,-1.48,-1.5528,-1.9087,-2.1356,-2.2192,-2.3727,-2.4455,-2.4455,-2.4489,-2.4506,-2.4506,-2.4506,-2.4015,-2.31,-2.1688,-2.0654,-1.978,0.0,0.0,0.0,0.0,0.0,0.0,0.0,0.0,0.0,0.0,0.0,0.0,0.0,0.0,0.0,0.0,0.0,0.0,0.0,0.0,0.0,0.0,0.0,0.0,0.0,0.0,0.0,0.0,0.0,0.0,0.0,0.0,0.0,0.0,0.0,0.0,0.0,0.0,0.0,-2.4085,-2.7636,0.0,0.0,0.0,0.0,-2.947,-3.1023,-3.2475,-3.3618,-3.5139,-3.6456,-3.7682,-3.8906,-3.9933,-4.0683,-4.1306,-4.1619,-4.1715,-4.1911,-4.2029,-4.2064,-4.2064,-4.2016,-4.2077,-4.2418,-4.2266,-4.1573,-4.0068,-3.8774,-3.7661,-3.6916,-3.6934,-3.7312,-3.7379,-3.8303,-3.9606,0.0,0.0,0.0,-0.7665,-0.7827,-0.7899,-0.7899,-0.7899,-0.8139,-0.8815,-0.9623,-1.0877,-1.2882,-1.4412,-1.6065,-1.7899,-1.8439,-1.8573,-1.8397,-1.7036,-1.6359,-1.663,-1.5728,-1.6458,-1.913,-2.0974,-2.2496,-2.3714,-2.4712,-2.5203,-2.522,-2.5676,-2.6167,-2.6607,-2.6116,-2.5761,-2.5389,-2.3427,-2.1942,-2.0747,-1.9281,-1.783,0.0,0.0,0.0,0.0,0.0,0.0,0.0,0.0,0.0,0.0,0.0,0.0,0.0,0.0,0.0,0.0,0.0,0.0,0.0,0.0,0.0,0.0,0.0,0.0,0.0,0.0,0.0,0.0,0.0,0.0,0.0,0.0,0.0,0.0,0.0,0.0,0.0,-2.8495,-3.0975,0.0,-2.9489,-3.1215,-3.2576,-3.2804,-3.4298,-3.5736,-3.7138,-3.7716,-3.8608,-3.9986,-4.0896,-4.1695,-4.2458,-4.3029,-4.3558,-4.3912,-4.3989,-4.4217,-4.4507,-4.4174,-4.4046,-4.4028,-4.4196,-4.4111,-4.3917,-4.3733,-4.2612,-4.0998,-4.1067,-4.1214,-4.135,-4.135,-4.1717,-4.2213,-0.6947,-0.7112,0.0,-0.7635,-0.7812,-0.7899,-0.7899,-0.8094,-0.8544,-0.9428,-1.0668,-1.2239,-1.4259,-1.5995,-1.7537,-1.8849,-1.9541,-1.976,-1.9326,-1.8227,-1.7749,-1.8137,-1.7708,-1.8758,-2.1498,-2.2784,-2.4019,-2.522,-2.5981,-2.6488,-2.6759,-2.7232,-2.774,-2.8197,-2.7689,-2.7469,-2.7368,-2.5896,-2.412,-2.2237,-2.1352,-2.0192,-1.8913,0.0,0.0,0.0,0.0,0.0,0.0,0.0,0.0,0.0,0.0,0.0,0.0,0.0,0.0,0.0,0.0,0.0,0.0,0.0,0.0,0.0,0.0,0.0,0.0,0.0,0.0,0.0,0.0,0.0,0.0,0.0,0.0,0.0,0.0,0.0,-3.1058,-3.1568,-3.3795,-3.4541,-3.2804,-3.424,-3.5462,-3.6005,-3.7195,-3.8447,-3.9681,-4.0201,-4.088,-4.1869,-4.2718,-4.3409,-4.3902,-4.4482,-4.4962,-4.5376,-4.5432,-4.5657,-4.6006,-4.5639,-4.5477,-4.5459,-4.5406,-4.5376,-4.5376,-4.5755,-4.5059,-4.3813,-4.418,-4.4305,-4.4305,-4.4305,-4.414,-4.3864,-0.713,-0.7195,-0.7349,-0.7812,-0.7899,-0.7899,-0.7899,-0.8469,-0.9353,-1.0633,-1.1984,-1.361,-1.5619,-1.6967,-1.8178,-1.9306,-1.9304,-1.9909,-2.1442,-1.9548,-1.8833,-2.0002,-2.0822,-2.1634,-2.2429,-2.4543,-2.6015,-2.6759,-2.7503,-2.8247,-2.9011,-2.9011,-2.8991,-2.9008,-2.8991,-2.8991,-2.9008,-2.8991,-2.73,-2.4523,-2.3038,-2.2395,-2.2118,0.0,0.0,0.0,0.0,0.0,0.0,0.0,0.0,0.0,0.0,0.0,0.0,0.0,0.0,0.0,0.0,0.0,0.0,0.0,0.0,0.0,0.0,0.0,0.0,0.0,0.0,0.0,0.0,0.0,0.0,0.0,0.0,0.0,-2.9959,-3.2291,-3.379,-3.3162,-3.5973,-3.711,-3.4912,-3.6705,-3.8311,-3.9039,-3.9766,-4.0493,-4.1204,-4.2532,-4.3308,-4.3325,-4.4492,-4.5116,-4.5192,-4.5716,-4.5993,-4.603,-4.6168,-4.6266,-4.6302,-4.6266,-4.6266,-4.6254,-4.6044,-4.5975,-4.5975,-4.5975,-4.5975,-4.5975,-4.592,-4.5902,-4.5902,-4.5902,-4.5406,-4.4635,-0.7146,-0.7363,-0.7575,-0.7856,-0.7899,-0.7899,-0.7899,-0.8469,-0.9353,-1.0633,-1.2403,-1.4274,-1.6234,-1.7623,-1.8736,-1.9556,-1.9863,-2.018,-2.0634,-1.9693,-1.9638,-2.0822,-2.2107,-2.363,-2.5456,-2.6082,-2.7029,-2.8349,-2.8552,-2.8772,-2.9011,-2.9011,-2.9279,-2.977,-2.9228,-2.9296,-2.977,-2.9211,-2.8537,-2.7639,-2.6099,-2.4649,-2.3264,0.0,0.0,0.0,0.0,0.0,0.0,0.0,0.0,0.0,0.0,0.0,0.0,0.0,0.0,0.0,0.0,0.0,0.0,0.0,0.0,0.0,0.0,0.0,0.0,0.0,0.0,0.0,0.0,0.0,0.0,0.0,-3.082,-3.2672,-3.2786,-3.4651,-3.6344,-3.7211,-3.8628,-3.9445,-3.9377,-3.9918,-4.0595,-4.1339,-4.1576,-4.1779,-4.1982,-4.2362,-4.3066,-4.4089,-4.4852,-4.5738,-4.6777,-4.7338,-4.7957,-4.8563,-4.7986,-4.8075,-4.8641,-4.7999,-4.7706,-4.7727,-4.7642,-4.7645,-4.7645,-4.7645,-4.7645,-4.7517,-4.6361,-4.5902,-4.5902,-4.5902,-4.5755,-4.5535,-0.7031,-0.727,-0.75,-0.7739,-0.7841,-0.7899,-0.7899,-0.8709,-0.9788,-1.1057,-1.3211,-1.5276,-1.6936,-1.8328,-1.9151,-1.9271,-1.9901,-2.0133,-1.9751,-2.029,-2.1078,-2.2073,-2.3528,-2.5067,-2.6657,-2.6996,-2.7926,-2.9448,-2.9448,-2.9617,-2.9905,-2.9905,-3.0142,-3.0548,-3.0108,-3.0159,-3.0531,-3.0091,-2.9736,-2.9381,-2.8484,-2.7063,-2.535,-2.432,-2.3512,-2.2815,-2.176,-2.0923,-2.0301,-1.981,0.0,0.0,0.0,0.0,0.0,0.0,0.0,0.0,0.0,0.0,0.0,0.0,0.0,0.0,0.0,0.0,0.0,0.0,0.0,0.0,0.0,0.0,0.0,0.0,-3.4008,-3.5676,-3.5983,-3.6995,-3.8142,-3.9309,-4.0104,-4.073,-4.117,-4.1474,-4.183,-4.2252,-4.2591,-4.276,-4.276,-4.3642,-4.4456,-4.5286,-4.6217,-4.7133,-4.7939,-4.8568,-4.9136,-4.9628,-4.9435,-4.9609,-5.0086,-4.9572,-4.9352,-4.9352,-4.9352,-4.9352,-4.9334,-4.8985,-4.8838,0.0,0.0,0.0,0.0,0.0,-4.6416,-4.6361,-0.6858,-0.7064,-0.7287,-0.756,-0.7739,-0.787,-0.7899,-0.9037,-1.0354,-1.1625,-1.4075,-1.6159,-1.7443,-1.8717,-1.9256,-1.8747,-1.9611,-1.992,-1.9281,-2.1242,-2.2755,-2.3536,-2.4951,-2.6116,-2.6928,-2.7689,-2.8789,-3.0226,-3.0226,-3.0565,-3.119,-3.119,-3.1241,-3.1309,-3.1309,-3.136,-3.1444,-3.1444,-3.1021,-3.0362,-3.0362,-2.9397,-2.7755,-2.6387,-2.597,-2.5975,-2.4534,-2.3675,-2.3067,-2.1645,0.0,0.0,0.0,0.0,0.0,0.0,0.0,0.0,0.0,0.0,0.0,0.0,0.0,0.0,0.0,0.0,0.0,0.0,0.0,0.0,0.0,0.0,0.0,0.0,-3.6797,-3.8311,-3.9123,-3.9242,-3.9478,-4.0138,-4.0882,-4.1373,-4.1441,-4.2033,-4.2489,-4.2658,-4.3301,-4.3724,-4.3792,0.0,0.0,0.0,0.0,-4.8667,-4.8817,-4.9392,-4.9785,-4.9983,-5.0537,-5.0857,-5.093,-5.0839,-5.0802,-5.0802,-5.0802,-5.0802,-5.0747,-5.0013,-4.9719,-4.9627,-4.8673,-4.8306,-4.8214,-4.7517,-4.726,-4.715,-0.6811,-0.7064,-0.7287,-0.756,-0.7635,-0.7709,-0.787,-0.9037,-1.0354,-1.1625,-1.366,-1.5485,-1.6756,-1.7608,-1.8268,-1.8672,-1.9247,-2.0078,-2.1309,-2.2524,-2.3566,-2.4497,-2.5782,-2.7131,-2.8501,-2.9279,-3.0091,-3.0987,-3.0987,-3.1055,-3.119,-3.119,-3.1512,-3.211,-3.211,-3.2408,-3.2983,-3.2983,-3.2544,-3.185,-3.185,-3.0615,-2.8653,-2.774,-2.7046,-2.6469,-2.5586,-2.4802,-2.4206,-2.4171,-2.3621,-2.2929,-2.2453,0.0,0.0,0.0,0.0,0.0,0.0,0.0,0.0,0.0,0.0,0.0,0.0,0.0,0.0,0.0,0.0,0.0,0.0,0.0,0.0,-3.6526,-3.7933,-3.9242,-4.0595,-4.0781,-4.0832,-4.0967,-4.1644,-4.232,-4.2929,-4.3115,-4.3707,-4.4959,-4.5179,-4.5517,-4.6109,-4.6571,-4.6959,-4.7501,-4.7731,-4.8414,-4.9503,-4.964,-5.0315,-5.1535,0.0,0.0,-5.1738,-5.1096,-5.0802,-5.0802,-5.0802,-5.0802,-5.0784,-5.0637,-5.0563,-5.0417,-4.8893,-4.8306,-4.8288,-4.8141,-4.8086,-4.8049,-0.6655,-0.6911,-0.7128,-0.7363,-0.7514,-0.7665,-0.787,-0.9037,-1.0234,-1.1191,-1.3062,-1.4677,-1.5636,-1.6353,-1.6742,-1.6742,-1.7425,0.0,0.0,-2.247,-2.3582,-2.4757,-2.6386,-2.7807,-2.8958,-2.9719,-3.0463,-3.119,-3.119,-3.119,-3.1207,-3.1562,-3.1935,-3.2347,-3.2679,-3.3051,-3.3406,-3.3406,-3.3186,-3.2814,-3.2425,-3.1653,-3.0552,-2.9397,-2.8501,-2.774,-2.6979,-2.6234,-2.5556,-2.5371,-2.4769,-2.4144,-2.4076,-2.2962,-2.1655,0.0,0.0,0.0,0.0,0.0,0.0,0.0,0.0,0.0,0.0,0.0,0.0,0.0,0.0,-3.1952,-3.3301,0.0,-3.6835,-3.8884,-3.9729,-4.0493,-4.1593,-4.2066,-4.2168,-4.1796,-4.2405,-4.3014,-4.3386,-4.4113,-4.4874,-4.5652,-4.6041,-4.6413,-4.6769,-4.7141,-4.7505,-4.7803,-4.8162,-4.8643,-4.9362,-4.9661,-5.0214,-5.1021,-5.1294,-5.1679,-5.2043,-5.2035,-5.2013,-5.2013,-5.2013,-5.2013,-5.1977,-5.1573,-5.1151,-5.0729,-4.9884,-4.9315,-4.8893,-4.8471,-4.8306,-4.8306,-0.6512,-0.6723,-0.6927,-0.7162,-0.7379,-0.7605,-0.787,-0.8934,-0.9965,-1.0693,-1.2306,-1.372,-1.4513,-1.5109,-1.5304,-1.5034,-1.6047,0.0,0.0,-2.2102,-2.3407,-2.4814,-2.6814,-2.8171,-2.8794,-2.9816,-3.056,-3.1015,-3.1151,-3.1258,-3.141,-3.2002,-3.2425,-3.273,-3.3355,-3.3694,-3.3846,-3.3846,-3.3744,-3.3558,-3.2797,-3.2408,-3.2138,-3.0818,-2.9854,-2.9093,-2.8332,-2.7469,-2.6607,-2.6015,-2.5321,-2.4757,-2.5026,-2.4259,-2.3271,-2.3353,-2.2293,0.0,0.0,0.0,0.0,0.0,0.0,0.0,0.0,0.0,-3.0384,-3.2002,-3.3428,-3.4857,-3.638,-3.746,-3.8772,-4.0866,-4.1322,-4.1677,-4.2405,-4.3031,-4.325,-4.2794,-4.3267,-4.3707,-4.3842,-4.4976,-4.5821,-4.6126,-4.6684,-4.7073,-4.7208,-4.78,-4.8122,-4.8122,-4.8697,-4.9046,-4.9212,-4.9879,-5.0297,-5.0445,-5.1692,-5.2317,-5.2317,-5.2937,-5.3206,-5.3206,-5.3206,-5.3206,-5.317,-5.2509,-5.1848,-5.1261,-5.1096,-5.0637,-4.9939,-4.9095,-4.8802,-4.8765,-0.6512,-0.6616,-0.6744,-0.713,-0.7225,-0.7394,-0.7827,-0.8529,-0.9443,-1.0633,-1.1521,-1.2508,-1.378,-1.3989,-1.4468,-1.5589,-1.7194,0.0,-2.0639,-2.2185,-2.367,-2.5067,-2.7098,-2.8169,-2.819,-3.0096,-3.0834,-3.0393,-3.0935,-3.1529,-3.2195,-3.2239,-3.2983,-3.4252,-3.4336,-3.4742,-3.5368,-3.5368,-3.4979,-3.4303,-3.3575,-3.2882,-3.2188,-3.1376,-3.0615,-2.9888,-2.9127,-2.7926,-2.6674,-2.659,-2.6082,-2.5473,-2.5505,-2.5418,-2.5164,-2.4547,0.0,-2.2411,-2.3689,-2.5113,-2.6775,-2.8859,-2.9725,-3.119,0.0,0.0,-3.4826,-3.6735,-3.7793,-3.8438,-3.8662,-3.9799,-4.0866,-4.1153,-4.1745,-4.2422,-4.3183,-4.3369,-4.3639,-4.4248,-4.4401,-4.4705,-4.5382,-4.5602,-4.6244,-4.7581,-4.775,-4.8071,-4.8731,-4.8832,-4.8883,-4.8883,-4.8968,-4.9316,-4.9879,-5.0608,-5.1292,-5.1886,-5.2662,-5.306,-5.3103,-5.3164,-5.3206,-5.3206,-5.3206,-5.3206,-5.3206,-5.3115,-5.3023,-5.2876,-5.2142,-5.1793,-5.1628,-5.082,-5.0527,-5.0417,-0.6512,-0.6599,-0.6689,-0.698,-0.7114,-0.7318,-0.7679,-0.8392,-0.9218,-1.0159,-1.0832,-1.1595,-1.2538,-1.2643,-1.3181,-1.4513,-1.6031,-1.7818,-1.9959,-2.175,-2.3305,-2.4689,-2.6981,-2.8174,-2.8174,-3.0163,-3.0878,-3.0293,-3.0559,-3.0849,-3.1166,-3.2017,-3.2923,-3.3897,-3.4759,-3.5318,-3.5622,-3.5622,-3.5436,-3.5047,-3.388,-3.322,-3.2763,-3.1173,-3.0108,-2.9364,-2.8586,-2.7604,0.0,0.0,-2.5203,-2.4949,-2.4949,-2.4661,-2.434,-2.4441,-2.4374,0.0,-2.7638,-2.8839,-2.9753,0.0,-3.3107,-3.4602,-3.6226,-3.661,-3.7041,-3.8292,-3.9123,-3.9631,-3.9631,-4.0493,-4.1339,0.0,-4.2455,-4.3217,-4.3995,-4.3707,-4.3538,-4.3859,-4.391,-4.4384,-4.5585,-4.6092,-4.6769,-4.7834,-4.8308,-4.868,-4.8984,-4.9001,-4.9001,-4.9001,-4.9001,-4.9152,-4.9419,-4.9722,-4.9993,-5.0297,-5.0981,-5.1562,-5.1988,-5.2399,-5.2769,-5.3206,-5.3206,-5.3206,-5.3206,-5.3206,-5.3206,-5.3188,-5.2839,-5.2711,-5.2546,-5.1279,-5.0802,-5.0747,-0.6512,-0.6651,-0.6723,-0.6874,-0.7141,-0.7379,-0.756,-0.8182,-0.8919,-0.9785,-1.0279,-1.0877,-1.1715,-1.1805,-1.2389,-1.3809,-1.5089,-1.6863,-1.9381,-2.1063,-2.2586,-2.4048,-2.6278,-2.763,-2.7945,-2.9932,-3.074,-3.0293,-3.0293,-3.0392,-3.0606,-3.1527,-3.2298,-3.2977,-3.4029,-3.4514,-3.4514,-3.4514,-3.4605,-3.4639,-3.3362,-3.2841,-3.2577,-3.0565,-2.9194,-2.8281,-2.7723,-2.6894,0.0,0.0,-2.434,-2.4235,-2.4455,-2.412,-2.3917,-2.5067,-2.6234,-2.7655,-2.9956,0.0,0.0,-3.3964,-3.5876,-3.7297,-3.6941,-3.7719,-3.865,-3.9191,-3.9715,-4.007,-4.007,-4.0696,-4.1441,-4.2168,-4.2929,-4.369,-4.4468,-4.391,-4.3504,-4.3707,-4.3555,-4.4028,-4.5568,-4.6177,-4.6887,-4.7851,-4.8409,-4.8798,-4.8984,-4.9001,-4.9086,-4.9306,-4.9306,-4.9407,-4.961,-4.9841,-4.9947,-4.9947,-5.0616,-5.1312,-5.2052,-5.2498,-5.3034,-5.3537,-5.3316,-5.3206,-5.3206,-5.3206,-5.3206,-5.3206,-5.3206,-5.3206,-5.3078,-5.1903,-5.1463,-5.1444,-0.6512,-0.6757,-0.6891,-0.6908,-0.7282,-0.759,-0.7605,-0.7783,-0.8409,-0.9725,-0.992,-1.0413,-1.1655,-1.1805,-1.247,-1.4148,-1.5221,-1.6789,-1.9067,-2.0192,-2.1561,-2.3351,-2.4797,-2.6136,-2.732,-2.9286,-3.0293,-3.0293,-3.0293,-3.0655,-3.1358,-3.0797,-3.0971,-3.1646,-3.1678,-3.1694,-3.1694,-3.1694,-3.2087,-3.2541,-3.1781,-3.1383,-3.1089,-2.9583,-2.8078,-2.6759,-2.6742,0.0,0.0,-2.4523,-2.4002,-2.3562,-2.4255,-2.4489,0.0,-2.7063,-2.9279,0.0,0.0,0.0,-3.4759,-3.6299,-3.7804,-3.9106,-3.9783,-3.9969,-4.002,-4.0037,-4.0054,-4.007,-4.007,-4.0696,-4.1441,-4.2168,-4.2929,-4.369,-4.4468,-4.391,-4.369,-4.4451,-4.3876,-4.4028,-4.5568,-4.572,-4.6346,-4.7817,-4.7936,-4.8257,-4.8968,-4.9001,-4.9323,-5.0033,-5.005,-5.0405,-5.115,-5.1819,-5.2208,-5.2208,-5.2892,-5.362,-5.4391,-5.4346,-5.4363,-5.4326,-5.3555,-5.3206,-5.3206,-5.3206,-5.3206,-5.3206,-5.3206,-5.3206,-5.3206,-5.317,-5.3133,-5.3023,-0.6512,-0.6757,-0.6908,-0.6908,-0.7282,-0.7605,-0.7605,-0.7768,-0.8379,-0.9725,-1.0638,0.0,0.0,0.0,0.0,0.0,-1.4438,-1.6007,-1.8072,-1.9356,-2.0693,-2.2212,-2.3912,-2.502,-2.5444,-2.7387,-2.8605,-2.9032,-2.8642,-2.901,-3.0073,-2.9943,-3.0228,-3.0892,-3.1373,-3.1835,-3.2207,-3.2207,-3.2541,-3.3017,-3.1774,-3.1234,-3.1038,-2.955,-2.7723,-2.5981,0.0,0.0,0.0,-2.3207,-2.2885,-2.2716,-2.297,0.0,0.0,-2.6843,0.0,-3.0903,0.0,0.0,-3.6366,-3.7872,-3.8988,-3.9766,-4.002,-4.007,-4.007,-4.007,-3.9698,-3.9512,-3.9986,-4.029,-4.0865,-4.2083,-4.2929,-4.369,-4.4468,-4.435,-4.4096,-4.3842,-4.4045,0.0,-4.4198,0.0,0.0,-4.78,-4.7919,-4.8443,-4.9661,-4.9729,-5.0067,-5.0811,-5.0828,-5.0963,-5.1217,-5.1439,-5.1549,-5.1612,-5.232,-5.277,-5.3092,-5.4044,-5.4459,-5.447,-5.4133,-5.4014,-5.3959,-5.3427,-5.3206,-5.3206,-5.3206,-5.3206,-5.3206,-5.3206,-5.3206,-5.317,-0.6512,-0.6811,-0.7012,-0.7012,-0.7393,0.0,0.0,0.0,0.0,0.0,0.0,0.0,0.0,0.0,0.0,0.0,0.0,-1.5482,-1.7091,-1.832,-1.9585,-2.0917,-2.2132,-2.3226,-2.4153,-2.5417,-2.6454,-2.7322,-2.6734,-2.698,-2.8025,-2.7891,-2.8138,-2.8779,-2.9234,-2.9674,-3.0028,-3.0226,-3.0686,-3.1116,-2.9919,-2.9499,-2.9431,-2.7784,-2.6202,0.0,0.0,0.0,-2.2936,-2.2462,-2.231,0.0,0.0,0.0,0.0,0.0,-3.0091,-3.2307,-3.525,-3.6603,-3.7533,-3.9005,-3.9732,-4.007,-4.007,-4.007,-4.0003,-3.9749,-3.9106,-3.8751,-3.9225,-3.9073,-3.9563,-4.1576,-4.254,-4.347,-4.4807,-4.4976,-4.4891,-4.4654,-4.484,-4.4891,0.0,0.0,0.0,-4.7445,-4.7767,-4.8545,-5.0016,-5.0084,-5.0557,-5.1572,-5.1606,-5.1742,-5.2029,-5.2029,-5.2029,-5.2029,-5.274,-5.3134,-5.3117,-5.4081,-5.4504,-5.4468,-5.4146,-5.3849,-5.3606,-5.3299,-5.2917,-5.2463,-5.2725,-5.2662,-5.2463,-5.2463,-5.2463,-5.2527,-0.6512,-0.6917,-0.7195,0.0,0.0,0.0,0.0,0.0,0.0,0.0,0.0,0.0,0.0,0.0,0.0,0.0,0.0,0.0,-1.6154,-1.7091,0.0,-1.9525,-1.9645,-2.084,-2.3366,-2.3475,-2.4106,-2.5309,-2.4705,-2.4782,-2.545,-2.4805,-2.4911,-2.551,-2.551,-2.551,-2.5603,-2.6106,-2.6647,-2.716,-2.6511,-2.6393,-2.6371,-2.4647,0.0,0.0,0.0,0.0,0.0,0.0,0.0,0.0,0.0,0.0,0.0,0.0,0.0,-3.4945,-3.6434,-3.7415,-3.8345,-3.9732,-4.007,-4.007,-4.007,-4.0054,-3.98,-3.9039,-3.8261,-3.7719,-3.7686,0.0,-3.7669,-4.0612,-4.1762,-4.3098,-4.5382,-4.5737,-4.6024,0.0,0.0,0.0,0.0,0.0,0.0,-4.6955,0.0,-4.8629,-5.0118,-5.0202,-5.0862,-5.2317,-5.2367,-5.2739,-5.3501,-5.3501,-5.3501,-5.3501,-5.4218,-5.4527,-5.4572,-5.4489,-5.4553,-5.4535,-5.3739,-5.3051,-5.2484,-5.3041,-5.2476,-5.1294,-5.1874,-5.171,-5.1138,-5.1086,-5.1086,-5.1292,0.0,0.0,0.0,0.0,0.0,0.0,0.0,0.0,0.0,0.0,0.0,0.0,0.0,0.0,0.0,0.0,0.0,0.0,-1.5083,-1.5857,0.0,0.0,-1.9166,-2.0023,-2.0667,-2.1682,-2.2816,-2.4074,-2.3437,-2.3707,-2.4751,-2.4137,-2.3954,-2.4103,-2.4103,-2.4351,-2.4764,-2.4932,-2.5327,-2.5841,0.0,-2.516,-2.4931,0.0,0.0,0.0,0.0,0.0,0.0,0.0,0.0,0.0,0.0,0.0,-3.114,0.0,0.0,-3.64,-3.7364,-3.8548,-3.9614,-3.9986,-4.007,-4.007,-4.007,-3.9648,-3.8903,-3.7618,-3.6282,-3.5199,-3.4658,0.0,0.0,-3.9157,-4.1085,0.0,-4.5382,-4.6177,0.0,-4.6769,0.0,-4.7428,-4.7614,-4.8122,0.0,0.0,-4.8917,-4.961,-5.1623,-5.1742,-5.2181,-5.3162,-5.3196,-5.3298,-5.3501,-5.3501,-5.3501,-5.3501,-5.3668,-5.3766,-5.3832,-5.4337,-5.4846,-5.537,-5.5187,-5.527,-5.5556,-5.451,-5.389,-5.3436,-5.2506,-5.2,-5.179,-5.1292,-5.1086,-5.1138,0.0,0.0,0.0,0.0,0.0,0.0,0.0,0.0,0.0,0.0,0.0,0.0,0.0,0.0,0.0,0.0,0.0,0.0,0.0,-1.5004,-1.5919,-1.7204,-1.773,-1.8238,-1.8807,-1.957,-2.0291,-2.1003,0.0,0.0,-2.1964,-2.1898,-2.2039,-2.2353,-2.2637,-2.2964,-2.3259,-2.3482,0.0,0.0,0.0,0.0,0.0,0.0,0.0,0.0,0.0,0.0,0.0,0.0,0.0,-2.9431,-3.0192,-3.1664,-3.344,-3.4945,0.0,-3.7499,-3.8582,-3.9462,-4.007,-4.007,-4.007,-3.9817,-3.8853,-3.8311,-3.7313,-3.4844,-3.3643,0.0,-3.1664,-3.3203,0.0,0.0,0.0,0.0,-4.5382,-4.6616,-4.7394,0.0,-4.8426,0.0,-4.8883,-4.9543,-5.027,0.0,-5.0388,-5.0659,-5.2215,-5.23,-5.2672,-5.3484,-5.3501,-5.3501,-5.3501,-5.3501,-5.3501,-5.3501,-5.3501,-5.3501,-5.3501,-5.3946,-5.4328,-5.4757,0.0,-5.5294,-5.5341,-5.5075,-5.4389,-5.3381,-5.2507,-5.1965,-5.1544,-5.0554,-5.0352,-5.0554,0.0,0.0,0.0,0.0,0.0,0.0,0.0,0.0,0.0,0.0,0.0,0.0,0.0,0.0,0.0,0.0,0.0,0.0,0.0,0.0,-1.5336,-1.6532,-1.6159,-1.6428,-1.7533,-1.7637,-1.7697,0.0,0.0,0.0,0.0,0.0,0.0,0.0,0.0,0.0,0.0,0.0,0.0,0.0,0.0,0.0,0.0,0.0,0.0,0.0,0.0,0.0,0.0,0.0,-3.0159,-3.1799,-3.273,-3.4421,-3.6349,-3.777,-3.8193,-3.8464,-3.9732,-4.007,-4.007,-4.007,-4.0003,-3.9377,-3.7263,-3.6552,-3.5301,-3.1647,0.0,-3.0176,-2.8789,-3.097,-3.3525,-3.5199,0.0,-4.276,-4.5348,-4.6819,-4.8003,-4.9018,-4.9712,-5.0168,-5.0355,-5.098,-5.1674,-5.2401,-5.1877,-5.1792,-5.2435,-5.2469,-5.279,-5.3484,-5.3501,-5.3501,-5.3501,-5.3501,-5.3501,-5.3501,-5.3501,-5.3501,-5.3501,-5.3501,-5.3551,-5.3668,-5.431,-5.4269,-5.3903,-5.508,-5.4345,-5.2414,-5.2254,-5.167,-5.0787,-4.9462,-4.9359,-4.9763,0.0,0.0,0.0,0.0,0.0,0.0,0.0,0.0,0.0,0.0,-1.2493,-1.1805,0.0,0.0,0.0,0.0,0.0,0.0,0.0,0.0,0.0,-1.5904,-1.6338,-1.6652,-1.6876,0.0,0.0,0.0,0.0,0.0,0.0,0.0,0.0,0.0,0.0,0.0,0.0,0.0,0.0,0.0,0.0,0.0,0.0,0.0,0.0,0.0,0.0,0.0,0.0,0.0,-3.119,-3.4269,-3.6299,-3.7618,-3.8582,-3.9445,-3.9698,-3.9749,-4.0003,-4.007,-4.007,-4.007,-3.9631,-3.8751,-3.7144,-3.5334,0.0,0.0,-2.8366,-2.7215,-2.6353,-2.8653,-3.1562,-3.4252,0.0,0.0,0.0,0.0,-4.7039,0.0,0.0,0.0,0.0,0.0,0.0,0.0,0.0,-5.3162,-5.3298,-5.3298,-5.3365,-5.3501,-5.3501,-5.3501,-5.3501,-5.3501,-5.3501,-5.3501,-5.3501,-5.3501,-5.3501,-5.3501,-5.3832,-5.4437,-5.4527,0.0,-5.5305,-5.4894,-5.4151,-5.3085,-5.1878,-5.0898,-5.0072,-4.9316,-4.9046,-4.9168,0.0,0.0,0.0,0.0,0.0,0.0,0.0,-1.1999,-1.3316,-1.4663,-1.4274,-1.3625,-1.2927,-1.2224,0.0,0.0,0.0,0.0,0.0,0.0,0.0,0.0,0.0,0.0,0.0,0.0,0.0,0.0,0.0,0.0,0.0,0.0,0.0,0.0,0.0,0.0,0.0,0.0,0.0,0.0,0.0,0.0,0.0,0.0,0.0,0.0,0.0,0.0,0.0,0.0,-2.9854,-3.3305,-3.6366,-3.8091,-3.9056,-3.9411,-3.9783,-4.007,-4.007,-4.007,-4.007,-4.007,-3.9529,-3.8193,-3.5131,0.0,0.0,0.0,-2.5795,-2.5203,-2.4103,0.0,0.0,0.0,0.0,0.0,0.0,0.0,0.0,0.0,0.0,0.0,0.0,0.0,0.0,0.0,0.0,-5.3501,-5.3501,-5.3501,-5.3501,-5.3501,-5.3501,-5.3501,-5.3501,-5.3501,-5.3501,-5.3501,-5.3501,-5.3501,-5.3501,-5.3501,-5.3668,-5.4042,-5.4419,-5.4818,-5.5126,-5.5147,-5.4467,-5.3315,-5.2253,-5.1285,-5.0445,-4.9359,-4.9212,-4.9462,0.0,0.0,0.0,0.0,0.0,0.0,0.0,-1.2972,-1.4498,-1.5815,-1.5888,-1.5409,-1.4333,-1.3032,-1.2141,0.0,0.0,0.0,0.0,0.0,0.0,0.0,0.0,0.0,0.0,0.0,0.0,0.0,0.0,0.0,0.0,0.0,0.0,0.0,0.0,0.0,0.0,0.0,0.0,0.0,0.0,0.0,0.0,0.0,0.0,0.0,0.0,0.0,0.0,0.0,-2.7704,-3.0598,-3.4032,-3.6671,-3.8548,-3.8717,-3.9276,-3.9884,-4.0037,-4.007,-4.007,-4.007,-3.9292,-3.7415,-3.3237,-3.1343,0.0,0.0,-2.3731,-2.3714,-2.2733,0.0,0.0,0.0,0.0,0.0,0.0,0.0,0.0,0.0,0.0,0.0,0.0,0.0,0.0,0.0,0.0,-5.3501,-5.3501,-5.3501,-5.3501,-5.3501,-5.3501,-5.3501,-5.3501,-5.3501,-5.3501,-5.3501,-5.3501,-5.3501,-5.3501,-5.3501,-5.3501,-5.3501,-5.4106,-5.4374,-5.4437,-5.4999,-5.4308,-5.2849,-5.232,-5.1558,-5.0517,-4.9419,-4.9299,-4.9722,0.0,0.0,0.0,0.0,0.0,0.0,0.0,-1.3062,-1.5171,-1.6458,-1.6144,-1.5754,-1.5634,-1.4408,-1.3217,0.0,0.0,0.0,0.0,0.0,0.0,0.0,0.0,0.0,0.0,0.0,0.0,0.0,0.0,0.0,0.0,0.0,0.0,0.0,0.0,0.0,0.0,0.0,0.0,0.0,0.0,0.0,0.0,0.0,0.0,0.0,0.0,0.0,0.0,0.0,0.0,-2.6539,-2.8941,-3.3051,-3.711,-3.7804,0.0,0.0,-3.9901,-4.007,-4.007,-4.007,-3.8514,-3.6163,-3.3034,0.0,0.0,-2.4052,-2.2919,-2.2682,-2.319,-2.4171,0.0,0.0,0.0,0.0,0.0,0.0,0.0,0.0,0.0,0.0,0.0,0.0,0.0,0.0,0.0,-5.3501,-5.3501,-5.3501,-5.3501,-5.3501,-5.3501,-5.3501,-5.3501,-5.3501,-5.3501,-5.3501,-5.3501,-5.3501,-5.3501,-5.3501,-5.3501,-5.3501,-5.3551,-5.3618,0.0,-5.3668,-5.2816,-5.1376,-5.1329,-5.0413,-4.9152,-4.9063,-4.9063,-4.9107,0.0,0.0,0.0,0.0,0.0,0.0,-1.1251,-1.3002,-1.4812,-1.6488,-1.6488,-1.6204,-1.5844,-1.4947,-1.3805,0.0,0.0,0.0,0.0,0.0,0.0,0.0,0.0,0.0,0.0,0.0,0.0,0.0,0.0,0.0,0.0,0.0,0.0,0.0,0.0,0.0,0.0,0.0,0.0,0.0,0.0,0.0,0.0,0.0,0.0,0.0,0.0,0.0,0.0,0.0,0.0,0.0,-2.5998,-2.8619,0.0,0.0,-3.6366,-3.7922,-3.9106,-3.9749,-4.007,-4.007,-3.8413,-3.5876,-3.2425,0.0,-2.6826,-2.3444,-2.2513,-2.2395,-2.2682,-2.3342,-2.4611,0.0,-2.8264,-3.07,0.0,0.0,0.0,0.0,0.0,0.0,0.0,0.0,0.0,0.0,0.0,-5.3501,-5.3501,-5.3501,-5.3501,-5.3501,-5.3501,-5.3501,-5.3501,-5.3501,-5.3501,-5.3501,-5.3501,-5.3501,-5.3501,-5.3501,-5.3501,-5.3501,-5.3501,-5.3501,0.0,-5.2993,-5.2164,-5.1166,-5.071,-4.9915,-4.9001,-4.9001,-4.9001,-4.9001,0.0,0.0,0.0,0.0,0.0,-1.0024,-1.1311,-1.2643,-1.4154,-1.5905,-1.6218,-1.6067,-1.5559,-1.4788,-1.3828,-1.2602,0.0,0.0,0.0,0.0,0.0,0.0,0.0,0.0,0.0,0.0,0.0,0.0,0.0,0.0,0.0,0.0,0.0,0.0,0.0,0.0,0.0,0.0,0.0,0.0,0.0,0.0,0.0,0.0,0.0,0.0,0.0,0.0,0.0,0.0,0.0,0.0,0.0,0.0,0.0,0.0,-3.4201,-3.6214,-3.8142,-3.9208,-3.9749,-3.9749,-3.8091,-3.547,0.0,0.0,-2.6505,-2.3021,-2.231,-2.231,-2.231,-2.2733,-2.363,0.0,-2.6404,-2.867,-3.3406,0.0,0.0,0.0,0.0,0.0,0.0,0.0,0.0,0.0,0.0,-5.3501,-5.3501,-5.3501,-5.3501,-5.3501,-5.3501,-5.3501,-5.3501,-5.3501,-5.3501,-5.3501,-5.3501,-5.3501,-5.3501,-5.3501,-5.3501,-5.3501,-5.3501,-5.3365,0.0,-5.2536,-5.1742,-5.0828,-5.0287,-4.9644,-4.9001,-4.9001,-4.9001,-4.9001,0.0,0.0,0.0,0.0,0.0,0.0,-1.0618,-1.1939,-1.3295,-1.4633,-1.5049,-1.5113,-1.4824,-1.3846,-1.3204,-1.3173,0.0,0.0,0.0,0.0,0.0,0.0,0.0,0.0,0.0,0.0,-1.7425,-1.7682,-1.8358,-1.8687,0.0,0.0,0.0,0.0,0.0,0.0,0.0,0.0,0.0,0.0,0.0,0.0,0.0,0.0,0.0,0.0,0.0,0.0,0.0,0.0,0.0,0.0,0.0,0.0,0.0,0.0,-3.2273,-3.41,-3.711,-3.8447,-3.9005,-3.9005,-3.7313,-3.4658,0.0,-2.8349,-2.5862,-2.2919,-2.231,-2.231,-2.231,-2.231,-2.3038,-2.5253,-2.6809,-2.9597,-3.4861,0.0,0.0,0.0,0.0,0.0,0.0,0.0,0.0,0.0,0.0,0.0,-5.3501,-5.3501,-5.3501,-5.3501,-5.3501,-5.3501,-5.3501,-5.3501,-5.3501,-5.3501,-5.3501,-5.3501,-5.3501,-5.3501,-5.3501,-5.3501,-5.3501,-5.3061,0.0,-5.23,-5.1437,-5.0101,-5.0084,-4.9644,-4.9001,-4.9001,-4.9001,-4.9001,0.0,0.0,0.0,0.0,0.0,0.0,0.0,-1.0907,-1.191,-1.3265,-1.3503,-1.3709,-1.4064,-1.3413,-1.294,-1.294,0.0,0.0,0.0,0.0,0.0,0.0,0.0,0.0,0.0,-1.6518,-1.715,-1.7697,-1.8705,-1.9269,-1.9361,-1.9238,0.0,0.0,0.0,0.0,0.0,0.0,0.0,0.0,0.0,0.0,0.0,0.0,0.0,0.0,0.0,0.0,0.0,0.0,0.0,0.0,0.0,0.0,0.0,-2.5828,-2.8399,-3.07,-3.2171,-3.3474,-3.4286,-3.3795,-3.2747,-3.114,-2.8399,-2.6826,-2.5253,-2.2818,-2.231,-2.231,-2.231,-2.231,-2.3359,-2.659,-2.7485,0.0,0.0,0.0,0.0,0.0,0.0,0.0,0.0,0.0,0.0,0.0,-5.3501,-5.3501,-5.3501,-5.3501,-5.3501,-5.3501,-5.3501,-5.3501,-5.3501,-5.3501,-5.3501,-5.3501,-5.3501,-5.3501,-5.3501,-5.3501,-5.3501,-5.3467,-5.2926,-5.2536,-5.2215,-5.12,-5.0507,-5.0033,-4.9543,-4.9204,-4.9001,-4.9001,-4.9001,-4.9001,0.0,0.0,0.0,0.0,0.0,0.0,0.0,-0.983,-1.0563,-1.1865,-1.2139,-1.2508,-1.334,-1.2901,-1.2644,-1.2786,0.0,0.0,0.0,0.0,0.0,0.0,0.0,0.0,-1.5983,-1.6458,-1.704,-1.7697,-1.8835,-1.9562,-1.9929,-1.9811,-1.9239,-1.8321,0.0,0.0,0.0,0.0,0.0,0.0,0.0,0.0,-1.9765,0.0,0.0,0.0,0.0,0.0,0.0,0.0,0.0,0.0,0.0,0.0,0.0,0.0,-2.5186,-2.7283,0.0,-3.0548,-3.136,-3.0903,-3.0226,-2.9093,-2.6793,-2.571,-2.4644,-2.2716,-2.231,-2.231,-2.231,-2.231,-2.3241,-2.6099,-2.7266,0.0,0.0,0.0,0.0,0.0,0.0,0.0,0.0,0.0,0.0,-5.3501,-5.3501,-5.3501,-5.3501,-5.3213,-5.3061,-5.3061,-5.3348,-5.3501,-5.3501,-5.3501,-5.3501,-5.3501,-5.3196,-5.3061,-5.3044,-5.2773,-5.2638,-5.2604,-5.2114,-5.1725,0.0,-5.0473,-4.9932,-4.9644,-4.9187,-4.9001,-4.9001,-4.9001,-4.9001,-4.9001,0.0,0.0,0.0,0.0,0.0,0.0,0.0,0.0,-0.9353,-1.0633,-1.1021,-1.1569,-1.2614,-1.2405,-1.2326,-1.2704,0.0,0.0,0.0,0.0,0.0,0.0,0.0,0.0,-1.6258,-1.6593,-1.7085,-1.7697,-1.8914,-1.9791,-2.0314,-2.0366,-2.004,-1.9355,-1.8275,-1.7593,0.0,0.0,0.0,0.0,0.0,-1.9814,0.0,0.0,0.0,0.0,0.0,0.0,0.0,0.0,0.0,0.0,0.0,0.0,0.0,0.0,0.0,0.0,0.0,-2.9059,-2.9617,-2.9567,-2.9059,-2.801,-2.5862,-2.4881,0.0,-2.2598,-2.231,-2.2361,-2.2513,-2.2462,-2.297,-2.4746,0.0,0.0,0.0,0.0,0.0,0.0,0.0,0.0,0.0,0.0,-5.3348,-5.3348,-5.3348,-5.3348,-5.3348,-5.2638,-5.2232,-5.2232,-5.2959,-5.3348,-5.3348,-5.3348,-5.3348,-5.3331,-5.2587,-5.2232,-5.2198,-5.1522,-5.1217,0.0,-5.115,-5.0727,-5.0084,-5.0033,-4.961,-4.9001,-4.9001,-4.9001,-4.9001,-4.9001,-4.9001,-4.9001,0.0,0.0,0.0,0.0,0.0,0.0,0.0,0.0,0.0,0.0,-1.0842,-1.1177,-1.1939,-1.196,-1.193,0.0,0.0,0.0,0.0,0.0,0.0,0.0,0.0,0.0,-1.5926,-1.6923,-1.7533,-1.7697,-1.9671,-2.0508,-2.0314,-2.0959,-2.0623,-1.9387,-1.8856,-1.7982,0.0,0.0,0.0,0.0,-2.0461,-2.0634,0.0,0.0,0.0,0.0,-1.9219,-1.9911,0.0,0.0,0.0,0.0,0.0,0.0,0.0,0.0,-2.2429,-2.275,-2.363,0.0,-2.4847,-2.4272,-2.4425,-2.4425,0.0,-2.3376,-2.3393,-2.2496,0.0,-2.2835,-2.4526,-2.39,-2.4746,-2.9651,0.0,0.0,0.0,0.0,0.0,0.0,0.0,0.0,0.0,0.0,-5.1758,-5.1758,-5.1758,-5.1758,-5.1758,-5.1572,-5.1471,-5.1471,-5.1657,-5.1758,-5.1758,-5.1758,-5.1758,-5.1758,-5.1555,-5.1471,-5.1471,-5.1302,-5.1217,-5.1183,-5.0608,-5.0253,-5.005,-4.9492,-4.9171,-4.9001,-4.9001,-4.9001,-4.9001,-4.9001,-4.9001,-4.9001,0.0,0.0,0.0,0.0,0.0,0.0,0.0,0.0,0.0,0.0,0.0,0.0,0.0,0.0,0.0,0.0,0.0,0.0,0.0,0.0,0.0,0.0,0.0,-1.6275,-1.6258,-1.6894,-1.7511,-1.8035,-1.9704,-2.0671,-2.0894,-2.1197,-2.0894,-2.0082,-1.924,-1.8359,0.0,0.0,0.0,0.0,-2.0394,0.0,0.0,0.0,0.0,0.0,-1.8524,-1.9143,0.0,-2.0676,-2.125,-2.1854,0.0,0.0,0.0,0.0,-2.231,-2.231,-2.231,-2.3088,-2.3799,-2.341,-2.3596,-2.3799,-2.3393,0.0,0.0,0.0,0.0,-2.2868,-2.4746,-2.4475,0.0,0.0,-3.1574,0.0,0.0,0.0,0.0,0.0,0.0,0.0,0.0,0.0,-5.1217,-5.1217,-5.1217,-5.1217,-5.1217,-5.0896,-5.071,-5.071,-5.0371,-5.0541,-5.1217,-5.1217,-5.1217,-5.1217,-5.0862,-5.071,-5.0676,-5.0355,-5.0202,-5.0185,-4.9763,-4.9593,-4.956,-4.9171,-4.9001,-4.9001,-4.9001,-4.9001,-4.9001,-4.9001,-4.9001,-4.9001,0.0,0.0,0.0,0.0,0.0,0.0,0.0,0.0,0.0,0.0,0.0,0.0,0.0,0.0,0.0,0.0,0.0,0.0,0.0,0.0,0.0,0.0,-1.6272,-1.6089,-1.6776,-1.6831,-1.7394,-1.8439,-1.9625,-2.0653,-2.1546,-2.1343,-2.1102,-2.0779,-1.9468,-1.8669,0.0,0.0,0.0,0.0,-2.0009,0.0,0.0,0.0,0.0,0.0,0.0,0.0,0.0,-2.0425,-2.1017,-2.1322,-2.1938,0.0,0.0,0.0,0.0,0.0,-2.2581,-2.3722,-2.477,-2.4425,-2.4492,-2.4659,-2.454,0.0,0.0,0.0,0.0,0.0,0.0,-2.531,0.0,0.0,0.0,0.0,0.0,0.0,0.0,0.0,0.0,0.0,0.0,-5.0507,-5.0879,-5.0879,-5.0879,-5.0879,-5.0879,-5.027,-4.9915,-4.9915,-4.9323,-4.961,-5.0862,-5.0879,-5.0879,-5.0879,-5.0236,-4.9915,-4.9898,-4.9289,-4.9001,-4.9001,0.0,0.0,-4.9001,-4.9001,-4.9001,-4.9001,-4.9001,-4.9001,-4.9001,-4.9001,-4.9001,-4.9001,0.0,0.0,0.0,0.0,0.0,0.0,0.0,0.0,0.0,0.0,0.0,0.0,0.0,0.0,0.0,0.0,0.0,0.0,0.0,0.0,0.0,-1.6443,-1.63,-1.6373,-1.6713,-1.7267,-1.7927,-1.8654,-2.0285,-2.1163,-2.1377,-2.202,-2.1562,-2.0123,-1.9569,-1.8781,-1.7973,-1.9041,0.0,-1.8115,0.0,0.0,0.0,0.0,0.0,0.0,0.0,0.0,0.0,-1.9164,-2.0111,-2.1221,-2.1339,0.0,0.0,0.0,0.0,0.0,-2.3816,-2.528,-2.5999,-2.4048,-2.4509,-2.527,-2.4659,0.0,0.0,0.0,0.0,0.0,0.0,-2.8848,-3.0291,0.0,0.0,0.0,0.0,0.0,0.0,0.0,0.0,0.0,0.0,-4.9272,-4.934,-4.934,-4.934,-4.934,-4.934,-4.9238,-4.9171,-4.9171,-4.9069,-4.912,-4.934,-4.934,-4.934,-4.934,-4.9221,-4.9171,-4.9171,-4.9052,-4.9001,-4.9001,0.0,-4.9001,-4.9001,-4.9001,-4.9001,-4.9001,-4.9001,-4.9001,-4.9001,-4.9001,-4.9001,-4.9001,0.0,0.0,0.0,0.0,0.0,0.0,0.0,0.0,0.0,0.0,0.0,0.0,0.0,0.0,0.0,0.0,0.0,0.0,0.0,0.0,-1.5728,-1.6797,-1.6615,-1.668,-1.7014,-1.7481,-1.8143,-1.9091,-2.0212,-2.0883,-2.1171,-2.1569,-2.0989,-1.9658,-1.929,-1.8877,-1.8414,-1.8742,-1.8778,-1.8724,0.0,0.0,0.0,0.0,0.0,0.0,0.0,0.0,0.0,0.0,-1.9638,-2.0636,-2.1042,0.0,0.0,0.0,0.0,0.0,-2.3122,-2.4708,-2.5894,-2.4895,-2.6089,-2.7303,-2.6624,-2.6129,0.0,0.0,0.0,0.0,0.0,0.0,-3.1657,-3.4643,0.0,-4.1318,-4.3439,-4.5115,-4.6876,0.0,0.0,-4.9001,-4.9001,-4.9001,-4.9001,-4.9001,-4.9001,-4.9001,-4.9001,-4.9001,-4.9001,-4.9001,-4.9001,-4.9001,-4.9001,-4.9001,-4.9001,-4.9001,-4.9001,-4.9001,-4.9001,-4.9001,-4.9001,-4.9001,0.0,-4.9001,-4.9001,-4.9001,-4.9001,-4.9001,-4.9001,-4.9001,-4.9001,-4.9001,-4.9001,-4.9001,0.0,0.0,0.0,0.0,0.0,0.0,0.0,0.0,0.0,0.0,0.0,0.0,0.0,0.0,0.0,0.0,0.0,0.0,0.0,-1.4349,-1.5204,-1.664,-1.6728,-1.7,-1.7608,-1.7814,-1.8434,-1.9469,-2.0169,-2.0819,-2.136,-2.1103,-2.0439,-1.94,-1.8973,-1.869,-1.8521,-1.8419,-1.8572,-1.89,0.0,0.0,0.0,0.0,0.0,0.0,0.0,0.0,0.0,0.0,0.0,0.0,0.0,0.0,0.0,-2.231,-2.231,-2.2395,-2.2733,-2.4048,-2.5464,-2.5868,-2.7324,-2.861,-2.8605,-2.7838,0.0,0.0,0.0,0.0,0.0,-3.1935,0.0,-3.6119,-3.9405,-4.2061,-4.3265,-4.5098,-4.6955,-4.8759,-4.9001,-4.9001,-4.9001,-4.9001,-4.9001,-4.9001,-4.9001,-4.9001,-4.9001,-4.9001,-4.9001,-4.9001,-4.9001,-4.9001,-4.9001,-4.9001,-4.9001,-4.9001,-4.9001,-4.9001,-4.9001,-4.9001,-4.9001,-4.9001,-4.9001,-4.9001,-4.9001,-4.9001,-4.9001,-4.9001,-4.9001,-4.9001,-4.9001,-4.9001,-4.9001,-4.9001,0.0,0.0,0.0,0.0,0.0,0.0,0.0,0.0,0.0,0.0,0.0,0.0,0.0,0.0,0.0,0.0,0.0,0.0,0.0,-1.352,-1.4199,-1.4956,-1.6099,-1.7279,-1.8572,-1.8612,-1.8991,-1.9687,-2.0722,-2.1663,-2.2474,-2.1456,-2.0453,-1.9475,-1.8762,-1.8054,-1.746,-1.8062,-1.7996,-1.7494,-1.8102,0.0,0.0,0.0,0.0,0.0,0.0,0.0,0.0,0.0,0.0,0.0,0.0,0.0,-2.231,-2.231,-2.231,-2.2598,-2.3951,-2.4497,-2.5007,-2.6454,-2.7038,-2.7735,-2.9528,-2.8944,0.0,-3.0497,0.0,0.0,0.0,-3.5479,0.0,0.0,0.0,-4.1678,-4.3859,0.0,-4.642,-4.8692,-4.9001,-4.9001,-4.9001,-4.9001,-4.9001,-4.9001,-4.9001,-4.9001,-4.9001,-4.9001,-4.9001,-4.9001,-4.9001,-4.9001,-4.9001,-4.9001,-4.9001,-4.9001,-4.9001,-4.9001,-4.9001,-4.9001,-4.9001,-4.9001,-4.9001,-4.9001,-4.9001,-4.9001,-4.9001,-4.9001,-4.9001,-4.9001,-4.9001,-4.9001,-4.9001,-4.9001,0.0,0.0,0.0,0.0,0.0,0.0,0.0,0.0,0.0,0.0,0.0,0.0,0.0,0.0,0.0,0.0,0.0,0.0,0.0,-1.3421,-1.4288,-1.5379,-1.6652,-1.7548,-1.8089,-1.8493,-1.914,-2.0054,-2.0474,-2.0858,-2.1161,-2.0726,-2.0161,-1.9443,-1.9402,-1.8995,-1.8282,-1.8344,-1.8344,-1.8289,-1.8074,-1.784,0.0,0.0,0.0,0.0,0.0,0.0,0.0,0.0,-1.9029,-1.9968,-1.9824,-2.094,-2.2226,-2.1752,-2.1938,-2.2429,-2.2987,-2.4481,-2.6043,-2.6678,-2.7676,0.0,0.0,-3.052,-3.1413,-3.3401,-3.4057,0.0,0.0,0.0,0.0,0.0,0.0,0.0,-4.3179,-4.4574,-4.6094,-4.8057,-4.8731,-4.9001,-4.9001,-4.9001,-4.9001,-4.9001,-4.9001,-4.9001,-4.9001,-4.9001,-4.9001,-4.9001,-4.9001,-4.9001,-4.9001,-4.9001,-4.9001,-4.9001,-4.9001,-4.9001,-4.9001,-4.9001,-4.9001,-4.9001,-4.9001,-4.9001,-4.9001,-4.9001,-4.9001,-4.9001,-4.9001,-4.9001,-4.9001,-4.9001,-4.9001,-4.9001,0.0,0.0,0.0,0.0,0.0,0.0,0.0,0.0,0.0,0.0,0.0,0.0,0.0,0.0,0.0,0.0,0.0,0.0,-1.2456,-1.3107,-1.3989,-1.5124,-1.6413,-1.7206,-1.7369,-1.8268,-1.9049,-1.9802,-2.0138,-2.0382,-2.0516,-2.0297,-1.9925,-1.9422,-1.9709,-1.9498,-1.8876,-1.866,-1.87,-1.886,-1.8352,-1.8014,0.0,0.0,0.0,0.0,0.0,0.0,0.0,0.0,-1.8826,-1.9655,-1.9621,-2.0703,-2.1904,-2.1617,-2.1945,-2.2434,-2.2668,-2.4099,-2.5788,-2.6888,0.0,0.0,-3.0837,-3.1728,-3.2871,-3.5278,-3.5968,-3.6137,-3.6137,0.0,0.0,0.0,-3.8667,0.0,0.0,0.0,-4.5293,-4.7315,-4.8003,-4.8409,-4.8646,-4.8663,-4.8748,-4.8984,-4.9001,-4.9001,-4.9001,-4.9001,-4.9001,-4.9001,-4.9001,-4.9001,-4.9001,-4.9001,-4.9001,-4.9001,-4.9001,-4.9001,-4.9001,-4.9001,-4.9001,-4.9001,-4.9001,-4.9001,-4.9001,-4.9001,-4.9001,-4.9001,-4.9001,-4.9001,-4.9001,-4.9001,-4.9001,-4.9001,0.0,0.0,0.0,0.0,0.0,0.0,0.0,0.0,0.0,0.0,0.0,0.0,0.0,0.0,0.0,0.0,0.0,0.0,-1.1805,-1.2441,-1.3092,-1.378,-1.5067,-1.6069,-1.6697,-1.7981,-1.8687,-1.8702,-1.9752,-2.055,-2.0975,-2.0318,-1.9782,-1.9419,-1.9475,-1.929,-1.8904,-1.8901,-1.891,-1.891,-1.8894,-1.8454,-1.7896,0.0,0.0,0.0,0.0,0.0,0.0,0.0,-1.8894,-1.9164,-2.0712,0.0,-2.1346,-2.209,-2.2445,-2.2752,-2.344,-2.3329,-2.383,0.0,0.0,0.0,-3.2364,-3.2394,-3.2512,-3.5818,-3.7075,-3.7575,-3.7575,0.0,0.0,-3.8627,-3.907,-4.0289,0.0,0.0,0.0,0.0,-4.6786,-4.709,-4.7834,-4.7902,-4.8206,-4.8934,-4.8984,-4.8984,-4.8984,-4.8984,-4.8984,-4.8984,-4.8984,-4.8984,-4.8984,-4.8984,-4.8984,-4.8984,-4.8984,-4.8984,-4.9001,-4.9001,-4.9001,-4.9001,-4.9001,-4.9001,-4.9001,-4.9001,-4.9001,-4.9001,-4.9001,-4.9001,-4.9001,-4.9001,-4.9001,-4.9001,0.0,0.0,0.0,0.0,0.0,0.0,0.0,0.0,0.0,0.0,0.0,0.0,0.0,0.0,0.0,0.0,0.0,0.0,-1.1805,-1.2441,-1.3092,-1.378,-1.5067,-1.5888,-1.6054,-1.6861,-1.7742,-1.8702,-1.9341,-1.9566,-1.9366,-1.9168,-1.9306,-1.9783,-2.03,-2.0121,-1.9356,-1.9554,-1.9547,-1.9301,-1.9,-1.8775,-1.8606,0.0,0.0,0.0,0.0,0.0,0.0,0.0,0.0,0.0,-1.9435,0.0,-2.1904,-2.16,-2.231,-2.3201,-2.3418,-2.4574,0.0,-2.8162,0.0,0.0,0.0,-3.4167,0.0,0.0,-3.8,-3.8039,-3.757,0.0,0.0,-3.8348,-3.8562,-3.9309,0.0,0.0,0.0,0.0,0.0,0.0,0.0,-4.7124,-4.7225,-4.7428,-4.7445,-4.7445,-4.7445,-4.7445,-4.7445,-4.7445,-4.7445,-4.7445,-4.7445,-4.7445,-4.7445,-4.7445,-4.7445,-4.8003,-4.9001,-4.9001,-4.9001,-4.9001,-4.9001,-4.9001,-4.9001,-4.9001,-4.9001,-4.9001,-4.9001,-4.9001,-4.9001,-4.9001,-4.9001,-4.9001,0.0,0.0,0.0,0.0,0.0,0.0,0.0,0.0,0.0,0.0,-1.1805,-1.1805,0.0,0.0,0.0,0.0,0.0,0.0,0.0,-1.2164,-1.2822,-1.3765,-1.4573,-1.5366,-1.6144,-1.6756,-1.7354,-1.7924,-1.8475,-1.87,-1.8702,-1.9043,-1.9445,-1.9855,-2.0799,-2.0643,-1.9642,-1.9586,-1.9631,-1.966,-1.9303,-1.905,-1.8927,0.0,0.0,0.0,0.0,0.0,0.0,0.0,0.0,0.0,-1.8809,0.0,-2.1015,-2.1245,-2.2006,-2.3028,-2.4237,-2.5647,0.0,-2.9752,-3.1443,-3.3006,-3.4805,0.0,0.0,0.0,0.0,-3.8272,-3.7868,-3.7808,0.0,-3.8317,-3.8616,-3.9254,-4.0492,0.0,0.0,0.0,0.0,0.0,0.0,0.0,0.0,0.0,-4.6786,-4.6786,-4.6786,-4.6786,-4.6786,-4.6786,-4.6786,-4.6786,-4.6786,-4.6786,-4.6786,-4.6786,-4.6786,-4.7259,-4.8139,-4.8443,-4.8731,-4.9001,-4.9001,-4.9001,-4.9001,-4.9001,-4.9001,-4.9001,-4.9001,-4.9001,-4.9001,-4.9001,-4.9001,-4.9001,0.0,0.0,-0.7732,-0.8868,0.0,0.0,0.0,0.0,0.0,-1.1805,-1.1805,-1.1805,0.0,0.0,0.0,-1.1805,0.0,0.0,0.0,-1.185,-1.2463,-1.375,-1.3964,-1.4919,-1.6756,-1.7324,-1.7309,-1.6712,-1.7309,-1.7936,-1.8612,-1.9421,-1.9796,-1.9803,-2.0911,-2.0789,-1.9778,-1.9132,-1.9247,-1.9833,-1.9541,-1.9219,-1.8961,-1.963,0.0,0.0,0.0,0.0,0.0,0.0,0.0,0.0,-1.8674,-1.8944,-1.9327,-2.0994,-2.1649,-2.2505,-2.5439,0.0,0.0,0.0,0.0,0.0,-3.5923,0.0,-3.7524,-3.8242,0.0,-3.8482,-3.8482,-3.8482,-3.8482,-3.8482,-3.9005,-3.9681,-4.05,0.0,0.0,0.0,0.0,0.0,0.0,0.0,0.0,0.0,0.0,-4.6583,-4.6583,-4.6583,-4.6583,-4.6583,-4.6583,-4.6583,-4.6583,-4.6583,-4.6583,-4.6583,-4.6583,-4.6616,-4.6718,-4.7479,-4.8206,-4.89,-4.89,-4.8951,-4.9001,-4.9001,-4.9001,-4.9001,-4.9001,-4.9001,-4.9001,-4.9001,-4.9001,-4.9001,0.0,0.0,-0.9053,-1.0184,0.0,0.0,0.0,0.0,-1.1805,-1.1805,-1.1805,-1.1805,-1.1805,-1.1805,0.0,-1.1805,-1.1805,0.0,0.0,-1.2284,-1.2942,-1.3765,-1.5263,-1.6517,-1.7458,-1.7115,-1.6846,-1.6712,-1.6846,-1.7264,-1.7939,-1.812,-1.889,-2.0162,-1.9952,-1.9577,-1.91,-1.867,-1.8588,-1.8759,-1.8943,-1.8981,-1.891,-1.908,-1.8589,0.0,0.0,0.0,0.0,0.0,0.0,0.0,-1.8674,-1.9299,-1.9968,-2.0969,-2.1831,-2.2931,0.0,-2.6455,0.0,0.0,0.0,0.0,0.0,0.0,0.0,-3.8153,-3.8826,-3.92,-3.92,-3.92,-3.92,-3.92,-3.9334,-3.9481,-3.9666,0.0,0.0,0.0,0.0,0.0,0.0,0.0,0.0,0.0,0.0,0.0,-4.506,-4.506,-4.506,-4.506,-4.506,-4.506,-4.506,-4.506,-4.506,-4.506,-4.506,-4.5365,-4.5957,-4.6701,-4.7445,-4.8156,-4.8156,-4.8477,-4.9001,-4.9001,-4.9001,-4.9001,-4.9001,-4.9001,-4.9001,-4.9001,-4.9001,-4.9001,0.0,0.0,0.0,0.0,0.0,0.0,0.0,0.0,-1.1805,-1.1805,-1.1805,-1.1805,-1.1805,-1.1805,0.0,0.0,-1.1805,-1.1805,0.0,0.0,-1.325,-1.4244,-1.583,-1.6726,-1.6787,-1.6726,-1.6712,-1.6712,-1.6712,-1.704,-1.773,-1.8543,-1.9512,-2.0472,-2.0027,-1.9528,-1.8997,-1.8203,-1.807,-1.8425,-1.8602,-1.8773,-1.8894,-1.8894,-1.8437,-1.7811,-1.7811,0.0,0.0,0.0,0.0,0.0,0.0,0.0,-1.92,-2.0438,-2.1143,-2.2183,0.0,0.0,0.0,0.0,0.0,0.0,0.0,0.0,0.0,0.0,0.0,0.0,0.0,0.0,0.0,0.0,0.0,0.0,0.0,0.0,0.0,0.0,0.0,0.0,0.0,0.0,0.0,0.0,0.0,-4.4587,-4.4587,-4.4587,-4.4587,-4.4587,-4.4587,-4.4587,-4.4587,-4.4587,-4.4587,-4.4587,-4.4587,-4.479,-4.5213,-4.6295,-4.7005,-4.7378,-4.7378,-4.78,-4.8477,-4.8477,-4.8697,-4.9001,-4.9001,-4.9001,-4.9001,-4.9001,-4.9001,-4.9001,0.0,0.0,0.0,0.0,0.0,0.0,0.0,0.0,0.0,-1.1805,-1.1805,-1.1805,-1.1805,-1.1805,-1.1805,0.0,0.0,0.0,-1.1805,0.0,0.0,-1.4902,-1.6069,-1.6458,-1.5978,-1.6353,-1.6547,-1.6547,-1.6547,-1.7055,-1.8089,-1.9501,-2.0304,-2.0513,-2.0294,-1.9746,-1.8931,-1.7805,-1.7626,-1.8126,-1.8126,-1.8303,-1.8548,-1.8596,-1.8249,-1.7726,-1.7789,-1.7811,-1.7828,-1.7963,0.0,0.0,0.0,0.0,-1.8283,-1.9733,-2.0258,-2.1178,0.0,0.0,0.0,0.0,0.0,0.0,0.0,0.0,0.0,0.0,0.0,0.0,0.0,0.0,0.0,0.0,0.0,0.0,0.0,0.0,0.0,0.0,0.0,0.0,0.0,0.0,0.0,0.0,0.0,-4.4587,-4.4587,-4.4587,-4.4587,-4.4587,-4.4587,-4.4587,-4.4587,-4.4587,-4.4587,-4.4587,-4.4587,-4.4514,-4.4434,-4.5647,-4.6347,-4.6599,-4.6599,-4.7039,-4.7733,-4.7733,-4.8088,-4.8629,-4.8765,-4.8815,-4.8832,-4.8951,-4.9001,-4.9001,0.0,0.0,0.0,0.0,0.0,0.0,0.0,0.0,0.0,0.0,-1.1805,-1.1805,-1.1805,-1.1805,-1.1805,-1.1805,-1.1805,-1.1805,0.0,0.0,0.0,-1.5619,-1.6323,-1.6667,-1.6577,-1.6144,-1.5933,-1.5933,-1.5933,-1.7148,-1.9435,-1.9671,-1.9807,-1.9809,-1.9792,-1.9246,-1.83,-1.7588,-1.7192,-1.7011,-1.7011,-1.702,-1.7097,-1.7404,-1.7451,-1.7392,-1.7704,-1.7811,-1.7912,-1.8538,-1.8741,0.0,0.0,0.0,0.0,-1.9024,-1.9731,-2.0763,0.0,0.0,0.0,0.0,0.0,0.0,0.0,0.0,0.0,0.0,0.0,0.0,0.0,0.0,0.0,0.0,0.0,0.0,0.0,0.0,0.0,0.0,0.0,0.0,0.0,0.0,0.0,0.0,-4.4587,-4.4587,-4.4587,-4.4587,-4.4587,-4.4587,-4.4587,-4.4587,-4.4587,-4.4587,-4.4587,-4.4587,-4.4587,-4.4196,-4.3502,-4.3701,-4.4523,-4.5855,-4.5855,-4.6261,-4.6938,-4.6938,-4.7005,-4.7158,-4.7817,-4.8071,-4.8139,-4.8765,-4.9001,-4.9001,0.0,0.0,0.0,0.0,0.0,0.0,0.0,0.0,0.0,0.0,0.0,-1.1805,-1.1805,-1.1805,-1.1805,-1.1805,-1.1805,0.0,0.0,0.0,0.0,-1.4633,-1.5306,-1.5457,-1.5084,-1.5171,-1.5424,-1.5799,-1.5799,-1.7311,-2.0273,-2.0632,-2.1395,-2.2413,-2.1306,-2.0595,-2.0051,-1.813,-1.7223,-1.7078,-1.6871,-1.7449,-1.833,-1.7378,-1.7704,-1.8534,-1.7773,-1.7526,-1.7599,-1.8097,-1.8555,-1.8826,-1.8403,0.0,0.0,0.0,0.0,0.0,0.0,0.0,0.0,0.0,0.0,0.0,0.0,0.0,0.0,0.0,0.0,0.0,0.0,0.0,0.0,0.0,0.0,0.0,0.0,0.0,0.0,0.0,0.0,0.0,0.0,0.0,0.0,0.0,-4.431,-4.4587,-4.4587,-4.4587,-4.4587,-4.4587,-4.4138,-4.3873,-4.3873,-4.3873,-4.3873,-4.3873,-4.335,-4.297,-4.2583,-4.2583,-4.3211,-4.4373,-4.4373,-4.5043,-4.6177,-4.6177,-4.643,-4.6819,-4.7158,-4.7547,-4.7953,-4.8274,-4.8663,-4.9001,0.0,0.0,0.0,0.0,0.0,0.0,0.0,0.0,0.0,0.0,0.0,-1.1805,-1.1805,0.0,0.0,0.0,-1.1805,0.0,0.0,0.0,0.0,0.0,-1.4348,-1.4408,-1.357,-1.4199,-1.4782,-1.5304,-1.5469,-1.7296,-2.0737,-2.156,-2.3086,-2.5046,-2.3251,-2.2069,-2.1276,-1.89,-1.7808,-1.7638,-1.7377,-1.8152,-1.9358,-1.8682,-1.9232,-2.0161,-1.9005,-1.8496,-1.8367,-1.8589,-1.8894,-1.908,-1.8538,0.0,0.0,0.0,0.0,0.0,0.0,0.0,0.0,0.0,0.0,0.0,0.0,0.0,0.0,0.0,0.0,0.0,0.0,0.0,0.0,0.0,0.0,0.0,0.0,0.0,0.0,0.0,0.0,0.0,0.0,0.0,0.0,0.0,-4.3551,-4.3995,-4.3995,-4.3995,-4.3939,-4.3755,-4.3132,-4.2686,-4.2474,-4.261,-4.279,-4.297,-4.2316,-4.1869,-4.1674,-4.1674,-4.1997,-4.2645,-4.2847,-4.38,-4.5093,-4.5093,-4.5412,-4.5976,-4.6372,-4.687,-4.7411,-4.7784,-4.8257,-4.8748,0.0,0.0,0.0,0.0,0.0,0.0,0.0,0.0,0.0,0.0,0.0,-1.1805,-1.1805,-1.1805,-1.1805,-1.1805,-1.1805,0.0,0.0,0.0,0.0,0.0,0.0,0.0,-1.2891,-1.351,-1.3885,-1.3914,-1.4528,-1.6862,-2.0737,-2.2024,-2.3999,-2.6437,-2.5076,-2.3059,-2.0707,-1.9921,-1.9201,-1.8631,-1.8602,-1.868,-1.906,-2.1827,-2.254,-2.2084,-2.2112,-2.1711,-2.1163,-2.1049,-2.0534,-1.9934,-1.99,-1.9435,-1.8758,0.0,0.0,0.0,0.0,0.0,0.0,0.0,0.0,0.0,0.0,0.0,0.0,0.0,0.0,0.0,0.0,0.0,0.0,0.0,0.0,0.0,0.0,0.0,0.0,0.0,0.0,0.0,0.0,0.0,0.0,0.0,-4.2009,-4.2405,-4.2405,-4.2405,-4.2118,-4.1418,-4.1361,-4.0925,-4.0148,-4.0777,-4.1467,-4.2062,-4.1997,-4.1543,-4.0758,-4.0758,-4.0811,-4.0878,-4.1739,-4.2599,-4.3432,-4.3432,-4.3449,-4.3608,-4.516,-4.5788,-4.5991,-4.7394,-4.7936,-4.8071,0.0,0.0,0.0,0.0,0.0,0.0,0.0,0.0,0.0,0.0,0.0,0.0,0.0,-1.1805,-1.1805,-1.1805,-1.1805,0.0,0.0,0.0,0.0,0.0,0.0,0.0,-1.2179,-1.3241,-1.36,-1.3151,-1.3825,-1.5964,-1.945,-2.0333,-2.1949,-2.4073,-2.3999,-2.3699,-2.2999,-2.0243,-1.9166,-1.9331,-1.9331,-2.0348,-2.1859,-2.2139,-2.3402,-2.4835,-2.3413,-2.2211,0.0,-2.1472,-2.0986,-2.0163,-1.9223,-1.9227,-1.9384,-1.8166,-1.8464,0.0,0.0,0.0,0.0,0.0,0.0,0.0,0.0,0.0,0.0,0.0,0.0,0.0,0.0,0.0,0.0,0.0,0.0,0.0,0.0,0.0,0.0,0.0,0.0,0.0,0.0,0.0,0.0,0.0,0.0,-4.182,-4.2286,-4.182,-4.1471,-4.1189,-4.0144,-3.9454,-3.9141,-3.8828,-3.9307,-4.0554,-3.9972,-3.9757,-3.9864,-3.9864,-4.0185,-4.069,-4.0447,-4.1162,-4.2458,-4.2458,-4.2458,-4.2537,-4.3124,-4.3965,-4.4963,-4.548,-4.6619,-4.7953,0.0,0.0,0.0,-1.1265,0.0,-1.1805,-1.1805,-1.1805,-1.188,-1.2104,0.0,0.0,0.0,0.0,-1.2388,-1.2149,-1.2134,-1.2029,-1.1805,-1.1805,0.0,0.0,0.0,0.0,-1.2149,-1.3451,-1.381,-1.3145,-1.381,-1.5485,-1.8041,-1.8957,-2.0423,-2.2338,-2.2293,-2.2906,-2.3804,-2.1156,-2.0168,-2.0423,-2.1081,-2.2248,-2.3699,-2.4642,-2.5944,-2.71,-2.5955,0.0,0.0,0.0,0.0,-2.1048,-1.9852,-1.9449,-1.9203,-1.7987,-1.8579,0.0,-1.9783,0.0,0.0,0.0,0.0,0.0,0.0,0.0,0.0,0.0,0.0,0.0,0.0,0.0,0.0,0.0,0.0,0.0,0.0,0.0,0.0,0.0,0.0,0.0,0.0,0.0,0.0,0.0,0.0,0.0,-4.0779,-4.0318,-3.9919,-3.9671,-3.8357,-3.7732,-3.7962,-3.7412,-3.7729,-3.8959,-3.8536,-3.8631,-3.908,-3.932,-3.9737,-4.0239,-3.9666,-4.0255,-4.1528,-4.1528,-4.1528,-4.1593,-4.1869,-4.2669,-4.3627,-4.42,-4.5374,-4.6831,-1.0361,-1.0708,-1.1009,-1.1307,-1.1615,-1.1865,-1.1865,-1.1865,-1.2089,-1.2756,0.0,0.0,0.0,0.0,0.0,-1.2921,-1.2846,-1.2523,-1.1865,-1.1805,0.0,0.0,0.0,0.0,-1.2816,-1.4094,-1.4453,-1.378,-1.4438,-1.5411,-1.6652,-1.7999,-1.9675,-2.1515,-2.0228,-2.0737,-2.2604,-2.2547,-2.2218,-2.1919,-2.3789,-2.4238,-2.4343,-2.949,-3.0328,-2.8869,-2.9916,-2.9399,0.0,-2.6522,0.0,0.0,-2.2049,-2.0203,-1.8198,-1.7535,-1.8117,-1.8961,0.0,0.0,0.0,0.0,0.0,0.0,0.0,0.0,0.0,0.0,0.0,0.0,0.0,0.0,0.0,0.0,0.0,0.0,0.0,0.0,0.0,0.0,0.0,0.0,0.0,0.0,0.0,0.0,-3.7338,-3.7748,-3.7822,-3.7764,-3.7397,-3.6615,-3.5894,-3.5804,-3.6447,-3.6462,-3.6761,-3.7389,-3.8018,-3.8347,-3.8377,-3.9065,-3.9394,-3.9394,-3.9409,-3.9864,-4.069,-4.069,-4.069,-4.0758,-4.1609,-4.1933,-4.2142,-4.3739,-4.4344,-4.4698,-1.0926,-1.1362,-1.1899,-1.2562,-1.2755,-1.2906,-1.3193,-1.3256,-1.3316,0.0,0.0,0.0,-1.384,-1.4229,-1.4438,-1.4244,-1.3795,-1.3241,-1.2576,-1.2059,-1.1805,-1.1805,-1.3092,-1.3496,-1.2816,-1.4094,-1.4214,-1.3086,-1.375,-1.4274,-1.4621,-1.5964,-1.7386,-1.8787,-1.8927,-1.9286,-1.9765,-1.9301,-2.0632,-2.3041,-2.2667,-2.4687,-2.8038,0.0,-3.0552,0.0,0.0,-3.0975,-2.972,0.0,-2.7132,-2.4911,0.0,-2.0353,-1.866,-1.8794,-1.9398,-2.0007,-1.9765,0.0,0.0,0.0,0.0,0.0,0.0,0.0,0.0,0.0,0.0,0.0,0.0,0.0,0.0,0.0,0.0,0.0,0.0,0.0,0.0,0.0,0.0,0.0,0.0,0.0,0.0,0.0,-3.6798,-3.7219,-3.7764,-3.7279,-3.6569,-3.5831,-3.5619,-3.5594,-3.5774,-3.5774,-3.6103,-3.6746,-3.6926,-3.724,-3.7704,-3.8377,-3.8676,-3.8691,-3.92,-3.9553,-3.9737,-3.9737,-3.9737,-3.9793,-4.0005,-4.05,-4.1095,-4.1551,-4.2459,-4.3541,-1.1317,-1.1718,-1.2295,-1.3249,-1.35,-1.3805,-1.4519,-1.4633,-1.4722,0.0,0.0,0.0,-1.5427,-1.6039,-1.6099,-1.5304,-1.4857,-1.4094,-1.2891,-1.2418,-1.2231,-1.2231,-1.3241,-1.375,-1.364,-1.4689,-1.4704,-1.364,-1.4019,-1.4079,-1.3825,-1.4872,-1.577,-1.6533,-1.7191,-1.779,-1.8253,-1.7563,-1.925,-2.2488,-2.367,0.0,0.0,-3.0462,-3.1898,0.0,0.0,0.0,-3.1659,-3.1016,-2.9056,0.0,0.0,-2.1237,-2.0393,-1.9252,-2.0059,-2.1187,-2.0417,-2.1227,0.0,0.0,0.0,0.0,0.0,-2.5654,0.0,0.0,0.0,0.0,0.0,0.0,0.0,0.0,0.0,0.0,0.0,0.0,0.0,0.0,0.0,0.0,0.0,-3.5504,-3.5668,-3.6117,-3.6165,-3.6352,-3.6845,-3.6415,-3.5943,-3.5504,-3.5504,-3.5504,-3.5504,-3.5504,-3.5699,-3.6088,-3.6357,-3.6671,-3.7045,-3.7689,-3.8138,-3.8407,-3.8811,-3.9155,-3.9424,-3.9424,-3.9424,-3.9424,-3.9424,-3.9737,-4.017,-4.0569,-4.1315,-4.2161,0.0,-1.1981,-1.2562,-1.361,-1.4107,-1.4688,-1.5758,-1.5979,-1.6189,0.0,-1.6891,-1.7234,-1.8041,-1.8553,-1.8119,-1.6383,-1.6038,-1.5124,-1.325,-1.2996,-1.2921,-1.2921,-1.3555,-1.4199,-1.4782,-1.5469,-1.5484,-1.4797,-1.4797,-1.4453,-1.3825,-1.4483,-1.4797,-1.4812,-1.5499,-1.6458,-1.7548,-1.7115,-1.8459,-2.1291,-2.545,-2.7535,0.0,0.0,-3.3679,-3.3006,-3.4173,-3.4218,-3.3604,-3.2871,-3.0522,0.0,-2.352,-2.2929,-2.2968,-1.9793,-2.0732,0.0,-2.1299,-2.1844,0.0,0.0,-2.3814,0.0,-2.5995,-2.5487,-2.491,0.0,0.0,0.0,0.0,0.0,0.0,0.0,0.0,0.0,0.0,0.0,0.0,0.0,0.0,0.0,-3.5504,-3.5504,-3.5504,-3.5504,-3.5504,-3.5504,-3.5504,-3.5504,-3.5504,-3.5504,-3.5504,-3.5504,-3.5504,-3.5504,-3.5504,-3.5519,-3.6088,-3.6372,-3.6402,-3.703,-3.7629,-3.8182,-3.8332,-3.8736,-3.9305,-3.9394,-3.9424,-3.9424,-3.9424,-3.9424,-3.9481,-4.0239,-4.0569,-4.0783,-1.2241,-1.3023,-1.3864,-1.4404,-1.5271,-1.6053,-1.6584,-1.7069,-1.7354,-1.7488,-1.7951,-1.8986,-2.0737,-2.0064,-1.9331,-1.8991,-1.7475,-1.6159,-1.5274,-1.4199,-1.36,-1.36,-1.4244,-1.4663,-1.4797,-1.5469,-1.5484,-1.4797,-1.4797,-1.4453,-1.3825,-1.4483,-1.4797,-1.4812,-1.5499,-1.6204,-1.6965,-1.7891,-1.9854,-2.2413,-2.3804,-2.6931,-3.0926,-3.2347,-3.3739,-3.4951,-3.522,-3.522,-3.4921,-3.3709,-3.1794,-2.952,0.0,-2.6186,-2.5545,-2.3667,-2.3894,-2.4655,-2.4179,-2.4617,-2.5008,-2.4177,0.0,0.0,-2.3325,-2.3831,-2.4806,0.0,0.0,0.0,0.0,0.0,0.0,0.0,0.0,0.0,0.0,0.0,0.0,0.0,0.0,0.0,-3.5504,-3.5504,-3.5504,-3.5504,-3.5504,-3.5504,-3.5504,-3.5504,-3.5504,-3.5504,-3.5504,-3.5504,-3.5504,-3.5504,-3.5504,-3.5504,-3.5639,-3.5699,-3.5714,-3.6372,-3.6731,-3.6911,-3.7943,-3.8467,-3.8631,-3.9185,-3.9424,-3.9424,-3.9424,-3.9424,-3.9409,-3.961,-3.9666,-3.9696,-1.2785,-1.3483,-1.4343,-1.5072,-1.61,-1.7032,-1.7791,-1.8361,-1.8942,-1.9615,-2.0543,-2.1291,-2.1665,-2.1096,-2.0423,-1.975,-1.8478,-1.7161,-1.5888,-1.5184,-1.4648,-1.4318,-1.4618,-1.4947,-1.5304,-1.5634,-1.5649,-1.5304,-1.4947,-1.4453,-1.3825,-1.4483,-1.4619,-1.4355,-1.5654,-1.6616,-1.733,-1.8282,-2.0049,-2.2413,-2.5046,0.0,-3.1661,-3.338,-3.4637,-3.5504,-3.5504,-3.5504,-3.525,-3.3574,-3.2332,0.0,-2.8801,-2.8293,-2.8075,0.0,-2.5817,-2.6517,-2.5456,-2.5548,-2.5911,-2.5852,0.0,0.0,0.0,-2.4194,-2.4356,-2.5445,0.0,0.0,0.0,0.0,0.0,0.0,0.0,0.0,0.0,0.0,0.0,0.0,0.0,0.0,-3.4966,-3.4996,-3.513,-3.5474,-3.5504,-3.5504,-3.5504,-3.5504,-3.5504,-3.5504,-3.5504,-3.5504,-3.5504,-3.5504,-3.5504,-3.5504,-3.5504,-3.5504,-3.5519,-3.5848,-3.6178,-3.6537,-3.7479,-3.8078,-3.8437,-3.9125,-3.9424,-3.9424,-3.9424,-3.9424,-3.9424,-3.9424,-3.9424,-3.9424,-1.3198,-1.376,-1.4523,-1.5406,-1.6531,-1.7578,-1.8464,-1.9132,-2.0124,-2.1695,-2.2855,-2.3259,-2.2488,-2.2155,-2.1618,-2.0757,-1.9566,-1.8302,-1.6939,-1.6424,-1.5951,-1.5381,-1.5231,-1.5411,-1.5978,-1.5771,-1.5712,-1.5799,-1.5175,-1.4626,-1.4199,-1.4737,-1.4771,-1.4425,-1.6003,-1.732,-1.836,0.0,0.0,-2.3355,0.0,-2.94,-3.0911,-3.3814,-3.4936,-3.4981,-3.537,-3.5504,-3.5235,-3.3484,-3.2901,-3.2452,-2.9953,-3.0043,0.0,0.0,0.0,0.0,0.0,0.0,0.0,0.0,0.0,-2.639,0.0,0.0,0.0,-2.6174,0.0,0.0,0.0,0.0,0.0,0.0,0.0,0.0,0.0,0.0,0.0,0.0,0.0,0.0,-3.4029,-3.3968,-3.4222,-3.504,-3.494,-3.5018,-3.528,-3.5429,-3.5504,-3.5504,-3.5504,-3.5504,-3.5504,-3.5504,-3.5504,-3.5504,-3.5504,-3.5504,-3.5504,-3.5504,-3.5804,-3.6327,-3.6956,-3.7599,-3.8257,-3.8931,-3.9305,-3.9424,-3.9424,-3.9424,-3.9424,-3.9424,-3.9424,-3.9424,-1.3198,-1.4061,-1.484,-1.4967,-1.6257,-1.7356,-1.7463,-1.8341,-1.9841,-2.2267,-2.3082,-2.3794,-2.4769,-2.3769,-2.3365,-2.4231,-2.1362,-1.9821,-2.0543,-1.8703,-1.7534,-1.7384,-1.6801,-1.6532,-1.6607,-1.5681,-1.5389,-1.5799,-1.5316,-1.5242,-1.5574,-1.5649,-1.5935,-1.6395,-1.6655,0.0,0.0,0.0,-2.2776,0.0,-2.8382,-2.8023,0.0,-3.1405,-3.2856,-3.308,-3.4876,-3.5504,-3.537,0.0,-3.4247,-3.3903,0.0,-3.2108,-3.2632,-2.9924,0.0,0.0,0.0,0.0,0.0,0.0,-2.8683,0.0,0.0,0.0,-2.6057,-2.3919,0.0,0.0,0.0,0.0,0.0,0.0,0.0,0.0,0.0,0.0,0.0,0.0,0.0,0.0,0.0,-3.1962,-3.2163,-3.3651,-3.3016,-3.318,-3.4565,-3.5175,-3.5504,-3.5504,-3.5504,-3.5504,-3.5504,-3.5504,-3.5504,-3.5504,-3.5504,-3.5504,-3.5504,-3.5504,-3.5549,-3.5654,-3.6312,-3.6941,-3.7569,-3.8242,-3.8871,-3.9424,-3.9424,-3.9424,-3.9424,-3.9424,-3.9424,-3.9424,-1.3198,-1.4124,-1.4916,-1.4916,-1.6242,-1.7312,-1.7312,-1.9683,-2.1745,-2.2459,-2.4269,-2.5797,-2.6379,-2.5667,-2.5463,-2.6106,-2.4198,-2.2448,-2.1313,-2.0399,-1.9225,-1.7828,-1.7822,-1.7522,-1.6764,-1.6266,-1.595,-1.5799,-1.5196,-1.5018,-1.5244,-1.5619,-1.6158,-1.6822,-1.7949,0.0,-2.108,0.0,-2.2437,0.0,0.0,0.0,0.0,-3.1287,-3.3042,-3.2734,-3.4118,-3.461,-3.453,0.0,-3.3903,0.0,0.0,0.0,0.0,0.0,0.0,0.0,0.0,0.0,0.0,0.0,0.0,0.0,-2.6213,0.0,-2.54,0.0,0.0,0.0,0.0,0.0,0.0,0.0,0.0,0.0,0.0,0.0,0.0,0.0,0.0,0.0,0.0,0.0,0.0,0.0,-3.1622,-3.201,-3.3799,-3.4547,-3.51,-3.5489,-3.5504,-3.5504,-3.5504,-3.5504,-3.5504,-3.5504,-3.5504,-3.5504,-3.5504,-3.5504,-3.5504,-3.5549,-3.6207,-3.6626,-3.6956,-3.7973,-3.8556,-3.8856,-3.926,-3.9424,-3.9424,-3.9424,-3.9424,-3.9424,-1.3684,0.0,-1.4966,-1.5104,-1.6196,-1.7222,-1.7705,-2.0449,-2.2596,-2.2865,-2.501,-2.6734,-2.7309,-2.6918,-2.6821,-2.7561,-2.6222,-2.4614,-2.2804,-2.206,-2.0864,-1.9119,-1.9003,-1.8527,-1.7583,-1.7257,-1.6827,-1.6308,-1.5549,-1.5297,-1.5605,-1.5889,-1.6496,-1.7387,-1.9151,-2.0751,-2.2173,0.0,-2.3216,-2.4699,-2.5208,-2.5715,-2.6634,-3.1104,-3.2736,-3.2749,-3.3671,-3.4027,-3.3936,-3.3544,-3.3568,0.0,-3.3283,0.0,0.0,0.0,0.0,0.0,-3.0746,0.0,0.0,0.0,0.0,0.0,0.0,0.0,0.0,0.0,0.0,0.0,0.0,0.0,0.0,0.0,0.0,0.0,0.0,0.0,0.0,0.0,0.0,0.0,0.0,0.0,0.0,0.0,0.0,-3.0528,-3.2826,-3.3754,-3.4517,-3.519,-3.54,-3.5504,-3.5504,-3.5504,-3.5504,-3.5504,-3.5504,-3.5504,-3.5504,-3.5504,-3.5504,-3.5534,-3.6013,-3.6312,-3.6552,-3.7494,-3.8063,-3.8437,-3.8945,-3.9245,-3.9424,-3.9424,-3.9424,-3.9424,-1.4865,-1.4878,0.0,-1.5567,-1.6145,-1.7091,-1.8721,-1.9595,-2.1055,-2.3768,-2.4647,-2.5634,-2.7407,-2.6912,-2.7119,0.0,0.0,-2.579,-2.6194,-2.3741,-2.222,-2.2142,-2.0569,-1.9612,-1.9492,-1.8547,-1.791,-1.7637,-1.6603,-1.6603,-1.7578,-1.6965,-1.7384,-1.8678,-2.0059,-2.1955,-2.4091,-2.4086,-2.6548,-3.0211,-2.9022,-2.9497,-3.0877,0.0,-3.1006,-3.2749,-3.3671,0.0,0.0,-3.3307,-3.3709,0.0,0.0,0.0,0.0,0.0,0.0,0.0,0.0,0.0,0.0,-2.8629,0.0,0.0,0.0,0.0,-2.6826,0.0,0.0,0.0,0.0,0.0,0.0,0.0,0.0,0.0,0.0,0.0,0.0,0.0,0.0,0.0,0.0,0.0,0.0,0.0,-2.7501,0.0,-3.1375,-3.2826,-3.3829,-3.4487,-3.516,-3.5504,-3.5504,-3.5504,-3.5504,-3.5504,-3.5504,-3.5504,-3.5504,-3.5504,-3.5504,-3.5504,-3.5534,-3.5893,-3.6492,-3.6537,-3.727,-3.8392,-3.8407,-3.8841,-3.9424,-3.9424,-3.9424,-3.9424,0.0,0.0,0.0,0.0,0.0,-1.7181,-1.9202,-2.0972,-2.2777,-2.489,-2.6048,-2.7394,0.0,-2.9316,-2.9552,0.0,0.0,-2.8247,-2.71,-2.5833,-2.4801,-2.4004,-2.3097,-2.2019,-2.0748,-1.9997,-1.8836,-1.7225,-1.687,-1.6874,-1.719,-1.7393,-1.7915,-1.8787,0.0,-2.2681,0.0,0.0,0.0,0.0,0.0,-2.8716,-3.0215,0.0,-3.0128,-3.0846,-3.1829,-3.2177,0.0,-3.2667,-3.31,-3.3573,-3.3402,-3.3592,-3.3858,-3.4083,-3.3993,0.0,0.0,0.0,-3.3395,-3.0283,0.0,0.0,0.0,0.0,0.0,0.0,0.0,0.0,0.0,0.0,0.0,0.0,0.0,0.0,0.0,0.0,0.0,0.0,0.0,0.0,0.0,0.0,0.0,0.0,-2.6382,0.0,0.0,-3.2527,-3.3799,-3.4457,-3.5145,-3.5504,-3.5504,-3.5504,-3.5504,-3.5504,-3.5504,-3.5504,-3.5504,-3.5504,-3.5504,-3.5504,-3.5504,-3.5624,-3.5863,-3.6312,-3.6985,-3.7778,-3.8227,-3.8811,-3.9424,-3.9424,-3.9424,-3.9424,-1.5957,0.0,0.0,0.0,0.0,-1.8091,-2.01,-2.2133,-2.4104,0.0,-2.7148,0.0,-3.0293,0.0,-3.0467,0.0,-3.0501,-2.9477,-2.7717,-2.7118,0.0,-2.5435,-2.4936,-2.3997,-2.2561,-2.2003,-2.0568,-1.829,-1.7867,-1.7529,-1.7311,0.0,0.0,0.0,0.0,-2.3105,-2.4027,0.0,-2.7067,0.0,0.0,-2.8768,0.0,0.0,-2.9792,-2.9934,0.0,-3.118,-3.1315,-3.1888,-3.2499,-3.2953,-3.2975,-3.3115,-3.331,-3.4074,-3.4026,-3.372,-3.3826,-3.4158,0.0,-3.148,-3.0567,0.0,-2.6916,0.0,-2.7604,0.0,0.0,0.0,0.0,0.0,0.0,0.0,0.0,0.0,0.0,-2.1311,0.0,0.0,0.0,0.0,0.0,0.0,-2.2791,-2.5407,-2.5118,0.0,0.0,0.0,-3.32,-3.4098,-3.5026,-3.5504,-3.5504,-3.5504,-3.5504,-3.5504,-3.5504,-3.5504,-3.5504,-3.5504,-3.5504,-3.5504,-3.5504,-3.5504,-3.5534,-3.5968,-3.6641,-3.7449,-3.7883,-3.8601,-3.9424,-3.9424,-3.9424,-3.9424,-1.6672,0.0,0.0,0.0,-1.8041,0.0,0.0,0.0,-2.4833,0.0,-2.7846,-2.8812,-3.047,-3.0181,-3.008,-3.0608,-3.0168,-2.9402,-2.8298,-2.7708,0.0,0.0,-2.6181,-2.5618,-2.4922,-2.4349,-2.2945,-2.0656,0.0,0.0,0.0,0.0,0.0,0.0,-2.1614,0.0,-2.4053,-2.7251,-2.8713,-2.9026,-2.9566,-2.9792,-2.9792,-2.9792,-2.9792,-2.9934,-3.0833,-3.1106,-3.1106,-3.1106,-3.1742,-3.2393,-3.1462,-3.1815,-3.282,-3.3671,-3.3945,-3.4033,-3.4332,-3.439,-3.3928,-3.2035,-3.1513,0.0,0.0,0.0,-3.0238,0.0,0.0,0.0,0.0,0.0,0.0,0.0,0.0,0.0,0.0,0.0,0.0,0.0,0.0,0.0,0.0,0.0,-2.1649,-2.411,-2.3681,0.0,0.0,0.0,-3.2048,-3.341,-3.4756,-3.5474,-3.5504,-3.5504,-3.5504,-3.5504,-3.5504,-3.5504,-3.5504,-3.5504,-3.5504,-3.5504,-3.5504,-3.5504,-3.5504,-3.5504,-3.6252,-3.7404,-3.7404,-3.8227,-3.9424,-3.9424,-3.9424,-3.9424,-1.7187,-1.8129,-1.9221,0.0,-1.9874,-2.0451,0.0,0.0,0.0,0.0,-2.9001,-2.9829,-3.106,-3.1072,-3.1035,-3.1173,-3.106,0.0,0.0,0.0,0.0,-2.8938,-2.799,-2.7259,-2.6645,-2.4912,-2.3116,-2.1258,0.0,0.0,-1.8171,0.0,0.0,0.0,0.0,0.0,-2.3497,-2.6069,-2.8127,-2.9578,-2.9729,-2.9792,-2.9792,0.0,-2.9792,-2.9869,-3.0075,-3.0139,-3.0139,-3.0139,-3.0771,-3.1536,-3.1241,-3.1815,-3.2664,-3.289,-3.2961,-3.2989,-3.3044,-3.3071,-3.2996,-3.2775,-3.1946,-3.1052,0.0,0.0,0.0,0.0,0.0,0.0,0.0,0.0,0.0,0.0,0.0,0.0,0.0,0.0,0.0,0.0,0.0,0.0,0.0,-2.1407,-2.1906,-2.3878,-2.3713,0.0,0.0,0.0,0.0,-3.2706,-3.4053,-3.4996,-3.5504,-3.5504,-3.5504,-3.5504,-3.5504,-3.5504,-3.5504,-3.5504,-3.5504,-3.5504,-3.5504,-3.5504,-3.5504,-3.5504,-3.6252,-3.7404,-3.7404,-3.8227,-3.9424,-3.9424,-3.9424,-3.9424,-1.8442,0.0,0.0,-2.2749,0.0,0.0,-2.4795,-2.5548,0.0,-2.9001,-2.9804,0.0,-3.1298,-3.1599,-3.175,-3.175,-3.1537,0.0,-3.0658,0.0,0.0,-2.9817,-2.9415,-2.8825,-2.8021,-2.6314,0.0,-2.2209,0.0,0.0,-1.7828,0.0,0.0,0.0,0.0,-2.1225,0.0,-2.5639,-2.7921,-2.944,-2.9691,-2.9792,0.0,-2.9792,-2.9792,-2.9792,-2.9792,-2.9792,-2.9792,-2.9792,-3.0139,-3.0558,-3.0558,-3.0983,-3.1476,-3.1888,-3.196,-3.2105,-3.2464,-3.2593,-3.2666,-3.2833,-3.2281,-3.1664,-3.1228,-3.1426,-3.1608,0.0,-3.1601,-3.2016,0.0,0.0,0.0,0.0,0.0,0.0,0.0,0.0,0.0,0.0,0.0,0.0,-2.1135,-2.0928,-2.1425,-2.2817,-2.2819,0.0,0.0,0.0,0.0,-3.2033,-3.3649,-3.4801,-3.5489,-3.5504,-3.5504,-3.5504,-3.5504,-3.5504,-3.5504,-3.5504,-3.5504,-3.5504,-3.5504,-3.5504,-3.5504,-3.5504,-3.6103,-3.706,-3.7629,-3.8482,-3.9424,-3.9424,-3.9424,-3.9424,-2.0338,0.0,0.0,0.0,0.0,0.0,0.0,-2.7356,0.0,-2.9792,0.0,-3.111,-3.1562,-3.2039,-3.2328,-3.2328,0.0,-3.1386,-3.0859,-3.1248,-3.1047,-3.0043,-3.0394,-3.0156,-2.9176,-2.7921,-2.595,0.0,-2.1518,-1.9585,-1.7375,0.0,0.0,0.0,0.0,0.0,0.0,-2.5734,-2.7959,-2.9089,-2.9591,-2.9792,-2.9792,-2.9792,-2.9792,-2.9792,-2.9792,-2.9792,-2.9792,-2.9792,-2.9792,-2.9792,-2.9792,-2.9792,-2.9934,-3.0758,-3.1044,-3.118,-3.2033,-3.2249,-3.2249,-3.2393,-3.2393,-3.2118,-3.1076,-3.0829,-3.11,-3.1994,-3.1254,-3.1329,0.0,0.0,0.0,0.0,0.0,0.0,0.0,0.0,0.0,0.0,0.0,0.0,0.0,-2.0489,-2.0824,-2.1588,-2.1599,0.0,0.0,0.0,0.0,-3.1287,-3.323,-3.4592,-3.537,-3.5459,-3.5504,-3.5504,-3.5504,-3.5504,-3.5504,-3.5504,-3.5504,-3.5504,-3.5504,-3.5504,-3.5504,-3.5504,-3.5938,-3.6731,-3.7928,-3.8811,-3.9424,-3.9424,-3.9424,-3.9424,-2.3175,0.0,0.0,0.0,0.0,-2.8687,-2.9729,-2.9578,-2.9779,-3.0959,-3.2001,-3.2679,-3.2767,-3.2867,-3.2918,-3.2918,-3.2842,0.0,0.0,0.0,0.0,-3.1135,-3.0796,-3.052,-3.0319,-2.8323,-2.6151,-2.3841,-2.1707,-1.9585,-1.7375,0.0,0.0,0.0,0.0,0.0,-2.4356,-2.6445,0.0,-2.9654,-2.9754,-2.9792,-2.9792,-2.9792,-2.9792,-2.9792,-2.9792,-2.9792,-2.9792,-2.9792,-2.9792,-2.9792,-2.9792,-2.9792,-2.9869,-2.9998,-3.0075,-3.0075,-3.0216,-3.0292,-3.0495,-3.1254,-3.1462,-3.1629,-3.2118,-3.2289,-3.2289,-3.25,-3.2333,-3.2,-3.1565,0.0,0.0,0.0,0.0,0.0,0.0,0.0,0.0,0.0,0.0,0.0,0.0,-2.1437,-2.144,-2.1372,0.0,0.0,0.0,0.0,0.0,0.0,-3.2093,0.0,0.0,0.0,-3.5504,-3.5504,-3.5504,-3.5504,-3.5504,-3.5504,-3.5504,-3.5504,-3.5504,-3.5504,-3.5504,-3.5504,-3.6193,-3.733,-3.8093,-3.8811,-3.9424,-3.9424,-3.9424,-3.9424,0.0,0.0,0.0,0.0,0.0,0.0,0.0,-3.2152,-3.2114,-3.1474,-3.1863,-3.2202,-3.2202,-3.2729,-3.3081,-3.3081,-3.3081,-3.2955,-3.2679,-3.2667,-3.2403,-3.1838,-3.1574,-3.1185,-3.062,-2.9277,-2.7356,-2.4833,-2.2598,-2.0388,-1.8204,-1.7061,-1.6685,-1.7074,0.0,-2.2008,0.0,0.0,0.0,-2.9365,-2.9666,-2.9792,-2.9792,-2.9792,-2.9792,-2.9792,-2.9792,-2.9792,-2.9792,-2.9792,-2.9792,-2.9792,-2.9792,-2.9792,-2.9792,-2.9792,-2.9792,-2.9792,-2.9792,-2.9792,-2.9934,-3.0343,-3.0482,-3.0558,-3.1057,-3.1132,-3.1267,-3.1742,-3.1888,-3.1595,-3.0761,-2.9778,0.0,0.0,0.0,0.0,0.0,0.0,0.0,0.0,0.0,0.0,0.0,0.0,0.0,0.0,0.0,0.0,0.0,0.0,0.0,0.0,0.0,0.0,0.0,0.0,-3.5504,-3.5504,-3.4986,-3.4986,-3.5504,-3.4986,-3.4986,-3.5504,-3.5504,-3.5504,-3.5504,-3.5504,-3.6252,-3.7434,-3.7764,-3.8512,-3.9424,-3.9424,-3.9424,-3.9424,0.0,-2.7922,0.0,0.0,-3.0624,-3.1418,-3.2288,-3.3232,-3.3424,-3.2243,-3.2102,-3.2102,-3.2102,-3.2792,-3.3257,-3.3257,-3.3144,-3.3081,-3.3081,-3.3081,-3.2867,-3.2416,-3.2277,-3.1813,-3.0972,-3.0306,-2.8649,0.0,-2.3866,-2.1656,-1.9346,-1.789,-1.7652,-1.8555,0.0,0.0,0.0,0.0,-2.8499,-2.9151,-2.9616,-2.9792,-2.9792,-2.9792,-2.9792,-2.9792,-2.9792,-2.9792,-2.9792,-2.9792,-2.9792,-2.9792,-2.9792,-2.9792,-2.9792,-2.9792,-2.9792,-2.9792,-2.9792,-2.9792,-2.9792,-2.9792,-2.9792,-2.9792,-2.9792,-2.9792,-2.9998,-3.0758,-3.0895,-3.0763,-3.0348,-3.0187,0.0,0.0,0.0,0.0,0.0,0.0,0.0,0.0,0.0,0.0,0.0,0.0,0.0,0.0,0.0,0.0,-2.2787,0.0,0.0,0.0,0.0,-3.2662,-3.3844,0.0,-3.5504,-3.5504,-3.4461,-3.4543,-3.5439,-3.4461,-3.4543,-3.5504,-3.5504,-3.5504,-3.5504,-3.5504,-3.6252,-3.7404,-3.7404,-3.8227,-3.9424,-3.9424,-3.9424,-3.9424,0.0,0.0,0.0,0.0,0.0,-3.0049,-3.015,-3.0717,-3.1854,-3.4052,-3.4412,-3.4412,-3.4412,-3.406,-3.3822,-3.3822,-3.337,-3.3081,-3.3081,-3.3081,-3.3056,-3.3006,-3.2491,-3.2164,-3.2064,-3.106,-2.9415,0.0,0.0,-2.3188,0.0,-1.9811,-2.0338,-2.1907,0.0,0.0,0.0,-2.7808,-2.8725,-2.9716,-2.9767,-2.9792,-2.9792,-2.9792,-2.9792,-2.9792,-2.9792,-2.9792,-2.9792,-2.9792,-2.9792,-2.9792,-2.9792,-2.9792,-2.9792,-2.9792,-2.9792,-2.9792,-2.9792,-2.9792,-2.9792,-2.9792,-2.9792,-2.9792,-2.9792,-2.9792,-2.9792,-2.9934,-2.9934,-2.9796,-2.9405,-2.9795,-2.9712,0.0,0.0,0.0,0.0,0.0,0.0,0.0,0.0,0.0,0.0,0.0,0.0,0.0,0.0,0.0,0.0,0.0,0.0,-2.7715,0.0,-3.1046,-3.1735,-3.4262,-3.5504,-3.5504,-3.4461,-3.4543,-3.5439,-3.4461,-3.4543,-3.5504,-3.5504,-3.5504,-3.5504,-3.5504,-3.6252,-3.7404,-3.7404,-3.8227,-3.9424,-3.9424,-3.9424,-3.9424,0.0,0.0,0.0,0.0,0.0,0.0,0.0,-3.1526,-3.2044,-3.313,-3.3373,-3.3465,-3.3465,-3.4049,-3.4399,-3.4399,-3.4198,-3.3922,-3.3596,-3.3571,-3.3134,-3.1977,-3.2487,-3.2214,-3.115,-3.1444,-3.0495,0.0,0.0,0.0,-2.2661,-2.2071,-2.2523,-2.3879,0.0,-2.664,-2.7833,-2.8737,-2.9377,-2.9792,-2.9792,-2.9792,-2.9792,-2.9792,-2.9792,-2.9792,-2.9792,-2.9792,-2.9792,-2.9792,-2.9792,-2.9792,-2.9792,-2.9792,-2.9792,-2.9792,-2.9792,-2.9792,-2.9792,-2.9792,-2.9792,-2.9792,-2.9792,-2.9792,-2.9792,-2.9792,-2.9792,-2.9792,-2.9792,-2.9731,-2.9629,-2.93,-2.9085,-2.8901,0.0,0.0,0.0,0.0,0.0,0.0,0.0,0.0,0.0,0.0,0.0,0.0,0.0,-2.0498,-2.2353,-2.2951,0.0,-2.6318,0.0,-3.1255,-3.1482,-3.4173,-3.5213,-3.461,-3.3602,-3.3671,-3.4543,-3.3602,-3.4041,-3.5504,-3.5504,-3.5504,-3.5504,-3.5504,-3.6252,-3.7404,-3.7404,-3.8227,-3.9424,-3.9424,-3.9424,-3.9424,-2.8179,0.0,-2.8264,0.0,-2.9653,-2.9771,-3.0971,-3.1122,-3.1122,-3.1122,-3.1627,-3.2172,-3.2567,-3.3301,-3.3801,-3.3801,-3.3655,-3.3399,-3.3022,-3.2998,-3.2292,-3.0921,-3.1728,0.0,-3.015,-3.0781,-3.0587,-2.932,-2.8075,0.0,-2.5197,-2.4619,-2.5046,0.0,-2.767,-2.8561,-2.9126,-2.993,-3.0269,-3.0269,-3.0269,-3.0269,-3.0269,-3.0269,-3.0269,-3.0269,-3.0269,-3.0269,-3.0244,-3.008,-3.003,-3.0005,-2.9842,-2.9792,-2.9792,-2.9792,-2.9792,-2.9792,-2.9792,-2.9792,-2.9792,-2.9792,-2.9792,-2.9792,-2.9792,-2.9792,-2.9792,-2.9792,-2.9792,-2.9792,-2.9792,-2.9094,-2.8607,-2.8769,0.0,0.0,0.0,0.0,0.0,0.0,-2.4192,-2.3718,-2.3026,0.0,0.0,0.0,0.0,-2.138,-2.2787,-2.3325,0.0,0.0,0.0,0.0,-3.1368,-3.3839,-3.4543,-3.3602,-3.2664,-3.2664,-3.3602,-3.3171,-3.3891,-3.5504,-3.5504,-3.5504,-3.5504,-3.5504,-3.6252,-3.7404,-3.7404,-3.8227,-3.9424,-3.9424,-3.9424,-3.9424,-2.6826,-2.6992,-2.7256,-2.8231,-2.8271,-2.8378,-2.8398,-2.8398,-2.8398,-2.8398,-2.9493,-3.0803,-3.2118,-3.1883,-3.1493,-3.1493,-3.1046,-3.0767,-3.0756,-3.0756,-3.0544,0.0,0.0,-2.9795,-2.9407,-2.8925,-2.919,-3.0402,0.0,0.0,-2.8047,-2.7494,-2.8122,-2.9754,-3.0319,-3.0871,-3.1348,-3.1361,-3.1373,-3.1373,-3.1373,-3.1373,-3.1373,-3.1373,-3.1373,-3.1373,-3.1373,-3.1373,-3.1298,-3.0783,-3.0608,-3.0507,-2.9967,-2.9792,-2.9792,-2.9792,-2.9792,-2.9792,-2.9792,-2.9792,-2.9792,-2.9792,-2.9792,-2.9792,-2.9792,-2.9792,-2.9792,-2.9792,-2.9792,-2.9792,-2.9792,-2.9302,-2.8581,-2.7582,0.0,0.0,0.0,0.0,0.0,0.0,-2.3335,-2.2801,-2.3537,0.0,0.0,0.0,0.0,-2.4003,-2.5478,0.0,0.0,-2.8457,-3.0492,0.0,-3.1128,-3.3077,-3.3518,-3.2593,-3.1669,-3.1669,-3.2664,-3.3602,-3.4543,-3.5504,-3.5504,-3.5504,-3.5504,-3.5504,-3.6252,-3.7404,-3.7404,-3.8227,-3.9424,-3.9424,-3.9424,-3.9424,-2.7832,-2.7891,-2.7969,-2.8242,-2.8291,-2.8291,-2.8291,-2.8291,-2.8291,-2.8291,-2.8698,-2.9102,-2.9513,-3.1095,-3.1995,0.0,-3.1861,-3.1627,0.0,-3.127,-3.0656,-2.9212,-3.0053,-2.9929,-2.8614,-3.0032,-3.0707,-3.0438,0.0,0.0,0.0,-2.9804,-3.003,-3.0884,-3.1072,-3.1235,-3.1386,-3.1386,-3.1386,-3.1386,-3.1386,-3.1386,-3.1386,-3.1386,-3.1386,-3.1386,-3.1386,-3.1386,-3.1361,-3.1198,-3.1148,-3.1122,-3.0934,-3.0382,-2.9792,-2.9792,-2.9792,-2.9792,-2.9792,-2.9792,-2.9792,-2.9792,-2.9792,-2.9792,-2.9792,-2.9792,-2.9792,-2.9792,-2.9792,-2.9792,-2.9792,-2.9013,-2.827,-2.7931,-2.7487,0.0,0.0,0.0,0.0,0.0,-2.3348,-2.3216,0.0,-2.3196,0.0,0.0,0.0,0.0,0.0,0.0,0.0,0.0,-2.9853,0.0,-3.108,-3.2393,-3.2593,-3.1683,-3.1315,-3.1389,-3.1669,-3.331,-3.4177,-3.4543,-3.5213,-3.5504,-3.5504,-3.5504,-3.6252,-3.7404,-3.7404,-3.8227,-3.9424,-3.9424,-3.9424,-3.9424,-2.8291,-2.8291,-2.8291,-2.8291,-2.8291,-2.8291,-2.8291,-2.8291,-2.8291,-2.8291,-2.8291,-2.8291,-2.8291,-2.9807,0.0,-3.0824,-3.0824,-3.0696,-3.0306,-3.0285,-2.9677,-2.8441,-2.9105,-2.8995,-2.7768,-2.9278,0.0,-2.9579,-3.0454,-3.0992,-3.1294,-3.0778,-3.1075,-3.2026,-3.2026,-3.2026,-3.2026,-3.2026,-3.2026,-3.2026,-3.2026,-3.2026,-3.2026,-3.2026,-3.2026,-3.2026,-3.2026,-3.2026,-3.1989,-3.1775,-3.17,-3.1662,-3.1449,-3.0934,-3.0357,-3.0156,-3.0105,-3.0055,-2.9842,-2.9792,-2.9792,-2.9792,-2.9792,-2.9792,-2.9792,-2.9792,-2.9792,-2.9792,-2.9792,-2.9792,-2.9792,-2.8863,-2.8109,-2.8109,-2.6992,-2.5824,-2.4946,0.0,0.0,0.0,0.0,0.0,0.0,-2.4163,-2.4285,0.0,0.0,0.0,0.0,0.0,0.0,-2.7744,-3.0045,-3.1218,-3.1124,-3.176,-3.1609,-3.0696,-3.0696,-3.0833,-3.1254,-3.282,-3.3671,-3.4027,-3.5067,-3.5504,-3.5504,-3.5504,-3.6252,-3.7404,-3.7404,-3.8227,-3.9424,-3.9424,-3.9424,-3.9424,-2.8291,-2.8291,-2.8291,0.0,-2.8291,-2.8291,-2.8291,-2.8291,-2.8291,-2.8291,-2.8291,-2.8291,-2.8291,-2.8291,-2.8291,-2.8291,0.0,0.0,-2.8291,-2.8291,-2.8115,-2.7725,-2.7715,-2.75,-2.707,-2.7163,-2.7523,-2.8399,-2.8598,-2.9543,-3.108,-3.056,-3.1219,-3.2896,-3.2896,-3.2982,-3.2982,-3.3081,-3.3081,-3.3081,-3.3081,-3.3081,-3.3081,-3.3081,-3.3081,-3.3081,-3.3081,-3.3081,-3.2993,-3.2453,-3.2277,-3.219,-3.1675,-3.1512,-3.1399,-3.0834,-3.067,-3.0557,-2.9993,-2.9854,-2.9842,-2.9804,-2.9792,-2.9792,-2.9792,-2.9792,-2.9792,-2.9792,-2.9792,-2.9792,-2.9792,-2.8863,-2.8109,-2.8109,-2.6691,-2.541,-2.4895,0.0,0.0,0.0,0.0,0.0,-2.4932,-2.5602,-2.5934,0.0,0.0,0.0,0.0,0.0,-2.7409,-2.9752,-3.0938,-3.1436,-3.1167,-3.1106,-3.0696,-2.9792,-2.9792,-3.0279,-3.1106,-3.2177,-3.3101,-3.3959,-3.5067,-3.5504,-3.5504,-3.5504,-3.6252,-3.7404,-3.7404,-3.8227,-3.9424,-3.9424,-3.9424,-3.9424,0.0,0.0,-2.8291,-2.8291,-2.8291,-2.8291,-2.8291,-2.8291,-2.8291,-2.8291,-2.8291,-2.8291,-2.8291,-2.8291,-2.8291,-2.8291,-2.8291,-2.8291,-2.8291,-2.8291,-2.8252,-2.8144,-2.8144,-2.7939,-2.7519,-2.8389,-2.9337,-3.0119,-2.9797,-2.9833,-3.0305,-2.9818,-2.984,-3.0328,-3.1235,-3.1677,-3.1689,-3.2698,-3.3081,-3.3081,-3.3081,-3.3081,-3.3081,-3.3081,-3.3081,-3.3081,-3.3081,-3.3081,-3.3056,-3.2918,-3.2867,-3.2855,-3.2717,-3.2679,-3.2478,-3.1499,-3.121,-3.1085,-3.057,-3.0419,-3.0319,-2.9892,-2.9792,-2.9792,-2.9792,-2.9792,-2.9792,-2.9792,-2.9792,-2.9792,-2.9792,-2.8863,-2.8109,-2.8109,-2.6691,-2.541,-2.4895,-2.4707,0.0,0.0,-2.4747,-2.5154,-2.4873,-2.5781,-2.6013,0.0,0.0,0.0,-2.6466,-2.7236,-2.8329,-2.9756,-3.0263,-3.0732,-3.1167,-3.0482,-2.9998,-2.9792,-2.9792,-2.9934,-3.0216,-3.1829,-3.2749,-3.3031,-3.4773,-3.5504,-3.5504,-3.5504,-3.6252,-3.7404,-3.7404,-3.8227,-3.9424,-3.9424,-3.9424,-3.9424,-2.8291,-2.8291,-2.8291,-2.8291,-2.8291,-2.8291,-2.8291,-2.8291,-2.8291,-2.8291,-2.8291,-2.8291,-2.8291,-2.8291,-2.8291,-2.8291,-2.8291,-2.8291,-2.8291,-2.8291,-2.8291,-2.8291,-2.8291,-2.8184,-2.7959,-2.8655,-2.9127,-2.9358,-2.8894,-2.8945,-2.9407,-2.9254,-2.9299,-2.9732,-3.0377,-3.0886,-3.1223,-3.1323,-3.1701,-3.2239,-3.2239,-3.2239,-3.2326,-3.2884,-3.3081,-3.3081,-3.3081,-3.3081,-3.3081,-3.3081,-3.3081,-3.3081,-3.3081,-3.3081,-3.2955,-3.234,-3.1976,-3.165,-3.111,-3.0796,-3.0482,-2.993,-2.9792,-2.9792,-2.9792,-2.9792,-2.9792,-2.9792,-2.9792,-2.9792,-2.9792,-2.8863,-2.8021,-2.777,-2.6527,-2.541,-2.4895,-2.482,0.0,-2.5096,-2.5636,-2.6076,-2.6302,-2.6866,-2.6968,-2.6381,-2.7109,0.0,-2.7212,-2.8285,-2.906,-2.9399,-2.9775,-3.0173,-3.0558,-3.0075,-2.9792,-2.9792,-2.9792,-2.9792,-2.9869,-3.1328,-3.2177,-3.2664,-3.4192,-3.5067,-3.5504,-3.5504,-3.6252,-3.7404,-3.7404,-3.8227,-3.9424,-3.9424,-3.9424,-3.9424,-2.8291,-2.8291,-2.8291,-2.8291,-2.834,-2.8389,-2.8389,-2.8389,-2.8389,-2.8389,-2.833,-2.8291,-2.8291,-2.8291,-2.8291,-2.8291,-2.8291,-2.8291,-2.8291,-2.8291,-2.8291,-2.8291,-2.8291,-2.8291,-2.8291,-2.8291,-2.8115,-2.7764,-2.7324,-2.759,-2.8649,-2.8576,-2.8919,-2.9573,-2.9763,-3.0187,-3.0807,-2.9988,-3.0217,-3.1252,-3.1062,-3.1205,-3.1589,-3.2426,-3.2884,-3.3081,-3.3081,-3.3081,-3.3081,-3.3081,-3.3081,-3.3081,-3.3081,-3.3081,-3.3081,-3.3081,-3.2729,-3.2215,-3.1662,-3.1072,-3.0507,-3.003,-2.9854,-2.9792,-2.9792,-2.9792,-2.9792,-2.9792,-2.9792,-2.9792,-2.9792,-2.8863,-2.7921,-2.7369,-2.6327,-2.541,-2.4895,0.0,-2.5423,-2.6352,-2.6678,-2.7168,-2.8021,-2.8185,-2.8235,-2.8235,-2.8662,-2.8762,-2.8386,-2.9264,-2.9566,-2.9076,-2.9528,-2.9792,-2.9792,-2.9792,-2.9792,-2.9792,-2.9792,-2.9792,-2.9869,-3.0758,-3.1669,-3.2664,-3.3602,-3.4543,-3.5504,-3.5504,-3.6207,-3.7285,-3.7375,-3.8167,-3.9275,-3.9379,-3.9424,-3.9424,-2.8291,-2.8291,-2.8291,-2.8291,-2.8584,-2.8818,-2.8818,-2.8818,-2.8818,-2.8818,-2.8516,-2.8291,-2.8291,-2.8291,-2.8291,-2.8291,-2.8291,-2.8291,-2.8291,-2.8291,-2.8291,-2.8291,-2.8291,-2.8291,-2.8291,-2.8291,-2.8262,-2.8193,-2.7773,-2.7663,-2.7851,-2.7475,-2.7359,-2.7492,-2.8541,-2.907,-2.9191,-3.016,-3.097,-3.1707,-3.0663,-3.1243,-3.2711,-3.1865,-3.214,-3.3081,-3.3081,-3.3081,-3.3081,-3.3081,-3.3081,-3.3081,-3.3081,-3.3081,-3.3081,-3.3081,-3.3018,-3.2817,-3.224,-3.1361,-3.0595,-3.0507,-3.0143,-2.9792,-2.9792,-2.9792,-2.9792,-2.9792,-2.9792,-2.9792,-2.9792,-2.8863,-2.7921,-2.7369,-2.6327,-2.541,-2.4895,0.0,-2.6264,-2.6508,-2.7695,-2.8423,-2.8134,-2.8524,-2.88,-2.88,-2.8875,-2.9101,-2.9503,-2.9691,-2.9754,-2.9666,-2.9741,-2.9792,-2.9792,-2.9792,-2.9792,-2.9792,-2.9792,-2.9792,-2.9869,-3.0758,-3.1669,-3.2664,-3.3602,-3.4543,-3.5504,-3.5504,-3.5953,-3.6686,-3.721,-3.7868,-3.8616,-3.92,-3.9424,-3.9424,-2.8291,-2.8291,-2.8291,-2.8291,-2.8711,-2.8945,-2.8633,-2.8769,-2.8838,-2.8613,-2.8418,-2.8291,-2.8291,-2.8291,-2.8291,-2.8291,-2.8291,-2.8291,-2.8291,-2.8291,-2.8291,-2.8291,-2.8291,-2.8291,-2.8291,-2.8291,-2.8291,-2.8291,-2.8096,-2.7998,-2.7998,-2.7793,-2.7578,-2.7363,-2.7951,-2.839,-2.8833,-2.8744,-2.9298,-3.0146,-2.9569,-2.9906,-3.0835,-3.1689,-3.2172,-3.258,-3.3246,-3.3332,-3.3081,-3.3081,-3.3081,-3.3081,-3.3081,-3.3081,-3.3081,-3.3081,-3.3081,-3.2955,-3.2365,-3.1637,-3.0972,-3.0683,-3.0206,-2.9792,-2.9792,-2.9792,-2.9792,-2.9792,-2.9792,-2.9792,-2.9792,-2.9114,-2.8373,-2.7821,-2.7042,0.0,-2.6176,-2.659,-2.713,-2.772,-2.8461,-2.895,-2.9013,-2.9252,-2.939,-2.939,-2.939,-2.9515,-2.9779,-2.9792,-2.9792,-2.9792,-2.9792,-2.9792,-2.9792,-2.9792,-2.9792,-2.9792,-2.9792,-2.9792,-2.9792,-3.0279,-3.0983,-3.1888,-3.282,-3.3822,-3.4758,-3.5279,-3.5893,-3.6507,-3.6806,-3.7509,-3.8422,-3.8751,-3.9095,-3.9424,-2.8574,-2.8584,-2.8555,-2.8457,-2.8896,-2.9072,-2.8525,-2.8711,-2.8809,-2.8476,-2.8359,-2.8291,-2.8291,-2.8291,-2.8291,-2.8291,-2.8291,-2.8291,-2.8291,-2.8291,-2.8291,-2.8291,-2.8291,-2.8291,-2.8291,-2.8291,-2.8291,-2.8291,-2.8291,-2.8291,-2.8291,-2.8291,-2.8125,-2.7812,-2.7812,-2.8117,-2.8674,-2.7706,-2.7933,-2.8901,-2.861,-2.8838,-2.9514,-3.1544,-3.1973,-3.1819,-3.3142,-3.3268,-3.281,-3.281,-3.2909,-3.3081,-3.3081,-3.3081,-3.3081,-3.3081,-3.3081,-3.298,-3.2541,-3.2001,-3.1449,-3.0922,-3.0382,-2.9942,-2.9829,-2.9792,-2.9792,-2.9792,-2.9792,-2.9792,-2.9792,-2.9315,-2.875,-2.8197,0.0,-2.7431,-2.7306,-2.7507,-2.7984,-2.8825,-2.9051,-2.9302,-2.9754,-2.9792,-2.9792,-2.9792,-2.9792,-2.9792,-2.9792,-2.9792,-2.9792,-2.9792,-2.9792,-2.9792,-2.9792,-2.9792,-2.9792,-2.9792,-2.9792,-2.9792,-2.9792,-2.9792,-3.0279,-3.1254,-3.2177,-3.3101,-3.4095,-3.5067,-3.5804,-3.6267,-3.6432,-3.709,-3.7988,-3.8287,-3.8721,-3.92,-2.9394,-2.9473,-2.9346,-2.8945,-2.9248,-2.9385,-2.8935,-2.8896,-2.8906,-2.8877,-2.8535,-2.8291,-2.8291,-2.8291,-2.8291,-2.8291,-2.8291,-2.8291,-2.8291,-2.8291,-2.8291,-2.8291,-2.8291,-2.8291,-2.8291,-2.8291,-2.8291,-2.8291,-2.8291,-2.8291,-2.8291,-2.8291,-2.8271,-2.8252,-2.8252,-2.8329,-2.83,-2.8193,-2.8665,-2.938,-2.8211,-2.8949,-3.0574,-3.0874,-3.0948,-3.0999,-3.2347,-3.24,-3.196,-3.196,-3.2467,-3.3081,-3.3081,-3.3081,-3.3081,-3.3081,-3.3081,-3.3068,-3.3031,-3.2591,-3.2026,-3.1474,-3.0947,-3.0419,-2.9905,-2.9792,-2.9792,-2.9792,-2.9792,-2.9792,-2.9792,-2.9315,-2.875,-2.8197,0.0,0.0,-2.7356,-2.816,-2.8837,-2.8925,-2.9402,-2.9741,-2.9792,-2.9792,-2.9792,-2.9792,-2.9792,-2.9792,-2.9792,-2.9792,-2.9792,-2.9792,-2.9792,-2.9792,-2.9792,-2.9792,-2.9792,-2.9792,-2.9792,-2.9792,-2.9792,-2.9792,-3.0279,-3.1254,-3.2177,-3.3101,-3.4095,-3.5067,-3.5534,-3.5639,-3.6252,-3.6552,-3.6776,-3.7943,-3.8422,-3.8556,-2.9082,-2.9531,-2.9736,-2.9385,-2.9912,-3.0059,-2.9072,-2.915,-2.9131,-2.8603,-2.8389,-2.8291,-2.8291,-2.8291,-2.8291,-2.8291,-2.8291,-2.8291,-2.8291,-2.8291,-2.8291,-2.8291,-2.8291,-2.8291,-2.8291,-2.8291,-2.8291,-2.8291,-2.8291,-2.8291,-2.8291,-2.8291,-2.8291,-2.8291,-2.8291,-2.8291,-2.8291,-2.8291,-2.8502,-2.8755,-2.8259,-2.856,-2.9302,-3.02,-3.031,-3.0152,-3.1517,-3.1586,-3.1258,-3.2112,-3.2345,-3.2463,-3.3308,-3.3357,-3.3081,-3.3081,-3.3081,-3.3081,-3.3081,-3.2654,-3.2164,-3.1951,-3.1248,-3.0557,-3.0357,-3.0043,-2.9792,-2.9792,-2.9792,-2.9792,-2.9792,-2.9616,-2.9402,-2.9189,0.0,-2.8674,-2.8825,-2.8888,-2.9063,-2.9415,-2.9654,-2.9792,-2.9792,-2.9792,-2.9792,-2.9792,-2.9792,-2.9792,-2.9792,-2.9792,-2.9792,-2.9792,-2.9792,-2.9792,-2.9792,-2.9792,-2.9792,-2.9792,-2.9792,-2.9792,-2.9792,-2.9792,-2.9998,-3.0343,-3.1328,-3.2249,-3.3241,-3.4177,-3.492,-3.5534,-3.5774,-3.6133,-3.6596,-3.7464,-3.8033,-3.8497,-2.9424,-2.9941,-3.0185,-2.9824,-3.0264,-3.0322,-2.9287,-2.9375,-2.9365,-2.8769,-2.8574,-2.8496,-2.8496,-2.8369,-2.8291,-2.8291,-2.8291,-2.8291,-2.8291,-2.8291,-2.8291,-2.8291,-2.8291,-2.8291,-2.8291,-2.8291,-2.8291,-2.8291,-2.8291,-2.8291,-2.8291,-2.8291,-2.8291,-2.8291,-2.8291,-2.8291,-2.8291,-2.8291,-2.8291,-2.8291,-2.8291,-2.8291,-2.8504,-2.9817,-2.9818,-2.9353,-3.0637,-3.0822,-3.0515,-3.1869,-3.2207,-3.2325,-3.3568,-3.352,-3.3081,-3.3081,-3.3081,-3.3081,-3.3081,-3.278,-3.2441,-3.2252,-3.1662,-3.1022,-3.0696,-3.0319,-2.9993,-2.9829,-2.9792,-2.9792,-2.9792,-2.9792,-2.9792,-2.9792,-2.9453,-2.934,-2.9741,-2.9453,-2.9352,-2.9741,-2.9792,-2.9792,-2.9792,-2.9792,-2.9792,-2.9792,-2.9792,-2.9792,-2.9792,-2.9792,-2.9792,-2.9792,-2.9792,-2.9792,-2.9792,-2.9792,-2.9792,-2.9792,-2.9792,-2.9792,-2.9792,-2.9792,-2.9792,-2.9856,-3.0758,-3.1742,-3.2664,-3.3602,-3.461,-3.5504,-3.5504,-3.5774,-3.6252,-3.6881,-3.7404,-3.7913,-3.0703,-3.0889,-3.0742,-3.0283,-3.0205,-3.0059,-2.9639,-2.957,-2.957,-2.957,-2.9189,-2.8926,-2.8926,-2.8555,-2.8301,-2.8301,-2.8291,-2.8291,-2.8291,-2.8291,-2.8291,-2.8291,-2.8291,-2.8291,-2.8291,-2.8291,-2.8291,-2.8291,-2.8291,-2.8291,-2.8291,-2.8291,-2.8291,-2.8291,-2.8291,-2.8291,-2.8291,-2.8291,-2.8291,-2.8291,-2.8291,-2.8291,-2.8504,-2.9817,-2.9513,-2.8495,-2.9817,-2.9921,-2.9737,-3.102,-3.2053,-3.2802,-3.3603,-3.352,-3.3081,-3.3068,-3.3081,-3.3081,-3.3081,-3.3081,-3.2943,-3.2365,-3.2215,-3.1938,-3.0871,-3.062,-3.0457,-2.9905,-2.9792,-2.9792,-2.9792,-2.9792,-2.9792,-2.9792,-2.9792,-2.9792,-2.9792,-2.9792,-2.9792,-2.9792,-2.9792,-2.9792,-2.9792,-2.9792,-2.9792,-2.9792,-2.9792,-2.9792,-2.9792,-2.9792,-2.9792,-2.9792,-2.9792,-2.9792,-2.9792,-2.9792,-2.9792,-2.9792,-2.9792,-2.9792,-2.9792,-2.9792,-2.9792,-2.9856,-3.0758,-3.1742,-3.2664,-3.3602,-3.461,-3.5504,-3.5504,-3.5504,-3.5579,-3.6237,-3.6492,-3.6671,-2.9853,-3.0205,-3.0459,-3.0654,-3.0684,-3.0537,-3.0078,-3.001,-2.9902,-2.9609,-2.9453,-2.9375,-2.9375,-2.8984,-2.873,-2.873,-2.8467,-2.8291,-2.8291,-2.8291,-2.8291,-2.8291,-2.8291,-2.8291,-2.8291,-2.8291,-2.8291,-2.8291,-2.8291,-2.8291,-2.8291,-2.8291,-2.8291,-2.8291,-2.8291,-2.8291,-2.8291,-2.8291,-2.8291,-2.8291,-2.8291,-2.8291,-2.8291,-2.8698,-2.8601,-2.8398,-2.8804,-2.882,-2.891,-3.0211,-3.0604,-3.0646,-3.2097,-3.1798,-3.104,-3.1608,-3.1777,-3.1777,-3.1777,-3.2426,-3.3031,-3.2867,-3.2516,-3.2026,-3.1323,-3.0871,-3.0457,-2.9905,-2.9792,-2.9792,-2.9792,-2.9792,-2.9792,-2.9792,-2.9792,-2.9792,-2.9792,-2.9792,-2.9792,-2.9792,-2.9792,-2.9792,-2.9792,-2.9792,-2.9792,-2.9792,-2.9792,-2.9792,-2.9792,-2.9792,-2.9792,-2.9792,-2.9792,-2.9792,-2.9792,-2.9792,-2.9792,-2.9792,-2.9792,-2.9792,-2.9792,-2.9792,-2.9792,-2.9856,-3.0758,-3.1742,-3.2664,-3.3602,-3.461,-3.5504,-3.5504,-3.5504,-3.5579,-3.6237,-3.6492,-3.6596,-2.9736,-3.0166,-3.0508,-3.0605,-3.0771,-3.0732,-3.0264,-3.0351,-3.0381,-3.0127,-2.9932,-2.9824,-2.9824,-2.9287,-2.8916,-2.8916,-2.8535,-2.8291,-2.8291,-2.8291,-2.8291,-2.8291,-2.8291,-2.8291,-2.8291,-2.8291,-2.8291,-2.8291,-2.8291,-2.8291,-2.8291,-2.8291,-2.8291,-2.8291,-2.8291,-2.8291,-2.8291,-2.8291,-2.8291,-2.8291,-2.8291,-2.8291,-2.8291,-2.8291,-2.8291,-2.8291,-2.8291,-2.8291,-2.8495,-2.9817,-3.031,-3.0413,-3.1483,-3.091,-3.0068,-3.0594,-3.0647,-3.0586,-3.1033,-3.1777,-3.2426,-3.2982,-3.2817,-3.2403,-3.1838,-3.1298,-3.0771,-3.0231,-2.9942,-2.9792,-2.9792,-2.9792,-2.9792,-2.9792,-2.9792,-2.9792,-2.9792,-2.9792,-2.9792,-2.9792,-2.9792,-2.9792,-2.9792,-2.9792,-2.9792,-2.9792,-2.9792,-2.9792,-2.9792,-2.9792,-2.9792,-2.9792,-2.9792,-2.9792,-2.9792,-2.9792,-2.9792,-2.9792,-2.9792,-2.9792,-2.9792,-2.9792,-2.9792,-2.9869,-3.0419,-3.1402,-3.2664,-3.3241,-3.4259,-3.5504,-3.5504,-3.5504,-3.5549,-3.5953,-3.6088,-3.6193,-3.001,-3.0459,-3.0635,-3.0215,-3.0518,-3.0684,-3.0264,-3.0596,-3.0889,-3.0889,-3.0518,-3.0264,-3.0264,-2.9492,-2.8975,-2.8975,-2.8555,-2.8291,-2.8291,-2.8291,-2.8291,-2.8291,-2.8291,-2.8291,-2.8291,-2.8291,-2.8291,-2.8291,-2.8291,-2.8291,-2.8291,-2.8291,-2.8291,-2.8291,-2.8291,-2.8291,-2.8291,-2.8291,-2.8291,-2.8291,-2.8291,-2.8291,-2.8291,-2.8291,-2.8291,-2.8291,-2.8291,-2.8291,-2.8495,-2.9713,-3.0638,-3.1263,-3.1318,-3.0599,-2.9763,-2.9864,-2.9531,-2.9555,-3.0598,-3.1045,-3.15,-3.2612,-3.2982,-3.2918,-3.234,-3.1825,-3.1323,-3.0796,-3.0244,-2.9867,-2.9867,-2.9829,-2.9792,-2.9792,-2.9792,-2.9792,-2.9792,-2.9792,-2.9792,-2.9792,-2.9792,-2.9792,-2.9792,-2.9792,-2.9792,-2.9792,-2.9792,-2.9792,-2.9792,-2.9792,-2.9792,-2.9792,-2.9792,-2.9792,-2.9792,-2.9792,-2.9792,-2.9792,-2.9792,-2.9792,-2.9792,-2.9792,-2.9792,-2.9792,-2.9856,-3.0921,-3.2464,-3.2664,-3.3685,-3.5213,-3.5359,-3.5359,-3.5359,-3.5359,-3.5424,-3.5594,-2.918,-2.9551,-2.9824,-2.9726,-3.0059,-3.0312,-3.0215,-3.0596,-3.0889,-3.0889,-3.0801,-3.0742,-3.0742,-2.9961,-2.9434,-2.9434,-2.873,-2.8291,-2.8291,-2.8291,-2.8291,-2.8291,-2.8291,-2.8291,-2.8291,-2.8291,-2.8291,-2.8291,-2.8291,-2.8291,-2.8291,-2.8291,-2.8291,-2.8291,-2.8291,-2.8291,-2.8291,-2.8291,-2.8291,-2.8291,-2.8291,-2.8291,-2.8291,-2.8291,-2.8291,-2.8291,-2.8291,-2.8291,-2.8291,-2.8601,-2.884,-2.91,-2.974,-2.9104,-2.8228,-2.8471,-2.8562,-2.8402,-2.8416,-2.9772,-3.1311,-3.15,-3.2326,-3.2918,-3.234,-3.2127,-3.1876,-3.1336,-3.0796,-3.0432,-3.0432,-3.008,-2.9792,-2.9792,-2.9792,-2.9792,-2.9792,-2.9792,-2.9792,-2.9792,-2.9792,-2.9792,-2.9792,-2.9792,-2.9792,-2.9792,-2.9792,-2.9792,-2.9792,-2.9792,-2.9792,-2.9792,-2.9792,-2.9792,-2.9792,-2.9792,-2.9792,-2.9792,-2.9792,-2.9792,-2.9792,-2.9792,-2.9792,-2.9869,-3.0558,-3.1119,-3.1609,-3.3101,-3.3533,-3.3325,-3.4027,-3.4327,-3.4327,-3.4327,-3.4839,-3.5534,-2.8916,-2.9434,-2.9805,-2.96,-3.0107,-3.0449,-3.0234,-3.0596,-3.081,-3.0596,-3.0566,-3.0478,-3.0283,-2.9658,-2.918,-2.8975,-2.8555,-2.8291,-2.8291,-2.8291,-2.8291,-2.8291,-2.8291,-2.8291,-2.8291,-2.8291,-2.8291,-2.8291,-2.8291,-2.8291,-2.8291,-2.8291,-2.8291,-2.8291,-2.8291,-2.8291,-2.8291,-2.8291,-2.8291,-2.8291,-2.8291,-2.8291,-2.8291,-2.8291,-2.8291,-2.8291,-2.8291,-2.8291,-2.8291,-2.8291,-2.8291,-2.8349,-2.883,-2.8326,-2.7776,-2.7905,-2.7661,-2.7462,-2.7785,-2.8668,-2.959,-3.0226,-3.1223,-3.2253,-3.2594,-3.2416,-3.2127,-3.1838,-3.1348,-3.0984,-3.0984,-3.0746,-3.047,-3.0218,-3.0181,-3.0093,-2.9829,-2.9792,-2.9792,-2.9792,-2.9792,-2.9792,-2.9792,-2.9792,-2.9792,-2.9792,-2.9792,-2.9792,-2.9792,-2.9792,-2.9792,-2.9792,-2.9792,-2.9792,-2.9792,-2.9792,-2.9792,-2.9792,-2.9792,-2.9792,-2.9792,-2.9792,-2.9792,-2.9856,-3.0758,-3.1462,-3.196,-3.338,-3.3959,-3.4041,-3.4543,-3.4691,-3.4691,-3.4691,-3.5052,-3.5504,-2.8809,-2.9385,-2.9756,-2.9414,-3.0019,-3.0449,-3.0137,-3.042,-3.0547,-3.0234,-3.0137,-2.9961,-2.9609,-2.918,-2.875,-2.833,-2.8291,-2.8291,-2.8291,-2.8291,-2.8291,-2.8291,-2.8291,-2.8291,-2.8291,-2.8291,-2.8291,-2.8291,-2.8291,-2.8291,-2.8291,-2.8291,-2.8291,-2.8291,-2.8291,-2.8291,-2.8291,-2.8291,-2.8291,-2.8291,-2.8291,-2.8291,-2.8291,-2.8291,-2.8291,-2.8291,-2.8291,-2.8291,-2.8291,-2.8291,-2.8291,-2.8291,-2.8291,-2.8057,-2.7754,-2.7685,-2.7158,-2.6763,-2.7652,-2.7806,-2.7957,-2.8877,-3.0124,-3.15,-3.2513,-3.2521,-3.2353,-3.2353,-3.1913,-3.1537,-3.1537,-3.1449,-3.1248,-3.0821,-3.0746,-3.0557,-3.0005,-2.993,-2.9892,-2.9804,-2.9792,-2.9792,-2.9792,-2.9792,-2.9792,-2.9792,-2.9792,-2.9792,-2.9792,-2.9792,-2.9792,-2.9792,-2.9792,-2.9792,-2.9792,-2.9792,-2.9792,-2.9792,-2.9792,-2.9792,-2.9792,-2.9792,-2.9792,-2.9856,-3.0758,-3.1683,-3.2464,-3.3518,-3.4394,-3.5001,-3.5213,-3.5213,-3.5279,-3.5439,-3.5504,-3.5504,-2.8379,-2.8476,-2.8525,-2.8476,-2.8867,-2.9297,-2.9609,-2.9707,-2.9853,-3.0156,-2.9883,-2.9629,-2.958,-2.918,-2.875,-2.833,-2.8291,-2.8291,-2.8291,-2.8291,-2.8291,-2.8291,-2.8291,-2.8291,-2.8291,-2.8291,-2.8291,-2.8291,-2.8291,-2.8291,-2.8291,-2.8291,-2.8291,-2.8291,-2.8291,-2.8291,-2.8291,-2.8291,-2.8291,-2.8291,-2.8291,-2.8291,-2.8291,-2.8291,-2.8291,-2.8291,-2.8291,-2.8291,-2.8291,-2.8291,-2.8291,-2.8291,-2.8291,-2.8252,-2.8135,-2.7773,-2.7588,-2.7437,-2.6773,-2.7374,-2.8072,-2.7862,-2.9498,-3.1223,-3.14,-3.2277,-3.2955,-3.2955,-3.2503,-3.2102,-3.2102,-3.1712,-3.1361,-3.1298,-3.1286,-3.1097,-3.0583,-3.0507,-3.0331,-2.9854,-2.9792,-2.9792,-2.9792,-2.9792,-2.9792,-2.9792,-2.9792,-2.9792,-2.9792,-2.9792,-2.9792,-2.9792,-2.9792,-2.9792,-2.9792,-2.9792,-2.9792,-2.9792,-2.9792,-2.9792,-2.9792,-2.9792,-2.9792,-2.9856,-3.0758,-3.1241,-3.1536,-3.331,-3.3602,-3.3101,-3.3891,-3.4177,-3.4312,-3.5213,-3.5504,-3.5504,-2.8291,-2.8476,-2.8643,-2.8643,-2.8994,-2.9346,-2.9541,-2.957,-2.9551,-2.9492,-2.9326,-2.9121,-2.8887,-2.8682,-2.8496,-2.831,-2.8291,-2.8291,-2.8291,-2.8291,-2.8291,-2.8291,-2.8291,-2.8291,-2.8291,-2.8291,-2.8291,-2.8291,-2.8291,-2.8291,-2.8291,-2.8291,-2.8291,-2.8291,-2.8291,-2.8291,-2.8291,-2.8291,-2.8291,-2.8291,-2.8291,-2.8291,-2.8291,-2.8291,-2.8291,-2.8291,-2.8291,-2.8291,-2.8291,-2.8291,-2.8291,-2.8291,-2.8291,-2.8291,-2.8262,-2.8066,-2.7851,-2.7529,-2.6904,-2.6943,-2.7215,-2.7525,-2.8958,-3.0406,-3.1033,-3.2152,-3.3081,-3.3081,-3.2867,-3.2692,-3.2692,-3.2503,-3.2227,-3.1901,-3.1851,-3.1662,-3.1122,-3.0796,-3.0407,-2.9854,-2.9792,-2.9792,-2.9792,-2.9792,-2.9792,-2.9792,-2.9792,-2.9792,-2.9792,-2.9792,-2.9792,-2.9792,-2.9792,-2.9792,-2.9792,-2.9792,-2.9792,-2.9792,-2.9792,-2.9792,-2.9792,-2.9792,-2.9792,-2.9856,-3.0758,-3.118,-3.1315,-3.2664,-3.2961,-3.2664,-3.3031,-3.3241,-3.3241,-3.3685,-3.3905,-3.3905]}]]